[[{"header":{"parameterUnit":"m.s-1","parameterCategory":1,"la1":30.6,"la2":28.766,"lo1":-90.7593,"lo2":-88.6598,"dy":0.0162,"dx":0.0183,"nx":116,"ny":114,"refTime":"2023-04-14T12:00:00:Z","depth":0,"parameterNumber":2,"parameterNumberName":"U-component_of_WINDS"},"data":[0.0,0.0,0.0,0.0,0.0,0.0,0.0,0.0,0.0,0.0,0.0,0.0,0.0,0.0,0.0,0.0,0.0,0.0,0.0,0.0,0.0,0.0,0.0,0.0,0.0,0.0,0.0,0.0,0.0,0.0,0.0,0.0,0.0,0.0,0.0,0.0,0.0,0.0,0.0,0.0,0.0,0.0,0.0,0.0,0.0,0.0,0.0,0.0,0.0,0.0,0.0,0.0,0.0,0.0,0.0,0.0,0.0,0.0,0.0,0.0,0.0,0.0,0.0,0.0,0.0,0.0,0.0,0.0,0.0,0.0,0.0,0.0,0.0,0.0,0.0,0.0,0.0,0.0,0.0,0.0,0.0,0.0,0.0,0.0,0.0,0.0,0.0,0.0,0.0,0.0,0.0,0.0,0.0,0.0,0.0,0.0,0.0,0.0,0.0,0.0,0.0,0.0,0.0,0.0,0.0,0.0,0.0,0.0,0.0,0.0,0.0,0.0,0.0,0.0,0.0,0.0,0.0,0.0,0.0,0.0,0.0,0.0,0.0,0.0,0.0,0.0,0.0,0.0,0.0,0.0,0.0,0.0,0.0,0.0,0.0,0.0,0.0,0.0,0.0,0.0,0.0,0.0,0.0,0.0,0.0,0.0,0.0,0.0,0.0,0.0,0.0,0.0,0.0,0.0,0.0,0.0,0.0,0.0,0.0,0.0,0.0,0.0,0.0,0.0,0.0,0.0,0.0,0.0,0.0,0.0,0.0,0.0,0.0,0.0,0.0,0.0,0.0,0.0,0.0,0.0,0.0,0.0,0.0,0.0,0.0,0.0,0.0,0.0,0.0,0.0,0.0,0.0,0.0,0.0,0.0,0.0,0.0,0.0,0.0,0.0,0.0,0.0,0.0,0.0,0.0,0.0,0.0,0.0,0.0,0.0,0.0,0.0,0.0,0.0,0.0,0.0,0.0,0.0,0.0,0.0,0.0,0.0,0.0,0.0,0.0,0.0,0.0,0.0,0.0,0.0,0.0,0.0,0.0,0.0,0.0,0.0,0.0,0.0,0.0,0.0,0.0,0.0,0.0,0.0,0.0,0.0,0.0,0.0,0.0,0.0,0.0,0.0,0.0,0.0,0.0,0.0,0.0,0.0,0.0,0.0,0.0,0.0,0.0,0.0,0.0,0.0,0.0,0.0,0.0,0.0,0.0,0.0,0.0,0.0,0.0,0.0,0.0,0.0,0.0,0.0,0.0,0.0,0.0,0.0,0.0,0.0,0.0,0.0,0.0,0.0,0.0,0.0,0.0,0.0,0.0,0.0,0.0,0.0,0.0,0.0,0.0,0.0,0.0,0.0,0.0,0.0,0.0,0.0,0.0,0.0,0.0,0.0,0.0,0.0,0.0,0.0,0.0,0.0,0.0,0.0,0.0,0.0,0.0,0.0,0.0,0.0,0.0,0.0,0.0,0.0,0.0,0.0,0.0,0.0,0.0,0.0,0.0,0.0,0.0,0.0,0.0,0.0,0.0,0.0,0.0,0.0,0.0,0.0,0.0,0.0,0.0,0.0,0.0,0.0,0.0,0.0,0.0,0.0,0.0,0.0,0.0,0.0,0.0,0.0,0.0,0.0,0.0,0.0,0.0,0.0,0.0,0.0,0.0,0.0,0.0,0.0,0.0,0.0,0.0,0.0,0.0,0.0,0.0,0.0,0.0,0.0,0.0,0.0,0.0,0.0,0.0,0.0,0.0,0.0,0.0,0.0,0.0,0.0,0.0,0.0,0.0,0.0,0.0,0.0,0.0,0.0,0.0,0.0,0.0,0.0,0.0,0.0,0.0,0.0,0.0,0.0,0.0,0.0,0.0,0.0,0.0,0.0,0.0,0.0,0.0,0.0,0.0,0.0,0.0,0.0,0.0,0.0,0.0,0.0,0.0,0.0,0.0,0.0,0.0,0.0,0.0,0.0,0.0,0.0,0.0,0.0,0.0,0.0,0.0,0.0,0.0,0.0,0.0,0.0,0.0,0.0,0.0,0.0,0.0,0.0,0.0,0.0,0.0,0.0,0.0,0.0,0.0,0.0,0.0,0.0,0.0,0.0,0.0,0.0,0.0,0.0,0.0,0.0,0.0,0.0,0.0,0.0,0.0,0.0,0.0,0.0,0.0,0.0,0.0,0.0,0.0,0.0,0.0,0.0,0.0,0.0,0.0,0.0,0.0,0.0,0.0,0.0,0.0,0.0,0.0,0.0,0.0,0.0,0.0,0.0,0.0,0.0,0.0,0.0,0.0,0.0,0.0,0.0,0.0,0.0,0.0,0.0,0.0,0.0,0.0,0.0,0.0,0.0,0.0,0.0,0.0,0.0,0.0,0.0,0.0,0.0,0.0,0.0,0.0,0.0,0.0,0.0,0.0,0.0,0.0,0.0,0.0,0.0,0.0,0.0,0.0,0.0,0.0,0.0,0.0,0.0,0.0,0.0,0.0,0.0,0.0,0.0,0.0,0.0,0.0,0.0,0.0,0.0,0.0,0.0,0.0,0.0,0.0,0.0,0.0,0.0,0.0,0.0,0.0,0.0,0.0,0.0,0.0,0.0,0.0,0.0,0.0,0.0,0.0,0.0,0.0,0.0,0.0,0.0,0.0,0.0,0.0,0.0,0.0,0.0,0.0,0.0,0.0,0.0,0.0,0.0,0.0,0.0,0.0,0.0,0.0,0.0,0.0,0.0,0.0,0.0,0.0,0.0,0.0,0.0,0.0,0.0,0.0,0.0,0.0,0.0,0.0,0.0,0.0,0.0,0.0,0.0,0.0,0.0,0.0,0.0,0.0,0.0,0.0,0.0,0.0,0.0,0.0,0.0,0.0,0.0,0.0,0.0,0.0,0.0,0.0,0.0,0.0,0.0,0.0,0.0,0.0,0.0,0.0,0.0,0.0,0.0,0.0,0.0,0.0,0.0,0.0,0.0,0.0,0.0,0.0,0.0,0.0,0.0,0.0,0.0,0.0,0.0,0.0,0.0,0.0,0.0,0.0,0.0,0.0,0.0,0.0,0.0,0.0,0.0,0.0,0.0,0.0,0.0,0.0,0.0,0.0,0.0,0.0,0.0,0.0,0.0,0.0,0.0,0.0,0.0,0.0,0.0,0.0,0.0,0.0,0.0,0.0,0.0,0.0,0.0,0.0,0.0,0.0,0.0,0.0,0.0,0.0,0.0,0.0,0.0,0.0,0.0,0.0,0.0,0.0,0.0,0.0,0.0,0.0,0.0,0.0,0.0,0.0,0.0,0.0,0.0,0.0,0.0,0.0,0.0,0.0,0.0,0.0,0.0,0.0,0.0,0.0,0.0,0.0,0.0,0.0,0.0,0.0,0.0,0.0,0.0,0.0,0.0,0.0,0.0,0.0,0.0,0.0,0.0,0.0,0.0,0.0,0.0,0.0,0.0,0.0,0.0,0.0,0.0,0.0,0.0,0.0,0.0,0.0,0.0,0.0,0.0,0.0,0.0,0.0,0.0,0.0,0.0,0.0,0.0,0.0,0.0,0.0,0.0,0.0,0.0,0.0,0.0,0.0,0.0,0.0,0.0,0.0,0.0,0.0,0.0,0.0,0.0,0.0,0.0,0.0,0.0,0.0,0.0,0.0,0.0,0.0,0.0,0.0,0.0,0.0,0.0,0.0,0.0,0.0,0.0,0.0,0.0,0.0,0.0,0.0,0.0,0.0,0.0,0.0,0.0,0.0,0.0,0.0,0.0,0.0,0.0,0.0,0.0,0.0,0.0,0.0,0.0,0.0,0.0,0.0,0.0,0.0,0.0,0.0,0.0,0.0,0.0,0.0,0.0,0.0,0.0,0.0,0.0,0.0,0.0,0.0,0.0,0.0,0.0,0.0,0.0,0.0,0.0,0.0,0.0,0.0,0.0,0.0,0.0,0.0,0.0,0.0,0.0,0.0,0.0,0.0,0.0,0.0,0.0,0.0,0.0,0.0,0.0,0.0,0.0,0.0,0.0,0.0,0.0,0.0,0.0,0.0,0.0,0.0,0.0,0.0,0.0,0.0,0.0,0.0,0.0,0.0,0.0,0.0,0.0,0.0,0.0,0.0,0.0,0.0,0.0,0.0,0.0,0.0,0.0,0.0,0.0,0.0,0.0,0.0,0.0,0.0,0.0,0.0,0.0,0.0,0.0,0.0,0.0,0.0,0.0,0.0,0.0,0.0,0.0,0.0,0.0,0.0,0.0,0.0,0.0,0.0,0.0,0.0,0.0,0.0,0.0,0.0,0.0,0.0,0.0,0.0,0.0,0.0,0.0,0.0,0.0,0.0,0.0,0.0,0.0,0.0,0.0,0.0,0.0,0.0,0.0,0.0,0.0,0.0,0.0,0.0,0.0,0.0,0.0,0.0,0.0,0.0,0.0,0.0,0.0,0.0,0.0,0.0,0.0,0.0,0.0,0.0,0.0,0.0,0.0,0.0,0.0,0.0,0.0,0.0,0.0,0.0,0.0,0.0,0.0,0.0,0.0,0.0,0.0,0.0,0.0,0.0,0.0,0.0,0.0,0.0,0.0,0.0,0.0,0.0,0.0,0.0,0.0,0.0,0.0,0.0,0.0,0.0,0.0,0.0,0.0,0.0,0.0,0.0,0.0,0.0,0.0,0.0,0.0,0.0,0.0,0.0,0.0,0.0,0.0,0.0,0.0,0.0,0.0,0.0,0.0,0.0,0.0,0.0,0.0,0.0,0.0,0.0,0.0,0.0,0.0,0.0,0.0,0.0,0.0,0.0,0.0,0.0,0.0,0.0,0.0,0.0,0.0,0.0,0.0,0.0,0.0,0.0,0.0,0.0,0.0,0.0,0.0,0.0,0.0,0.0,0.0,0.0,0.0,0.0,0.0,0.0,0.0,0.0,0.0,0.0,0.0,0.0,0.0,0.0,0.0,0.0,0.0,0.0,0.0,0.0,0.0,0.0,0.0,0.0,0.0,0.0,0.0,0.0,0.0,0.0,0.0,0.0,0.0,0.0,0.0,0.0,0.0,0.0,0.0,0.0,0.0,0.0,0.0,0.0,0.0,0.0,0.0,0.0,0.0,0.0,0.0,0.0,0.0,0.0,0.0,0.0,0.0,0.0,0.0,0.0,0.0,0.0,0.0,0.0,0.0,0.0,0.0,0.0,0.0,0.0,0.0,0.0,0.0,0.0,0.0,0.0,0.0,0.0,0.0,0.0,0.0,0.0,0.0,0.0,0.0,0.0,0.0,0.0,0.0,0.0,0.0,0.0,0.0,0.0,0.0,0.0,0.0,0.0,0.0,0.0,0.0,0.0,0.0,0.0,0.0,0.0,0.0,0.0,0.0,0.0,0.0,0.0,0.0,0.0,0.0,0.0,0.0,0.0,0.0,0.0,0.0,0.0,0.0,0.0,0.0,0.0,0.0,0.0,0.0,0.0,0.0,0.0,0.0,0.0,0.0,0.0,0.0,0.0,0.0,0.0,0.0,0.0,0.0,0.0,0.0,0.0,0.0,0.0,0.0,0.0,0.0,0.0,0.0,0.0,0.0,0.0,0.0,0.0,0.0,0.0,0.0,0.0,0.0,0.0,0.0,0.0,0.0,0.0,0.0,0.0,0.0,0.0,0.0,0.0,0.0,0.0,0.0,0.0,0.0,0.0,0.0,0.0,0.0,0.0,0.0,0.0,0.0,0.0,0.0,0.0,0.0,0.0,0.0,0.0,0.0,0.0,0.0,0.0,0.0,0.0,0.0,0.0,0.0,0.0,0.0,0.0,0.0,0.0,0.0,0.0,0.0,0.0,0.0,0.0,0.0,0.0,0.0,0.0,0.0,0.0,0.0,0.0,0.0,0.0,0.0,0.0,0.0,0.0,0.0,0.0,0.0,0.0,0.0,0.0,0.0,0.0,0.0,0.0,0.0,0.0,0.0,0.0,0.0,0.0,0.0,0.0,0.0,0.0,0.0,0.0,0.0,0.0,0.0,0.0,0.0,0.0,0.0,0.0,0.0,0.0,0.0,0.0,0.0,0.0,0.0,0.0,0.0,0.0,0.0,0.0,0.0,0.0,0.0,0.0,0.0,0.0,0.0,0.0,0.0,0.0,0.0,3.0818,0.0,0.0,0.0,0.0,0.0,0.0,0.0,0.0,0.0,0.0,0.0,0.0,0.0,0.0,0.0,0.0,0.0,0.0,0.0,0.0,0.0,0.0,0.0,0.0,0.0,0.0,0.0,0.0,0.0,0.0,0.0,0.0,0.0,0.0,0.0,0.0,0.0,0.0,0.0,0.0,0.0,0.0,0.0,0.0,0.0,0.0,0.0,0.0,0.0,0.0,0.0,0.0,0.0,0.0,0.0,0.0,0.0,0.0,0.0,0.0,0.0,0.0,0.0,0.0,0.0,0.0,0.0,0.0,0.0,0.0,0.0,0.0,0.0,0.0,0.0,0.0,0.0,0.0,0.0,0.0,0.0,0.0,0.0,0.0,0.0,0.0,0.0,0.0,0.0,0.0,0.0,0.0,0.0,0.0,0.0,0.0,0.0,0.0,0.0,0.0,0.0,0.0,0.0,0.0,0.0,0.0,0.0,0.0,0.0,0.0,0.0,0.0,0.0,0.0,0.0,0.0,3.278,0.0,0.0,0.0,0.0,0.0,0.0,0.0,0.0,0.0,0.0,0.0,0.0,0.0,0.0,0.0,0.0,0.0,0.0,0.0,0.0,0.0,0.0,0.0,0.0,0.0,0.0,0.0,0.0,0.0,0.0,0.0,0.0,0.0,0.0,0.0,0.0,0.0,0.0,0.0,0.0,0.0,0.0,0.0,0.0,0.0,0.0,0.0,0.0,0.0,0.0,0.0,0.0,0.0,0.0,0.0,0.0,0.0,0.0,0.0,0.0,0.0,0.0,0.0,0.0,0.0,0.0,0.0,0.0,0.0,0.0,0.0,0.0,0.0,0.0,0.0,0.0,0.0,0.0,0.0,0.0,0.0,0.0,0.0,0.0,0.0,0.0,0.0,0.0,0.0,0.0,0.0,0.0,0.0,0.0,0.0,0.0,0.0,0.0,0.0,0.0,0.0,0.0,0.0,0.0,0.0,0.0,0.0,0.0,3.9321,4.0254,4.1495,4.2319,4.35,4.4655,4.0112,3.7364,3.5985,0.0,0.0,0.0,0.0,0.0,0.0,0.0,0.0,0.0,0.0,0.0,0.0,0.0,0.0,0.0,0.0,0.0,0.0,0.0,0.0,0.0,0.0,0.0,0.0,0.0,0.0,0.0,0.0,0.0,0.0,0.0,0.0,0.0,0.0,0.0,0.0,0.0,0.0,0.0,3.8466,4.0601,4.1431,4.0852,3.6185,0.0,0.0,0.0,0.0,0.0,0.0,0.0,0.0,0.0,0.0,0.0,0.0,0.0,0.0,0.0,0.0,0.0,0.0,0.0,0.0,0.0,0.0,0.0,0.0,0.0,0.0,0.0,0.0,0.0,0.0,0.0,0.0,0.0,0.0,0.0,0.0,0.0,0.0,0.0,0.0,0.0,0.0,0.0,3.1907,3.1888,0.0,0.0,0.0,0.0,0.0,0.0,0.0,0.0,0.0,0.0,0.0,0.0,0.0,0.0,3.9208,4.1339,4.2151,4.1745,4.5008,4.6725,4.7021,4.8423,4.955,5.0382,4.9004,0.0,4.1917,4.0019,0.0,0.0,0.0,0.0,0.0,0.0,0.0,0.0,0.0,0.0,0.0,0.0,0.0,0.0,0.0,0.0,0.0,0.0,0.0,0.0,0.0,0.0,0.0,0.0,0.0,0.0,0.0,0.0,0.0,0.0,0.0,0.0,0.0,0.0,0.0,0.0,3.735,4.1032,4.3725,4.5222,4.6134,4.6426,4.3687,4.1032,3.8607,3.6968,0.0,0.0,0.0,0.0,0.0,0.0,0.0,0.0,0.0,0.0,0.0,0.0,0.0,0.0,0.0,0.0,0.0,0.0,0.0,0.0,0.0,0.0,0.0,0.0,0.0,0.0,0.0,0.0,0.0,0.0,0.0,0.0,0.0,0.0,0.0,0.0,0.0,0.0,0.0,3.2656,3.3355,3.2949,3.366,3.3829,0.0,0.0,0.0,0.0,0.0,0.0,0.0,0.0,0.0,4.1802,4.2516,4.387,4.588,4.6792,4.7706,4.8732,5.0365,5.1616,5.2498,5.406,5.4943,5.523,5.5292,5.3334,4.9815,4.5054,4.1886,3.9968,0.0,0.0,0.0,0.0,3.8242,3.8631,0.0,0.0,0.0,0.0,0.0,0.0,0.0,0.0,0.0,0.0,0.0,0.0,0.0,0.0,0.0,2.863,0.0,0.0,0.0,0.0,0.0,0.0,0.0,0.0,0.0,0.0,0.0,0.0,4.2196,4.5734,4.9003,4.9994,5.0912,5.1646,5.0839,4.7408,4.2181,4.0092,3.8797,0.0,0.0,0.0,0.0,0.0,0.0,0.0,0.0,0.0,0.0,0.0,0.0,0.0,0.0,0.0,0.0,0.0,0.0,0.0,0.0,0.0,0.0,0.0,0.0,0.0,0.0,0.0,0.0,0.0,0.0,0.0,0.0,0.0,0.0,0.0,0.0,0.0,0.0,3.4032,3.481,3.4066,3.5453,3.5825,0.0,0.0,0.0,0.0,0.0,0.0,4.0595,4.2294,4.4543,4.7422,4.8411,5.0015,5.2406,5.2514,5.35,5.5185,5.5562,5.6402,5.7759,5.9059,5.9808,5.9989,6.0335,5.9208,5.663,5.02,4.6123,4.3935,4.3202,4.2548,4.2037,4.2166,4.2544,4.3114,0.0,0.0,0.0,0.0,0.0,0.0,0.0,0.0,0.0,0.0,0.0,0.0,0.0,0.0,3.1769,3.383,3.3631,3.3543,0.0,0.0,0.0,0.0,0.0,0.0,0.0,0.0,0.0,4.2595,4.7782,5.161,5.4069,5.5647,5.6822,5.7519,5.6748,5.3702,4.8891,4.5663,4.409,4.3353,0.0,0.0,0.0,0.0,0.0,0.0,0.0,0.0,0.0,0.0,0.0,0.0,0.0,0.0,0.0,0.0,0.0,0.0,0.0,0.0,0.0,0.0,0.0,0.0,0.0,0.0,0.0,0.0,0.0,0.0,0.0,0.0,0.0,0.0,0.0,0.0,0.0,0.0,0.0,3.5588,3.7483,0.0,0.0,0.0,0.0,3.9749,4.2489,4.4485,4.5331,4.7507,4.9806,5.2196,5.3682,5.5557,5.789,5.8685,5.9053,5.9218,6.066,6.1732,6.2562,6.345,6.4222,6.4882,6.4163,6.2879,6.0848,5.5352,5.1674,4.945,4.8876,4.8651,4.8615,4.8603,4.8674,4.871,0.0,0.0,0.0,0.0,0.0,0.0,0.0,0.0,0.0,0.0,0.0,0.0,0.0,3.3288,3.6887,3.8599,4.0193,4.0193,3.8019,0.0,0.0,0.0,0.0,0.0,0.0,0.0,4.3139,4.7965,5.1972,5.5133,5.7519,5.9134,6.0052,6.0309,6.0566,5.9428,5.6969,5.1646,4.8375,4.6503,4.2993,4.0161,0.0,0.0,0.0,0.0,0.0,0.0,0.0,0.0,0.0,0.0,0.0,0.0,0.0,0.0,0.0,0.0,0.0,0.0,0.0,0.0,0.0,0.0,0.0,0.0,0.0,0.0,0.0,0.0,0.0,0.0,0.0,0.0,0.0,0.0,0.0,0.0,0.0,3.9884,4.2354,0.0,4.1542,4.2117,4.3333,4.5044,4.7099,4.943,5.2201,5.4578,5.6865,5.9152,6.0262,6.1472,6.2803,6.3083,6.3171,6.3276,6.3782,6.4164,6.451,6.527,6.5521,6.5301,6.5558,6.4714,6.3062,6.1153,5.7653,5.3514,5.2789,5.219,5.1746,5.186,5.2174,5.2592,0.0,0.0,0.0,0.0,0.0,0.0,0.0,0.0,0.0,0.0,0.0,2.8619,3.163,3.732,4.165,4.3535,4.4747,4.4214,4.1411,0.0,0.0,0.0,0.0,0.0,0.0,4.3723,4.7829,5.2417,5.5904,5.8584,6.0456,6.1814,6.2732,6.3282,6.3833,6.3906,6.3356,5.8804,5.4509,5.0435,4.6654,4.4126,4.2304,0.0,0.0,0.0,0.0,0.0,0.0,0.0,0.0,0.0,0.0,0.0,0.0,0.0,0.0,0.0,0.0,0.0,0.0,0.0,0.0,0.0,0.0,0.0,0.0,0.0,0.0,0.0,0.0,0.0,0.0,0.0,0.0,0.0,0.0,0.0,4.3098,4.4079,4.7077,4.8538,4.7033,4.8092,4.959,5.14,5.3212,5.5552,5.8579,6.0509,6.2328,6.4007,6.5166,6.5881,6.6109,6.6335,6.6335,6.6109,6.6402,6.6512,6.6549,6.7357,6.743,6.6953,6.7467,6.6953,6.5705,6.5411,6.2915,5.9098,5.7483,5.6492,5.6006,5.5822,5.6079,5.6503,0.0,0.0,0.0,0.0,0.0,0.0,0.0,0.0,0.0,0.0,2.6725,3.0784,3.5294,4.1078,4.581,4.8679,4.6791,4.5035,4.4183,3.8366,0.0,0.0,0.0,0.0,4.1978,4.8663,5.3298,5.5794,5.9758,6.2144,6.2952,6.3833,6.5081,6.6623,6.6623,6.71,6.7797,6.699,6.2511,5.5574,5.0618,4.9003,4.904,0.0,0.0,0.0,0.0,0.0,0.0,0.0,0.0,0.0,0.0,0.0,0.0,0.0,0.0,0.0,0.0,0.0,0.0,0.0,0.0,0.0,0.0,0.0,0.0,0.0,0.0,0.0,0.0,0.0,0.0,0.0,0.0,0.0,4.0341,4.3593,4.654,4.8064,5.1666,5.3415,5.1882,5.5207,5.779,5.8574,6.0725,6.2657,6.4223,6.5011,6.5822,6.6595,6.8199,6.8641,6.7797,6.8605,6.8568,6.776,6.8568,6.8935,6.8972,6.9743,7.011,7.011,7.011,6.9669,6.8898,6.8091,6.732,6.6292,6.2989,6.1704,6.1594,6.0786,6.0493,6.0456,0.0,0.0,0.0,0.0,0.0,0.0,0.0,0.0,0.0,0.0,2.8418,3.3298,3.8347,4.3237,4.7746,5.1741,4.8342,4.606,4.6243,0.0,0.0,0.0,0.0,0.0,4.9948,5.3036,5.6345,5.9942,6.2842,6.4677,6.5521,6.6916,6.8128,6.9119,6.9743,7.044,7.1138,7.033,6.8164,6.4677,5.7997,5.3702,5.0912,0.0,0.0,0.0,0.0,0.0,0.0,0.0,0.0,0.0,0.0,0.0,0.0,0.0,0.0,0.0,0.0,0.0,0.0,0.0,0.0,0.0,0.0,0.0,0.0,0.0,0.0,0.0,0.0,0.0,0.0,0.0,0.0,4.642,4.5857,4.9094,5.2775,5.5988,5.8825,6.0291,5.9866,6.0793,6.1974,6.3329,6.4518,6.6198,6.8335,6.9222,7.001,7.0814,7.1244,7.1138,7.033,7.055,7.0257,6.9449,6.9669,6.9779,6.9779,7.0,7.011,7.011,7.011,6.9963,6.9743,6.9522,6.9302,6.8788,6.5558,6.3943,6.3392,6.3172,6.2291,6.1337,0.0,0.0,0.0,0.0,0.0,0.0,0.0,0.0,0.0,0.0,2.9499,3.4601,3.9504,4.4062,4.817,5.1455,4.8064,4.5551,4.5114,0.0,0.0,0.0,0.0,5.0435,5.462,5.7299,6.0126,6.3135,6.5264,6.688,6.8054,6.9302,7.0513,7.1615,7.2092,7.2753,7.3487,7.301,7.2092,7.0477,6.5558,6.097,5.6675,5.3041,5.1096,4.9921,4.7315,4.6801,4.6911,4.3681,0.0,0.0,0.0,0.0,0.0,0.0,0.0,0.0,0.0,0.0,0.0,0.0,0.0,0.0,0.0,0.0,0.0,0.0,0.0,0.0,0.0,0.0,0.0,0.0,5.0539,5.3631,5.546,5.6558,5.8482,6.2027,6.451,6.5949,6.5949,6.687,6.7813,6.8735,6.9536,7.0624,7.2055,7.2569,7.2863,7.301,7.334,7.2973,7.1835,7.1798,7.1578,7.1101,7.1101,7.1284,7.1615,7.1945,7.2129,0.0,7.2129,7.1908,7.1578,7.1248,7.0917,0.0,0.0,0.0,0.0,0.0,6.398,6.3209,0.0,0.0,0.0,0.0,0.0,0.0,0.0,0.0,0.0,0.0,0.0,3.4942,3.9295,4.3631,4.7081,4.9235,4.644,4.3935,0.0,0.0,0.0,4.6397,5.0398,5.4142,5.7556,6.13,6.4053,6.5705,6.7393,6.8972,7.0403,7.1284,7.2532,7.3964,7.3964,7.4404,7.5175,7.5175,7.4698,7.3854,7.2422,6.8972,6.42,6.0199,5.8621,5.8033,5.4069,5.183,5.0215,4.6801,0.0,0.0,0.0,0.0,0.0,0.0,0.0,0.0,0.0,0.0,0.0,0.0,0.0,0.0,0.0,0.0,0.0,0.0,0.0,0.0,0.0,0.0,0.0,0.0,5.6668,6.1204,6.6536,6.5026,6.4331,6.6946,6.9273,7.0625,7.0527,7.2546,7.3817,7.3817,7.4515,7.4955,7.5028,0.0,0.0,0.0,0.0,7.4258,7.2936,7.2826,7.2789,7.2789,7.2789,7.3156,7.3854,7.4588,7.4918,7.4918,7.4918,7.4441,7.3634,7.2936,7.2165,7.1284,6.9486,6.8274,6.7393,6.5962,6.5375,6.5301,0.0,0.0,0.0,0.0,0.0,0.0,0.0,0.0,0.0,2.5304,2.9668,3.4157,3.8447,4.0943,4.3972,4.817,4.4232,4.174,0.0,0.0,4.5883,5.0618,5.4069,5.7997,6.2585,6.4714,6.6586,6.8201,7.0477,7.1725,7.2055,7.3523,7.4735,7.5652,7.5652,7.6093,7.6864,7.6864,7.6387,7.5616,7.5285,7.2275,6.7614,6.42,6.2475,6.1447,5.8033,5.7483,5.7593,5.3078,5.1903,5.1536,4.7278,0.0,0.0,0.0,0.0,0.0,0.0,0.0,0.0,0.0,0.0,0.0,0.0,0.0,0.0,0.0,0.0,0.0,0.0,0.0,0.0,5.829,6.2453,6.6701,7.1651,7.2358,7.2363,7.2267,7.3264,7.4006,7.3946,7.4359,7.4661,7.4661,7.4808,7.5175,7.5836,7.5249,0.0,7.657,7.5506,7.5065,7.5395,7.4771,7.4441,7.4441,0.0,0.0,7.4698,7.4845,7.4918,7.4918,7.4918,7.4441,7.367,7.3523,7.2973,7.1982,6.9082,6.743,6.6696,6.6366,6.5852,6.5411,0.0,0.0,0.0,0.0,0.0,0.0,0.0,0.0,0.0,0.0,2.8315,3.1888,3.5046,3.6861,3.9118,4.2341,4.0419,0.0,0.0,4.4929,4.9224,5.5354,5.8731,6.2365,6.6402,6.7687,6.8898,7.011,7.1725,7.2899,7.3744,7.4955,7.5946,7.6717,7.6717,7.6937,7.7304,7.7304,7.7084,7.6717,7.6717,7.5285,7.2826,6.9963,6.7871,6.6182,6.42,6.2658,6.1043,5.7446,5.5684,5.4363,5.0692,4.871,4.7352,0.0,0.0,0.0,0.0,0.0,0.0,0.0,0.0,0.0,0.0,0.0,0.0,0.0,0.0,4.7989,0.0,0.0,5.931,6.4566,6.8074,7.1211,7.4441,7.5616,7.5799,7.4992,7.5616,7.5946,7.5542,7.5873,7.613,7.613,7.613,7.6276,7.668,7.635,7.6497,7.7304,7.6533,7.6313,7.6717,7.5909,7.5726,7.613,7.5689,7.5726,7.613,7.613,7.613,7.613,7.613,7.5652,7.4882,7.4478,7.3817,7.2936,7.1321,6.9963,6.8862,6.8458,6.8054,6.7687,0.0,0.0,0.0,0.0,0.0,0.0,0.0,0.0,0.0,0.0,2.6792,2.9245,3.101,3.2676,3.4283,0.0,0.0,0.0,0.0,4.7021,5.2527,5.9832,6.2989,6.6072,6.9302,7.0146,7.0954,7.1798,7.2753,7.3854,7.5175,7.5983,7.668,7.7304,7.7304,7.7304,7.7304,7.7304,7.7304,7.7304,7.7304,7.7304,7.7084,7.4955,7.2863,7.0881,6.9596,6.6512,6.2732,6.0456,5.807,5.5684,5.3592,5.238,5.1206,4.8416,4.7388,0.0,0.0,0.0,0.0,0.0,0.0,0.0,0.0,0.0,4.6911,4.882,5.1573,5.4803,5.8694,6.2071,6.5668,7.0073,7.2679,7.4661,7.613,7.69,7.7084,7.6423,7.6937,7.7047,7.6387,7.6937,7.7304,7.7304,7.7304,7.7304,7.7304,7.7304,7.7304,7.7304,7.7488,7.7488,7.7304,7.6827,7.6827,7.7304,7.6644,7.668,7.7304,7.7304,7.7304,7.7304,7.7157,7.6717,7.6056,7.5249,7.4515,7.3927,7.3744,7.301,7.1872,7.077,7.022,7.0,0.0,0.0,0.0,0.0,0.0,0.0,0.0,0.0,0.0,0.0,0.0,0.0,0.0,0.0,0.0,0.0,0.0,0.0,4.625,5.0398,5.5904,6.3209,6.5264,6.7724,7.0991,7.1835,7.2642,7.3413,7.4955,7.5799,7.5983,7.679,7.7231,7.7304,7.7304,7.7304,7.7304,7.7304,7.7304,7.7304,7.7304,7.7304,7.7194,7.6203,7.5212,7.4001,7.1027,6.7393,6.3686,6.1924,5.9722,5.7556,5.6565,5.5721,5.4289,5.0435,0.0,4.6581,4.4048,4.3424,4.3975,4.5957,4.6507,4.7535,0.0,0.0,5.3115,5.6161,5.8217,6.0493,6.387,6.71,7.0146,7.2863,7.4735,7.613,7.7047,7.7268,7.7304,7.7194,7.7268,7.7268,7.7194,7.7268,7.7304,7.7304,7.7304,7.7304,7.7304,7.7304,7.7304,7.7304,7.8075,7.8075,7.7341,7.8002,7.8002,7.7304,7.7231,7.7231,7.7304,7.7304,7.7304,7.7268,7.6533,7.6166,7.6056,7.5249,7.4845,7.4698,7.3964,7.4037,7.4258,7.2018,7.0734,7.0073,0.0,0.0,0.0,0.0,0.0,0.0,0.0,0.0,0.0,0.0,0.0,0.0,0.0,0.0,0.0,0.0,0.0,0.0,4.4345,5.046,5.6969,6.3796,6.6549,6.8972,7.1248,7.2569,7.334,7.3707,7.5322,7.6093,7.613,7.6937,7.7304,7.7304,7.7304,7.7304,7.7341,7.7855,7.7781,7.7378,7.7855,7.7781,7.7194,7.5909,7.4037,7.1762,6.8972,6.5705,0.0,0.0,5.851,5.7336,5.7446,5.6308,5.4289,5.1206,4.9481,0.0,4.614,4.5957,4.6654,0.0,5.0325,5.2858,5.5978,5.7409,5.8877,6.1667,6.3906,6.6219,6.8972,7.1358,7.3523,0.0,7.6387,7.6937,7.7268,7.69,7.6276,7.5322,7.5616,7.6276,7.7231,7.7304,7.7304,7.7304,7.7304,7.7304,7.7304,7.7781,7.8075,7.8075,7.8846,7.9103,7.8772,7.9103,7.9103,7.8736,7.8295,7.8075,7.8038,7.7561,7.7304,7.7304,7.6937,7.6827,7.679,7.646,7.6313,7.6276,7.5946,7.5726,7.5322,7.2899,7.2092,7.2055,0.0,0.0,0.0,0.0,0.0,0.0,0.0,0.0,0.0,0.0,0.0,0.0,0.0,0.0,0.0,0.0,0.0,0.0,0.0,4.9614,5.6712,6.3429,6.6843,6.9449,7.1284,7.3083,7.4037,7.4037,7.5652,7.6423,7.646,7.7047,7.7304,7.7304,7.7304,7.7304,7.7378,7.7965,7.7892,7.7378,7.8002,7.7451,7.613,7.4294,7.1284,6.7871,6.6109,6.2952,0.0,0.0,5.5647,5.4987,5.6014,5.5133,5.3298,5.1096,4.9554,4.8453,4.7939,4.8526,0.0,5.1756,5.495,5.8327,6.1227,6.2952,6.4714,6.7393,6.9339,7.1211,7.3413,7.4808,7.5946,7.7121,7.7304,7.7304,7.7304,7.6423,7.5249,7.3854,7.3817,7.4551,7.6166,7.6717,7.7157,7.7635,7.7671,7.7781,7.8002,7.8809,7.9176,7.8919,8.0131,8.0571,8.0131,8.0571,8.0681,8.0424,7.9653,7.914,7.8883,7.7818,7.7304,7.7304,7.7304,7.7304,7.7304,7.7304,7.7304,7.7304,7.7084,7.6754,7.6166,7.3964,7.3523,7.3817,0.0,0.0,0.0,0.0,0.0,0.0,0.0,0.0,0.0,0.0,0.0,0.0,0.0,0.0,0.0,0.0,0.0,0.0,0.0,4.8224,5.528,6.2548,6.5962,6.8862,7.1248,7.3634,7.4882,7.4882,7.6497,7.7268,7.7268,7.7304,7.7304,7.7304,7.7304,7.7304,7.7304,7.7341,7.7341,7.7304,7.7341,7.5946,7.356,7.1138,6.7247,6.3025,6.2952,0.0,0.0,0.0,5.1132,5.0068,5.1683,5.2123,0.0,5.0105,4.7902,4.6507,4.8857,0.0,5.3004,5.774,6.0786,6.3649,6.7687,6.9265,7.0734,7.3964,7.4698,7.5249,7.6864,7.7194,7.7268,7.7304,7.7304,7.7304,7.7304,7.5946,7.4625,7.378,7.2349,7.2055,0.0,7.5212,7.6827,7.8442,7.8552,7.8883,7.9653,8.0498,8.0571,7.9764,8.2076,8.2553,8.0975,8.2517,8.292,8.2113,8.1305,8.0534,7.969,7.8075,7.7304,7.7304,7.7304,7.7304,7.7304,7.7304,7.7304,7.7231,7.646,7.6607,7.7084,7.5432,7.4845,7.4771,0.0,0.0,0.0,0.0,0.0,0.0,0.0,0.0,0.0,0.0,0.0,0.0,0.0,0.0,0.0,0.0,0.0,0.0,0.0,4.4592,5.0817,5.6235,6.108,6.4787,6.7283,6.9706,7.1725,7.3303,7.4368,7.5175,7.5726,7.6276,7.6497,7.6533,7.7084,7.7304,7.7378,7.7928,7.8772,7.947,7.624,7.5395,7.5322,6.8017,6.3246,5.9942,0.0,0.0,0.0,0.0,0.0,0.0,4.9811,4.9627,4.8563,4.7462,4.8086,4.9664,5.2123,0.0,5.9281,6.3099,6.6256,6.9229,7.2202,7.3523,7.4404,7.5469,7.4441,7.3303,7.334,7.2899,7.2863,7.3964,7.5028,7.6093,7.7157,7.6387,7.4808,7.2386,7.2569,0.0,0.0,0.0,0.0,7.8369,7.9066,7.9727,8.0534,8.1893,8.248,8.2186,8.3508,8.3948,8.3398,8.3948,8.4058,8.3765,8.2443,8.1379,8.0534,7.8919,7.8185,7.8148,7.7561,7.7304,7.7304,7.7304,7.7304,7.7304,7.7011,7.7084,7.7268,7.6717,7.6497,7.6313,0.0,0.0,0.0,0.0,0.0,0.0,0.0,0.0,0.0,0.0,0.0,0.0,0.0,0.0,0.0,0.0,0.0,0.0,0.0,0.0,4.5326,5.02,5.4576,5.8143,6.0933,6.3062,6.5044,6.688,6.8862,7.022,7.1064,7.2459,7.3266,7.356,7.4074,7.4625,7.5175,7.5469,7.5652,7.5542,7.2092,7.0403,6.9229,6.2401,5.7923,0.0,0.0,0.0,0.0,0.0,0.0,0.0,4.7388,4.7682,4.7609,4.7976,5.0398,5.3665,5.6969,6.097,6.4971,6.8238,7.1064,7.3523,7.5359,7.5946,7.5873,7.4992,7.312,7.1211,6.9853,6.8678,6.8568,7.0477,7.1651,7.3193,7.5689,7.5322,7.4147,7.2386,7.2569,7.2679,0.0,0.0,0.0,7.8332,7.9617,8.0571,8.1379,8.3251,8.4132,8.3838,8.4903,8.5306,8.5013,8.5306,8.5306,8.5013,8.3398,8.2223,8.1379,7.9764,7.8883,7.8552,7.8002,7.7598,7.7304,7.7304,7.7304,7.7304,7.7304,7.7304,7.7304,7.7304,7.7304,7.7121,0.0,0.0,0.0,0.0,0.0,0.0,0.0,0.0,0.0,0.0,0.0,0.0,0.0,0.0,0.0,0.0,0.0,0.0,0.0,0.0,0.0,4.4667,4.6907,4.9517,5.2784,5.4436,5.5721,5.6638,6.0493,6.2842,6.3759,6.6109,6.7614,6.8421,6.8458,6.9339,7.0697,6.9926,6.8348,6.6292,6.5228,6.1667,5.6785,5.484,0.0,0.0,0.0,0.0,0.0,0.0,0.0,0.0,4.4709,4.6617,4.904,5.1573,5.4656,5.829,6.3135,6.6843,7.0073,7.323,7.5139,7.6423,7.7157,7.6607,7.5249,7.2826,7.0881,6.8862,0.0,0.0,6.4677,6.7173,6.776,6.9339,7.3377,7.3303,7.3083,0.0,0.0,0.0,0.0,0.0,0.0,7.8589,0.0,8.1489,8.2406,8.4646,8.56,8.4866,8.6334,8.6775,8.5967,8.6701,8.6664,8.582,8.4242,8.3067,8.226,8.0608,7.9433,7.8736,7.8662,7.8185,7.7451,7.7414,7.7378,7.7378,7.7341,7.7304,7.7304,7.7304,7.7304,7.7194,0.0,0.0,0.0,0.0,0.0,0.0,0.0,0.0,0.0,0.0,0.0,0.0,0.0,0.0,0.0,0.0,0.0,0.0,0.0,0.0,0.0,0.0,0.0,0.0,0.0,0.0,0.0,5.4142,5.5757,5.7262,5.8694,5.9905,6.0896,6.1704,6.2291,6.2805,6.3172,6.2952,6.3576,6.431,0.0,5.8621,5.8767,0.0,0.0,0.0,0.0,0.0,0.0,0.0,0.0,0.0,0.0,4.9994,5.2564,5.5574,5.9648,6.4053,6.8311,7.2275,7.5689,7.7708,7.8075,7.7855,7.7414,7.5285,7.2716,7.033,6.6109,6.2328,0.0,0.0,0.0,6.5338,6.8935,0.0,7.679,7.7157,0.0,7.646,0.0,7.69,7.7304,7.8442,0.0,0.0,8.2003,8.303,8.5637,8.6921,8.7766,8.8169,8.8573,8.872,8.85,8.8096,8.7509,8.6664,8.5049,8.4205,8.3911,8.1709,8.0571,8.0351,7.9727,7.936,7.9103,7.8516,7.8259,7.8222,7.7561,7.7304,7.7304,7.7304,7.7304,7.7304,0.0,0.0,0.0,0.0,0.0,0.0,0.0,0.0,0.0,0.0,0.0,0.0,0.0,0.0,0.0,0.0,0.0,0.0,0.0,0.0,0.0,0.0,0.0,0.0,0.0,0.0,0.0,0.0,0.0,0.0,5.0986,5.2858,5.4399,5.5537,5.6014,5.6785,5.774,5.7409,0.0,0.0,0.0,0.0,0.0,0.0,0.0,0.0,0.0,0.0,0.0,0.0,0.0,5.0729,5.227,5.4913,5.8143,6.1741,0.0,6.9779,7.3523,7.6937,7.958,8.0167,7.9727,7.8442,7.5799,7.3266,7.0146,6.5595,6.1557,0.0,5.5794,0.0,0.0,0.0,0.0,0.0,7.6203,7.7598,7.8259,0.0,7.9984,0.0,8.0718,8.1856,8.3251,0.0,8.4242,8.4719,8.6885,8.8096,8.894,8.9417,8.9417,8.9417,8.9417,8.861,8.7986,8.7509,8.5894,8.5123,8.5049,8.2994,8.2076,8.2003,0.0,8.0314,8.0241,7.947,7.914,7.9066,7.8589,7.8405,7.8405,7.8405,7.8185,7.7892,0.0,0.0,0.0,0.0,0.0,0.0,0.0,0.0,0.0,0.0,0.0,0.0,0.0,0.0,0.0,0.0,0.0,0.0,0.0,0.0,0.0,0.0,0.0,0.0,0.0,0.0,0.0,0.0,0.0,0.0,0.0,0.0,0.0,0.0,0.0,0.0,0.0,0.0,0.0,0.0,0.0,0.0,0.0,0.0,0.0,0.0,0.0,0.0,0.0,0.0,5.2968,5.4473,5.7226,6.0786,6.4751,6.8825,7.2239,7.5359,7.8552,8.1085,8.2627,8.1709,8.0608,7.8516,7.3634,7.0734,6.7173,6.0309,0.0,5.517,5.2344,5.2674,5.5023,6.0089,0.0,6.7393,7.4551,7.6864,7.8736,8.1195,8.281,8.3801,8.4022,8.4756,8.5857,8.7362,8.6811,8.6738,8.7435,8.883,8.9638,8.9748,8.9748,8.9674,8.9564,8.8867,8.8426,8.8169,8.6664,8.5894,8.5747,8.4242,8.3581,8.3508,0.0,0.0,8.1415,8.0608,8.0204,8.0094,7.9984,7.9874,7.98,7.98,7.936,7.8736,0.0,0.0,0.0,0.0,0.0,0.0,0.0,0.0,0.0,0.0,2.2327,2.2327,0.0,0.0,0.0,0.0,0.0,0.0,0.0,0.0,0.0,0.0,0.0,0.0,0.0,0.0,0.0,0.0,0.0,0.0,0.0,0.0,0.0,0.0,0.0,0.0,0.0,0.0,0.0,0.0,0.0,0.0,0.0,0.0,0.0,0.0,0.0,0.0,0.0,0.0,5.5317,5.8951,6.3429,6.7136,7.0624,7.4661,7.7708,8.0277,8.2847,8.4829,8.582,8.4352,8.1856,7.8516,7.3634,6.8128,0.0,0.0,5.4363,5.1683,5.1096,5.2747,5.6235,6.2438,0.0,0.0,0.0,0.0,8.1269,0.0,0.0,0.0,0.0,0.0,0.0,0.0,0.0,8.9821,8.9968,9.0262,9.0702,9.1363,9.1363,9.1069,9.0408,9.0262,8.9528,8.8206,8.7252,8.6444,8.5747,8.4829,8.4389,8.4389,8.4095,0.0,8.3911,8.3104,8.237,8.1709,8.1048,8.0388,7.98,7.98,7.969,7.9507,0.0,0.0,0.0,0.0,0.0,0.0,0.0,2.2327,2.2327,2.2327,2.2327,2.2327,2.2327,2.2327,2.2327,0.0,0.0,0.0,0.0,0.0,0.0,0.0,0.0,0.0,0.0,0.0,0.0,0.0,0.0,0.0,0.0,0.0,0.0,0.0,0.0,0.0,0.0,0.0,0.0,0.0,0.0,0.0,0.0,0.0,0.0,0.0,0.0,0.0,0.0,0.0,5.5537,6.0272,6.6439,7.0881,7.4515,7.8185,8.0681,8.2774,8.5196,8.7031,8.7766,8.5747,8.2186,7.7451,7.0881,0.0,0.0,0.0,5.1499,5.0031,4.9591,5.183,0.0,0.0,0.0,0.0,0.0,0.0,0.0,0.0,0.0,0.0,0.0,0.0,0.0,0.0,0.0,9.1216,9.1216,9.1216,9.14,9.1803,9.1803,9.162,9.1216,9.0812,9.0225,8.9454,8.8647,8.8059,8.7655,8.6848,8.6481,8.6444,8.56,0.0,8.5159,8.4352,8.3801,8.3398,8.303,8.237,8.1672,8.1672,8.1122,8.0314,0.0,0.0,0.0,0.0,0.0,0.0,0.0,2.2327,2.2327,2.2327,2.2327,2.2327,2.2327,2.2327,2.2327,0.0,0.0,0.0,0.0,0.0,0.0,0.0,0.0,0.0,0.0,0.0,0.0,0.0,0.0,0.0,0.0,0.0,0.0,0.0,0.0,0.0,0.0,0.0,0.0,0.0,0.0,0.0,0.0,0.0,0.0,0.0,0.0,0.0,0.0,0.0,5.4326,5.9098,6.5668,7.1615,7.6607,7.9213,8.1966,8.4646,8.6701,8.8573,8.9271,8.6481,8.2039,7.624,6.8311,6.2328,0.0,0.0,4.9554,4.915,4.8673,0.0,5.4106,0.0,6.0272,6.4861,0.0,0.0,0.0,0.0,0.0,0.0,0.0,0.0,0.0,0.0,0.0,0.0,9.1803,9.1803,9.1803,9.1803,9.1803,9.1803,9.1803,9.1179,9.0776,9.0592,8.9968,8.9601,8.9381,8.8757,8.8463,8.839,8.7105,0.0,0.0,8.571,8.527,8.5123,8.4903,8.4389,8.3654,8.3471,8.2627,8.1379,0.0,0.0,0.0,0.0,0.0,0.0,0.0,2.2327,2.2327,2.2327,2.2327,2.2327,2.2327,2.2327,2.2327,0.0,0.0,0.0,0.0,0.0,0.0,0.0,0.0,0.0,0.0,0.0,0.0,0.0,0.0,0.0,0.0,0.0,0.0,0.0,0.0,0.0,0.0,0.0,0.0,0.0,0.0,0.0,0.0,0.0,0.0,0.0,0.0,0.0,0.0,0.0,0.0,5.4509,5.8841,6.754,7.6166,7.646,0.0,0.0,8.7839,8.9784,9.0629,8.6775,8.1599,7.5506,6.8164,0.0,5.4913,5.1426,4.9481,4.8636,4.9334,0.0,0.0,0.0,0.0,6.5301,0.0,0.0,0.0,0.0,0.0,0.0,0.0,0.0,0.0,0.0,0.0,0.0,9.1803,9.1803,9.1803,9.1803,9.1803,9.1803,9.1803,9.173,9.1326,9.0592,9.0555,9.0115,8.9417,8.9344,8.9307,8.9307,8.916,0.0,0.0,8.8206,8.7435,8.6738,8.5967,8.5196,8.4389,8.3691,8.3324,8.2957,0.0,0.0,0.0,0.0,0.0,0.0,2.2327,2.2327,2.2327,2.2327,2.2327,2.2327,2.2327,2.2327,2.2327,2.2327,0.0,0.0,0.0,0.0,0.0,0.0,0.0,0.0,0.0,0.0,0.0,0.0,0.0,0.0,0.0,0.0,0.0,0.0,0.0,0.0,0.0,0.0,0.0,0.0,0.0,0.0,0.0,0.0,0.0,0.0,0.0,0.0,0.0,0.0,0.0,0.0,5.2123,5.8767,0.0,0.0,7.7745,8.2737,8.6481,8.9601,9.0812,8.6775,8.0791,7.4111,6.732,0.0,5.3371,5.0618,4.9554,4.9187,4.9517,5.0912,5.2931,0.0,5.7116,0.0,6.6953,7.055,7.5102,0.0,0.0,0.0,0.0,0.0,0.0,0.0,0.0,0.0,9.184,9.1803,9.1803,9.1803,9.1803,9.1803,9.1803,9.1803,9.1657,9.1326,9.1326,9.1143,9.0849,9.0849,9.0592,9.0115,9.0115,0.0,0.0,8.8316,8.7729,8.6995,8.6664,8.604,8.527,8.4976,8.4535,8.3985,0.0,0.0,0.0,0.0,0.0,2.2327,2.2327,2.2327,2.2327,2.2327,2.2327,2.2327,2.2327,2.2327,2.2327,2.2327,2.2327,0.0,0.0,0.0,0.0,0.0,0.0,0.0,0.0,0.0,0.0,0.0,0.0,0.0,0.0,0.0,0.0,0.0,0.0,0.0,0.0,0.0,0.0,0.0,0.0,0.0,0.0,0.0,0.0,0.0,0.0,0.0,0.0,0.0,0.0,0.0,0.0,0.0,0.0,0.0,7.3156,7.8956,8.3875,8.7912,8.9858,8.6334,7.9764,7.2642,6.6659,5.9024,5.2601,5.0398,4.9738,4.9591,4.9591,5.0692,5.2234,5.4106,5.4803,5.7299,6.3576,6.6733,7.1174,0.0,0.0,0.0,0.0,0.0,0.0,0.0,0.0,0.0,0.0,9.3065,9.2811,9.1803,9.1803,9.1803,9.1803,9.1803,9.1803,9.1803,9.1803,9.1803,9.1803,9.1803,9.1473,9.0959,0.0,0.0,0.0,8.8647,8.8096,8.7325,8.7105,8.6664,8.6114,8.5894,8.5416,8.4829,0.0,0.0,0.0,0.0,0.0,0.0,2.2327,2.2327,2.2327,2.2327,2.2327,2.2327,2.2327,2.2327,2.2327,2.2327,2.2327,0.0,0.0,0.0,0.0,0.0,0.0,0.0,0.0,0.0,3.0395,3.2068,3.4418,0.0,0.0,0.0,0.0,0.0,0.0,0.0,0.0,0.0,0.0,0.0,0.0,0.0,4.3497,0.0,0.0,0.0,0.0,0.0,0.0,0.0,0.0,0.0,0.0,0.0,0.0,0.0,6.7944,7.6864,8.0167,8.4572,8.7655,8.5233,7.8516,7.1248,6.6402,5.9024,5.2747,5.1132,5.0141,4.9591,4.9591,5.0251,5.161,5.3995,5.5757,5.8767,6.4494,6.8054,0.0,0.0,0.0,0.0,0.0,0.0,0.0,0.0,0.0,0.0,0.0,9.6111,9.5119,9.1913,9.1803,9.1803,9.1803,9.1803,9.1803,9.1803,9.1803,9.1803,9.1803,9.1803,9.1803,0.0,0.0,0.0,0.0,8.9748,8.894,8.8096,8.7325,8.6995,8.6885,8.6077,8.5783,8.5673,0.0,0.0,0.0,0.0,0.0,0.0,0.0,2.2327,2.2327,2.2327,2.2327,2.2327,2.2327,2.2327,2.2327,2.2327,2.2327,0.0,0.0,0.0,0.0,0.0,0.0,0.0,0.0,0.0,3.0302,3.1678,3.3754,3.5581,3.711,3.7624,0.0,0.0,0.0,0.0,0.0,0.0,0.0,0.0,0.0,4.2433,4.2727,0.0,0.0,0.0,0.0,0.0,0.0,0.0,0.0,0.0,0.0,0.0,0.0,5.2601,6.0089,0.0,7.1688,7.5432,7.7561,7.4625,7.0293,6.5778,6.1998,5.7042,5.2894,5.183,5.1426,5.1242,5.1242,5.1903,5.3408,5.6381,5.7299,5.9024,6.3025,0.0,0.0,0.0,0.0,0.0,0.0,0.0,0.0,0.0,0.0,0.0,0.0,9.646,9.5856,9.4234,9.3705,9.3152,9.2633,9.2633,9.2331,9.1803,9.2331,9.2331,9.1803,9.2399,0.0,0.0,0.0,0.0,0.0,9.1874,9.1275,9.0413,8.9627,8.9327,8.9252,8.8391,8.778,8.7365,0.0,0.0,0.0,0.0,0.0,0.0,0.0,2.2327,2.2327,2.2327,2.2327,2.2327,2.2327,2.2327,2.2327,2.2327,2.2327,0.0,0.0,0.0,0.0,0.0,0.0,0.0,0.0,2.8459,2.997,3.1203,3.3758,3.5764,3.7228,3.8041,3.8505,3.8689,0.0,0.0,0.0,0.0,0.0,0.0,4.1185,4.1772,4.2359,0.0,0.0,0.0,0.0,0.0,0.0,0.0,0.0,0.0,0.0,0.0,0.0,0.0,5.3849,5.9501,0.0,6.9192,7.1394,6.9412,6.5999,6.2438,5.9832,5.6088,5.2968,5.216,5.1977,5.1977,5.1977,5.2417,5.3592,5.6235,5.6895,5.8437,6.2254,0.0,0.0,0.0,0.0,0.0,0.0,0.0,0.0,0.0,0.0,0.0,0.0,9.82,9.7817,9.6676,9.531,9.4346,9.3859,9.3597,9.314,9.2662,9.3202,9.314,9.2662,9.3202,0.0,0.0,0.0,0.0,0.0,9.2781,9.2345,9.1514,9.0721,9.0419,9.0306,8.9423,8.8856,8.8446,0.0,0.0,0.0,0.0,0.0,0.0,0.0,2.2327,2.2327,2.2327,2.2327,2.2327,2.2327,2.2327,2.2327,2.2327,0.0,0.0,0.0,0.0,0.0,0.0,0.0,0.0,0.0,2.818,2.9585,3.0803,3.434,3.6292,3.6852,3.8948,3.947,3.87,3.8695,0.0,0.0,0.0,0.0,0.0,3.9863,4.0781,0.0,0.0,0.0,0.0,0.0,0.0,0.0,0.0,0.0,0.0,0.0,0.0,0.0,0.0,0.0,0.0,0.0,6.4714,6.7687,6.765,6.4237,6.0493,5.8988,5.5757,0.0,5.216,5.1977,5.2013,5.216,5.2123,5.2674,5.4436,5.5397,5.761,6.2414,6.7095,0.0,0.0,0.0,0.0,0.0,0.0,0.0,0.0,0.0,0.0,0.0,10.0889,10.0596,9.8942,9.6714,9.5475,9.5307,9.4551,9.4157,9.4102,9.4157,9.4157,9.4102,9.4157,0.0,0.0,0.0,0.0,0.0,9.3056,9.2526,9.1785,9.1028,9.0674,9.0523,8.9729,8.9338,8.9249,0.0,0.0,0.0,0.0,0.0,0.0,0.0,0.0,0.0,0.0,2.2327,2.2327,2.2327,2.2327,2.2327,0.0,0.0,0.0,0.0,0.0,0.0,0.0,0.0,0.0,0.0,2.818,2.986,3.1602,3.4216,3.6303,3.7925,3.9445,3.9731,3.8934,3.8789,3.8358,0.0,0.0,0.0,0.0,3.9643,4.012,0.0,0.0,0.0,0.0,4.3277,4.3497,0.0,0.0,0.0,0.0,0.0,0.0,0.0,0.0,4.8563,5.0288,5.216,0.0,5.5831,5.5207,5.4656,5.3995,0.0,5.2527,0.0,0.0,0.0,5.238,5.3592,5.3335,5.4069,5.7519,5.8548,6.0673,6.558,0.0,0.0,0.0,0.0,0.0,0.0,0.0,0.0,0.0,0.0,0.0,0.0,10.121,10.0789,9.9827,9.859,9.7101,9.5267,9.5029,9.4668,9.4102,9.463,9.4668,9.4102,9.468,0.0,0.0,0.0,0.0,9.5476,9.5476,9.4978,9.4173,9.3981,9.3521,9.2908,9.2678,9.1854,9.089,0.0,0.0,0.0,0.0,0.0,0.0,0.0,0.0,0.0,0.0,0.0,0.0,0.0,0.0,0.0,0.0,0.0,0.0,0.0,0.0,0.0,0.0,0.0,2.5169,2.6657,2.818,2.9853,3.1582,3.4125,3.6237,3.7942,3.8922,3.9048,3.8436,3.7849,3.7551,0.0,0.0,0.0,3.8726,3.9166,0.0,0.0,0.0,0.0,0.0,4.3314,4.3497,0.0,4.3497,4.3754,4.4121,0.0,0.0,0.0,0.0,4.7755,4.8526,4.8893,5.0472,5.1903,5.1463,5.1977,5.2344,5.1536,0.0,0.0,0.0,0.0,0.0,5.3924,5.4075,5.4888,5.7396,5.9577,6.3571,0.0,0.0,0.0,0.0,0.0,0.0,0.0,0.0,0.0,0.0,0.0,0.0,0.0,10.0904,10.0404,9.9519,9.8673,9.7596,9.6274,9.5891,9.5533,9.5096,9.5533,9.549,9.5142,9.5533,9.57,0.0,0.0,0.0,9.5711,9.5711,9.5441,9.4941,9.4557,9.4364,9.421,9.3441,9.2871,9.2368,0.0,0.0,0.0,0.0,0.0,0.0,0.0,0.0,0.0,0.0,0.0,0.0,0.0,0.0,0.0,0.0,0.0,0.0,0.0,0.0,0.0,0.0,0.0,2.5338,2.6826,2.8247,2.9702,3.119,3.4066,3.6091,3.7431,3.8228,3.8285,3.7572,3.6619,3.6575,0.0,0.0,0.0,3.8689,3.8689,0.0,0.0,0.0,0.0,0.0,0.0,0.0,0.0,4.3497,4.3938,4.4525,4.4525,0.0,0.0,0.0,0.0,0.0,4.8453,5.0325,5.1903,5.1536,5.2234,5.2784,5.183,0.0,0.0,0.0,0.0,0.0,0.0,0.0,0.0,0.0,0.0,0.0,0.0,0.0,0.0,0.0,0.0,0.0,0.0,0.0,0.0,0.0,0.0,0.0,0.0,10.0481,9.9712,9.8827,9.7942,9.7442,9.7326,9.6634,9.6288,9.6288,9.6288,9.6288,9.6288,9.6288,9.6288,0.0,0.0,0.0,9.5211,9.5211,9.5095,9.4941,9.4326,9.448,9.4826,9.3557,9.3441,9.3787,0.0,0.0,0.0,0.0,0.0,0.0,0.0,0.0,0.0,0.0,0.0,0.0,0.0,0.0,0.0,0.0,0.0,0.0,0.0,0.0,0.0,2.4489,2.5101,2.6116,2.7604,2.8518,2.9702,3.119,3.4117,3.6027,3.6956,3.8743,3.8602,3.685,3.6013,3.5939,3.6486,0.0,0.0,3.8689,3.8689,0.0,0.0,0.0,0.0,0.0,0.0,0.0,0.0,4.3497,4.3571,4.3681,4.3681,0.0,0.0,0.0,0.0,0.0,4.9994,5.1206,5.1499,4.9407,5.0545,5.1793,0.0,0.0,0.0,0.0,0.0,0.0,0.0,0.0,0.0,0.0,0.0,0.0,0.0,0.0,0.0,0.0,0.0,0.0,0.0,0.0,0.0,0.0,0.0,0.0,0.0,10.0481,9.9712,9.8827,9.7942,9.7173,9.648,9.6365,9.6288,9.6288,9.6288,9.6288,9.6288,9.6288,9.6288,0.0,0.0,9.6211,9.6095,9.6095,9.5672,9.5057,9.5672,9.5518,9.5057,9.5557,9.5326,9.4672,0.0,0.0,0.0,0.0,0.0,0.0,0.0,0.0,0.0,0.0,0.0,0.0,0.0,0.0,0.0,0.0,0.0,0.0,0.0,0.0,0.0,2.4489,2.5981,2.7131,2.7772,2.8991,3.0514,3.2374,3.4573,3.6434,3.8004,3.7944,3.7091,3.5578,3.4663,3.4752,3.5642,3.6083,3.6964,3.8102,0.0,0.0,0.0,0.0,0.0,0.0,0.0,0.0,0.0,0.0,4.3791,4.4085,4.3644,0.0,0.0,0.0,0.0,0.0,4.9003,5.0068,5.0508,4.9848,5.1667,5.3193,0.0,0.0,0.0,0.0,0.0,0.0,0.0,0.0,0.0,0.0,0.0,0.0,0.0,0.0,0.0,0.0,0.0,0.0,0.0,0.0,0.0,0.0,0.0,0.0,0.0,0.0,9.8981,9.8134,9.7288,9.6673,9.6288,9.6288,9.6288,9.6288,9.6288,9.6288,9.6288,9.6288,9.6288,9.6288,0.0,9.6019,9.5595,9.5595,9.5365,9.5018,9.5441,9.5634,9.5749,9.6134,9.5749,9.4941,0.0,0.0,0.0,0.0,0.0,0.0,0.0,0.0,0.0,0.0,0.0,0.0,0.0,0.0,0.0,0.0,0.0,0.0,0.0,0.0,2.4591,2.4729,2.6725,2.7941,2.8313,2.9668,3.136,3.3423,3.4878,3.6603,3.843,3.6962,3.5814,3.4942,3.41,3.4454,3.5642,3.6303,3.7037,3.7808,0.0,0.0,0.0,0.0,0.0,0.0,0.0,0.0,0.0,0.0,0.0,0.0,0.0,0.0,0.0,4.5736,4.6177,4.6838,4.8453,4.937,5.0144,5.1219,0.0,0.0,0.0,0.0,0.0,0.0,0.0,0.0,0.0,0.0,0.0,0.0,0.0,0.0,0.0,0.0,0.0,0.0,0.0,0.0,0.0,0.0,0.0,0.0,0.0,0.0,0.0,0.0,9.8173,9.7519,9.6711,9.6288,9.6288,9.6288,9.6288,9.6288,9.6288,9.6288,9.6288,9.6288,9.6288,9.6288,9.6288,9.5903,9.5288,9.5288,9.5288,9.5288,9.5288,9.5711,9.6288,9.6288,9.5865,9.5288,0.0,0.0,0.0,0.0,0.0,0.0,0.0,0.0,0.0,0.0,0.0,0.0,0.0,0.0,0.0,0.0,0.0,0.0,0.0,0.0,2.4797,2.5507,2.6962,2.8448,2.9905,3.0717,3.1867,3.3423,3.4878,3.6062,3.6954,3.6526,3.6127,3.5791,3.5498,3.6059,3.7294,3.7397,3.7881,3.8615,3.8689,0.0,0.0,0.0,0.0,0.0,0.0,0.0,0.0,0.0,0.0,0.0,0.0,0.0,4.5847,4.5883,4.6948,4.8489,5.0178,5.0655,5.1179,5.3088,0.0,0.0,0.0,0.0,0.0,0.0,0.0,0.0,0.0,0.0,0.0,0.0,0.0,0.0,0.0,0.0,0.0,0.0,0.0,0.0,0.0,0.0,0.0,0.0,0.0,0.0,0.0,0.0,0.0,9.7519,9.6711,9.6288,9.6288,9.6288,9.6288,9.6288,9.6288,9.6288,9.6288,9.6288,9.6288,9.6288,9.6288,9.6249,9.6211,9.6211,9.6211,9.6211,9.6211,9.6249,9.6288,9.6288,9.6249,9.6211,0.0,0.0,0.0,0.0,0.0,0.0,0.0,0.0,0.0,0.0,0.0,0.0,0.0,0.0,0.0,0.0,0.0,0.0,0.0,2.4086,2.4831,2.5575,2.7029,2.8516,3.0074,3.1258,3.2814,3.4776,3.6299,3.7092,3.7212,3.6111,3.5626,3.561,3.5055,3.5224,3.6009,3.7037,3.7661,3.7991,3.8505,3.9166,0.0,0.0,0.0,0.0,0.0,0.0,0.0,0.0,4.3497,4.3497,4.3497,4.4268,4.5259,4.5736,4.6691,4.7829,4.893,5.023,5.164,5.3423,0.0,0.0,0.0,0.0,0.0,0.0,0.0,0.0,0.0,0.0,0.0,0.0,0.0,0.0,0.0,0.0,0.0,0.0,0.0,0.0,0.0,0.0,0.0,0.0,0.0,0.0,0.0,0.0,0.0,9.6788,9.648,9.6288,9.6288,9.6288,9.6288,9.6288,9.6288,9.6288,9.6288,9.6288,9.6288,9.6288,9.6288,9.6288,9.6288,9.6288,9.6288,9.6288,9.6288,9.6288,9.6288,9.6288,9.6288,9.6288,0.0,0.0,0.0,0.0,0.0,0.0,0.0,0.0,0.0,0.0,0.0,0.0,0.0,0.0,0.0,0.0,0.0,0.0,2.4019,2.456,2.5169,2.5913,2.7165,2.8516,3.0074,3.1326,3.2916,3.4912,3.6197,3.6808,3.6755,3.5844,3.5717,3.6233,3.5634,3.5811,3.6633,3.7514,3.8028,3.8285,3.8872,3.9717,0.0,0.0,0.0,0.0,0.0,0.0,0.0,0.0,4.3497,4.3497,4.3497,4.4232,4.5186,4.5736,4.6654,4.7609,4.8159,4.9676,5.1516,5.3262,0.0,0.0,0.0,0.0,0.0,0.0,0.0,0.0,0.0,0.0,0.0,0.0,0.0,0.0,0.0,0.0,0.0,0.0,0.0,0.0,0.0,0.0,0.0,0.0,0.0,0.0,0.0,0.0,0.0,0.0,9.6288,9.6288,9.6288,9.6288,9.6288,9.6288,9.6288,9.6288,9.6288,9.6288,9.6288,9.6288,9.6288,9.6288,9.6288,9.6288,9.6288,9.6288,9.6288,9.6288,9.6288,9.6288,9.6288,9.6288,0.0,0.0,0.0,0.0,0.0,0.0,0.0,0.0,0.0,0.0,0.0,0.0,0.0,0.0,0.0,0.0,0.0,0.0,2.5507,2.5609,2.5947,2.6657,2.7402,2.8518,3.0074,3.0818,3.1935,3.3423,3.4134,3.4772,3.5232,3.5671,3.6577,3.7891,3.7624,3.8358,3.9827,3.9056,3.9166,3.99,3.99,4.0855,4.2286,0.0,0.0,0.0,0.0,0.0,0.0,0.0,4.3497,4.3497,4.3497,4.4599,4.592,4.5883,4.7058,4.8306,4.8306,4.9269,5.0725,5.2824,0.0,0.0,0.0,0.0,0.0,0.0,0.0,0.0,0.0,0.0,0.0,0.0,0.0,0.0,0.0,0.0,0.0,0.0,0.0,0.0,0.0,0.0,0.0,0.0,0.0,0.0,0.0,0.0,0.0,0.0,9.6288,9.6288,9.6288,9.6288,9.6288,9.6288,9.6288,9.6288,9.6288,9.6288,9.6288,9.6288,9.6288,9.6288,9.6288,9.6288,9.6288,9.6288,9.6288,9.6288,9.6288,9.6288,9.6288,9.6288,0.0,0.0,0.0,0.0,0.0,0.0,0.0,0.0,0.0,0.0,0.0,0.0,0.0,0.0,0.0,0.0,0.0,0.0,2.5541,2.5609,2.5947,2.6657,2.6894,2.774,2.9296,3.0548,3.1935,3.3423,3.448,3.5238,3.5746,3.5651,3.6338,3.7619,3.7558,3.7801,3.8248,3.9166,3.968,3.9937,4.0524,4.1368,4.2286,0.0,0.0,0.0,0.0,0.0,0.0,0.0,0.0,0.0,4.3497,4.5002,4.6654,4.6067,4.7462,4.9118,4.8824,5.0534,0.0,0.0,0.0,0.0,0.0,0.0,0.0,0.0,0.0,0.0,0.0,0.0,0.0,0.0,0.0,0.0,0.0,0.0,0.0,0.0,0.0,0.0,0.0,0.0,0.0,0.0,0.0,0.0,0.0,0.0,0.0,0.0,9.6288,9.6288,9.6288,9.6288,9.6288,9.6288,9.6288,9.6288,9.6288,9.6288,9.6288,9.6288,9.6288,9.6288,9.6288,9.6288,9.6288,9.6288,9.6288,9.6288,9.6288,9.6288,9.6288,9.6288,0.0,0.0,0.0,0.0,0.0,0.0,0.0,0.0,0.0,0.0,0.0,0.0,0.0,0.0,0.0,0.0,0.0,0.0,0.0,2.6048,2.6251,2.6657,2.6996,2.7875,2.9397,3.1045,3.2183,3.2758,3.3795,3.4821,3.5792,3.6245,3.7185,3.8469,3.8799,3.9093,3.9423,4.0084,4.0561,4.0891,4.1368,4.2066,4.2763,0.0,0.0,0.0,0.0,0.0,0.0,0.0,0.0,0.0,4.3497,4.4929,4.6581,4.6244,4.7537,4.9157,4.9538,0.0,0.0,0.0,0.0,0.0,0.0,0.0,0.0,0.0,0.0,0.0,0.0,0.0,0.0,0.0,0.0,0.0,0.0,0.0,0.0,0.0,0.0,0.0,0.0,0.0,0.0,0.0,0.0,0.0,0.0,0.0,0.0,0.0,9.6288,9.6288,9.6288,9.6288,9.6288,9.6288,9.6288,9.6288,9.6288,9.6288,9.6288,9.6288,9.6288,9.6288,9.6288,9.6288,9.6288,9.6288,9.6288,9.6288,9.6288,9.6288,9.6288,9.6288,0.0,0.0,0.0,0.0,0.0,0.0,0.0,0.0,0.0,0.0,0.0,0.0,0.0,0.0,0.0,0.0,0.0,0.0,0.0,0.0,2.6725,2.6758,2.7572,2.8693,3.019,3.2041,3.2609,3.1915,3.2784,3.4023,3.5551,3.7205,3.8634,3.9937,4.0744,4.1515,4.2139,4.1515,4.1625,4.2323,4.2396,4.2837,4.3497,4.3497,0.0,0.0,0.0,0.0,0.0,0.0,0.0,0.0,4.3571,4.4709,4.6102,4.6475,4.7529,4.8938,5.0566,0.0,0.0,0.0,0.0,0.0,0.0,0.0,0.0,0.0,0.0,0.0,0.0,0.0,0.0,0.0,0.0,0.0,0.0,0.0,0.0,0.0,0.0,0.0,0.0,0.0,0.0,0.0,0.0,0.0,0.0,0.0,0.0,9.6288,9.6211,9.6172,9.6172,9.6172,9.6172,0.0,9.6249,9.6288,9.6288,9.6288,9.6288,9.6288,9.6288,9.6288,9.6288,9.6288,9.6288,9.6288,9.6288,9.6288,9.6288,9.6288,9.6288,9.6288,0.0,0.0,0.0,0.0,0.0,0.0,0.0,0.0,0.0,0.0,0.0,0.0,0.0,0.0,0.0,0.0,0.0,0.0,0.0,0.0,2.6858,2.7147,2.8778,3.0124,3.1105,3.2087,3.271,3.2921,3.4285,3.5172,3.5616,3.7603,3.8999,3.9937,4.0744,4.1222,4.1405,4.1846,4.2139,4.2359,4.2983,4.3351,4.3497,4.3497,4.3497,0.0,0.0,0.0,0.0,0.0,0.0,0.0,4.4232,4.5553,4.6838,4.6948,4.8752,5.1001,0.0,5.5312,0.0,0.0,0.0,0.0,0.0,0.0,0.0,0.0,0.0,0.0,0.0,0.0,0.0,0.0,0.0,0.0,0.0,0.0,0.0,0.0,0.0,0.0,0.0,0.0,0.0,0.0,0.0,0.0,0.0,0.0,0.0,9.6288,9.5634,9.5288,9.5288,9.5288,9.5288,0.0,9.598,9.6288,9.6288,9.6288,9.6288,9.6288,9.6288,9.6288,9.6288,9.6288,9.6288,9.6288,9.6288,9.6288,9.6288,9.6288,9.6288,9.6288,0.0,0.0,0.0,0.0,0.0,0.0,0.0,0.0,0.0,0.0,0.0,0.0,0.0,0.0,0.0,0.0,0.0,0.0,0.0,0.0,2.7197,2.8343,2.9941,3.115,3.193,3.2549,3.3131,3.3774,3.5193,3.6115,0.0,3.8413,3.99,4.1075,4.1882,4.2249,4.2286,4.269,4.2873,4.291,4.3314,4.3497,4.3497,4.3497,4.3497,4.3497,4.3497,0.0,0.0,0.0,0.0,0.0,0.0,0.0,4.6581,4.6995,4.858,5.0754,0.0,0.0,0.0,0.0,0.0,0.0,0.0,0.0,0.0,0.0,0.0,0.0,0.0,0.0,0.0,0.0,0.0,0.0,0.0,0.0,0.0,0.0,0.0,0.0,0.0,0.0,0.0,0.0,0.0,0.0,0.0,9.6288,9.6095,9.5672,9.5634,9.5403,9.498,9.5403,9.5634,9.5634,9.6095,9.6288,9.6288,9.6288,9.6288,9.6288,9.6288,9.6288,9.6288,9.6288,9.6288,9.6288,9.6288,9.6288,9.6288,9.6288,9.6288,9.6288,0.0,0.0,0.0,0.0,0.0,0.0,0.0,0.0,0.0,0.0,0.0,0.0,0.0,0.0,0.0,0.0,0.0,0.0,0.0,0.0,0.0,2.9959,3.1044,3.1974,3.2727,3.3105,3.3719,3.4516,3.5718,0.0,0.0,0.0,4.0891,4.2323,4.313,4.3497,4.3497,4.3497,4.3497,4.3497,4.3497,4.3497,4.3497,4.3497,4.3497,4.3497,4.3497,4.3497,4.3497,4.3497,0.0,0.0,0.0,0.0,4.6284,4.717,4.8371,5.0166,0.0,0.0,0.0,0.0,0.0,0.0,0.0,0.0,0.0,0.0,0.0,0.0,0.0,0.0,0.0,0.0,0.0,0.0,0.0,0.0,0.0,0.0,0.0,0.0,0.0,0.0,0.0,0.0,0.0,0.0,9.6095,9.6095,9.5672,9.4788,9.548,9.5441,9.4557,9.5403,9.5788,9.5634,9.5942,9.6095,9.6095,9.6249,9.6288,9.6288,9.6288,9.6288,9.6288,9.6288,9.6288,9.6288,9.6288,9.6288,9.6288,9.6288,9.6288,9.6288,0.0,0.0,0.0,0.0,0.0,0.0,0.0,0.0,0.0,0.0,0.0,0.0,0.0,0.0,0.0,0.0,0.0,0.0,0.0,0.0,0.0,3.1708,3.2201,3.2803,3.3634,3.3662,3.4092,3.4934,0.0,0.0,0.0,0.0,0.0,4.2323,0.0,4.3497,4.3497,4.3497,4.3497,4.3497,4.3497,4.3497,4.3497,4.3497,4.3497,4.3497,4.3497,4.3497,4.3497,4.3497,4.3975,0.0,0.0,0.0,4.7169,4.8289,5.0059,5.2084,0.0,0.0,0.0,0.0,0.0,0.0,0.0,0.0,0.0,0.0,0.0,0.0,0.0,0.0,0.0,0.0,0.0,0.0,0.0,0.0,0.0,0.0,0.0,0.0,0.0,0.0,0.0,0.0,0.0,0.0,9.5211,9.5172,9.4749,9.3903,9.398,9.3672,9.2826,9.3633,9.371,9.3018,9.448,9.5172,9.5211,9.5942,9.6288,9.6288,9.6288,9.6288,9.6288,9.6288,9.6288,9.6288,9.6288,9.6288,9.6288,9.6288,9.6288,9.6288,0.0,0.0,0.0,0.0,0.0,0.0,0.0,0.0,0.0,0.0,0.0,0.0,0.0,0.0,0.0,0.0,0.0,0.0,0.0,0.0,0.0,3.2068,3.2876,3.344,3.3807,3.3807,3.4431,3.5752,0.0,0.0,0.0,4.1405,4.2213,0.0,0.0,0.0,0.0,0.0,4.3497,4.3497,4.3497,4.3631,4.3758,4.3563,4.3631,4.3758,0.0,0.0,0.0,4.3497,4.4011,4.4782,4.5112,0.0,0.0,0.0,4.9712,0.0,5.6945,0.0,0.0,0.0,0.0,0.0,0.0,0.0,0.0,0.0,0.0,0.0,0.0,0.0,0.0,0.0,0.0,0.0,0.0,0.0,0.0,0.0,0.0,0.0,0.0,0.0,0.0,0.0,0.0,9.5903,9.5057,9.498,9.4364,9.3056,9.3441,9.3326,9.2518,9.3287,9.3749,9.3903,9.4134,9.4788,9.5711,9.5095,9.5365,9.6288,9.5788,9.5865,9.6249,9.5788,9.5865,9.6288,9.6288,9.6288,9.6288,9.6288,9.6288,9.6288,0.0,0.0,0.0,0.0,0.0,0.0,0.0,0.0,0.0,0.0,0.0,0.0,0.0,0.0,0.0,0.0,0.0,0.0,0.0,0.0,0.0,3.2536,3.3369,3.3807,3.3807,3.399,3.4835,0.0,0.0,0.0,4.1148,4.1919,4.2727,0.0,4.3718,0.0,0.0,0.0,0.0,0.0,4.3597,4.3791,4.3967,4.3855,0.0,4.4416,4.3923,0.0,0.0,0.0,0.0,0.0,0.0,0.0,0.0,0.0,0.0,0.0,0.0,0.0,0.0,0.0,0.0,0.0,0.0,0.0,0.0,0.0,0.0,0.0,0.0,0.0,0.0,0.0,0.0,0.0,0.0,0.0,0.0,0.0,0.0,0.0,0.0,0.0,0.0,0.0,0.0,9.548,9.4403,9.4364,9.3672,9.221,9.2979,9.2979,9.2172,9.2749,9.3403,9.4018,9.3595,9.4172,9.5595,9.4518,9.4864,9.6249,9.5365,9.548,9.6249,9.5595,9.5711,9.6288,9.6288,9.6288,9.6288,9.6288,9.6288,9.6288,0.0,0.0,0.0,0.0,0.0,0.0,0.0,0.0,0.0,0.0,0.0,0.0,0.0,0.0,3.1311,3.1384,3.1665,3.2227,3.3021,3.3478,3.3707,3.3707,3.377,0.0,3.3807,3.4578,0.0,0.0,0.0,0.0,4.1148,4.1919,4.2727,4.3534,4.4305,4.4195,4.3534,0.0,0.0,0.0,4.3849,4.3967,4.4028,0.0,0.0,0.0,0.0,0.0,0.0,0.0,0.0,0.0,0.0,0.0,0.0,0.0,0.0,0.0,0.0,0.0,0.0,0.0,0.0,0.0,0.0,0.0,0.0,0.0,0.0,0.0,0.0,0.0,0.0,0.0,0.0,0.0,0.0,0.0,0.0,0.0,0.0,0.0,0.0,0.0,0.0,0.0,9.4595,9.4326,9.271,9.2633,9.221,9.1287,9.2095,9.2133,9.1287,9.1325,9.1364,9.1402,9.2172,9.3018,9.3864,9.4595,9.5441,9.6249,9.5365,9.548,9.6288,9.6249,9.6249,9.6288,9.6288,9.6288,9.6288,9.6288,9.6288,9.6288,0.0,0.0,0.0,0.0,0.0,0.0,0.0,0.0,0.0,0.0,0.0,0.0,0.0,3.1531,3.1825,3.2852,3.3076,3.3286,3.3578,3.3726,3.3807,3.3807,3.4284,3.4578,3.4578,3.5422,0.0,0.0,0.0,4.0047,4.1148,4.2433,4.3204,4.3497,4.3791,4.4048,4.4268,4.4011,0.0,0.0,4.4883,4.526,4.5942,0.0,0.0,0.0,0.0,0.0,0.0,0.0,0.0,0.0,0.0,0.0,0.0,0.0,0.0,0.0,0.0,0.0,0.0,0.0,0.0,0.0,0.0,0.0,0.0,0.0,0.0,0.0,0.0,0.0,0.0,0.0,0.0,0.0,0.0,0.0,0.0,0.0,0.0,0.0,0.0,0.0,0.0,0.0,0.0,9.3672,9.2556,9.2479,9.2095,9.1248,9.1518,9.1518,9.121,9.121,9.1479,9.2018,9.1787,9.2364,9.3672,9.2903,9.3326,9.4595,9.4287,9.498,9.6249,9.5711,9.5788,9.6288,9.6288,9.6288,9.6288,9.6288,9.6288,9.6288,0.0,0.0,0.0,0.0,0.0,0.0,0.0,0.0,0.0,0.0,0.0,0.0,0.0,0.0,3.3146,3.4504,3.4651,3.4651,3.4651,3.4651,3.4651,3.4651,3.5165,3.5459,3.5459,3.6009,0.0,0.0,0.0,0.0,0.0,4.2763,4.3497,4.3497,4.3497,4.3938,0.0,0.0,0.0,4.6057,0.0,4.6412,4.7264,0.0,0.0,0.0,0.0,0.0,0.0,0.0,0.0,0.0,0.0,0.0,0.0,0.0,0.0,0.0,0.0,0.0,0.0,0.0,0.0,0.0,0.0,0.0,0.0,0.0,0.0,0.0,0.0,0.0,0.0,0.0,0.0,0.0,0.0,0.0,0.0,0.0,0.0,0.0,0.0,0.0,0.0,0.0,0.0,0.0,9.171,9.1633,9.1364,9.0787,9.0517,9.0633,9.121,9.0902,9.121,9.2056,9.1479,9.1941,9.3249,9.2133,9.2402,9.371,9.371,9.4518,9.5826,9.5557,9.5788,9.6288,9.6288,9.6288,9.6288,9.6288,9.6288,9.6288,0.0,0.0,0.0,0.0,0.0,0.0,0.0,0.0,0.0,3.1458,0.0,0.0,0.0,0.0,0.0,3.6229,3.6303,3.6303,3.6303,3.6303,3.6303,3.6303,3.6303,3.634,3.6376,3.6376,3.678,0.0,0.0,0.0,0.0,0.0,4.3497,0.0,4.3497,4.3975,4.4856,0.0,4.687,4.6626,0.0,4.7365,4.7892,0.0,0.0,0.0,5.051,5.1318,0.0,0.0,0.0,0.0,0.0,0.0,0.0,0.0,0.0,0.0,0.0,0.0,0.0,0.0,0.0,0.0,0.0,0.0,0.0,0.0,0.0,0.0,0.0,0.0,0.0,0.0,0.0,0.0,0.0,0.0,0.0,0.0,0.0,0.0,0.0,0.0,0.0,0.0,9.1941,9.1672,8.9979,8.9863,8.9863,8.9863,8.9094,8.9479,9.1171,9.0325,9.0364,9.121,9.121,9.1633,9.2441,9.2479,9.2903,9.3633,9.3672,9.4172,9.5018,9.5903,9.6288,9.6288,9.6288,9.6288,9.6288,9.6288,9.6288,9.6288,0.0,0.0,0.0,0.0,0.0,0.0,3.1054,3.1751,3.2485,0.0,0.0,0.0,0.0,0.0,3.6046,3.6266,3.6303,3.6303,3.6303,3.6303,3.6303,3.6303,3.6853,3.7441,3.8028,3.8615,3.9313,4.012,0.0,0.0,0.0,0.0,0.0,0.0,4.4121,4.4992,4.5997,4.5848,0.0,0.0,4.8981,5.0024,0.0,0.0,0.0,0.0,0.0,5.3587,0.0,0.0,5.3788,5.3827,0.0,0.0,0.0,0.0,0.0,0.0,5.5972,0.0,0.0,0.0,0.0,0.0,0.0,0.0,0.0,0.0,0.0,0.0,0.0,0.0,0.0,0.0,0.0,0.0,0.0,0.0,0.0,0.0,0.0,0.0,0.0,0.0,0.0,0.0,9.0171,9.0171,8.9094,8.9017,8.9017,8.9017,8.8825,8.921,9.0248,9.0017,9.0364,9.121,9.121,9.1325,9.1595,9.221,9.2287,9.1979,9.3172,9.3826,9.4134,9.498,9.5711,9.6288,9.6288,9.6288,9.6288,9.6288,9.6288,9.6288,0.0,0.0,0.0,0.0,0.0,3.2412,3.2412,3.3403,3.4321,0.0,0.0,0.0,0.0,0.0,3.7955,3.8285,3.7991,3.7808,3.7808,3.7477,3.7441,3.7771,3.8248,3.8872,3.968,3.9827,4.0304,4.1111,0.0,0.0,0.0,4.313,0.0,0.0,0.0,0.0,0.0,0.0,0.0,0.0,5.0672,0.0,0.0,5.4293,5.4549,0.0,0.0,0.0,5.5588,5.5972,5.5588,0.0,0.0,0.0,0.0,0.0,0.0,0.0,0.0,0.0,0.0,0.0,0.0,0.0,6.3051,6.4859,0.0,0.0,0.0,0.0,0.0,0.0,0.0,0.0,0.0,0.0,0.0,0.0,0.0,0.0,0.0,0.0,0.0,8.7825,8.8286,8.8171,8.894,8.9056,8.8209,8.7825,8.7786,8.8132,8.7786,8.8363,8.9902,8.9556,9.0017,9.121,9.121,9.121,9.1248,9.2095,9.2018,9.1287,9.2633,9.3403,9.3749,9.4249,9.5172,9.6288,9.6288,9.6288,9.6288,9.6288,9.6288,9.6288,0.0,0.0,3.1568,3.1751,3.2963,3.399,3.4174,3.5385,3.6376,0.0,0.0,0.0,0.0,0.0,4.0304,4.1038,4.0451,4.001,4.001,3.935,3.9276,4.001,4.001,4.0414,4.1222,4.0524,4.0561,4.1368,0.0,0.0,0.0,0.0,0.0,0.0,0.0,0.0,0.0,0.0,0.0,5.0427,5.2131,5.3139,0.0,0.0,5.6665,0.0,5.7857,5.7934,5.7396,5.8165,5.7357,0.0,0.0,0.0,0.0,0.0,5.7703,0.0,0.0,0.0,0.0,0.0,0.0,0.0,6.2704,6.3089,6.3666,0.0,0.0,0.0,0.0,0.0,0.0,0.0,0.0,0.0,0.0,0.0,0.0,0.0,0.0,0.0,8.467,8.5478,8.6247,8.694,8.7709,8.7825,8.7171,8.6401,8.6363,8.7209,8.6517,8.7286,8.9748,8.9056,8.9556,9.121,9.121,9.1248,9.1364,9.2133,9.2095,9.1402,9.2249,9.3018,9.371,9.3787,9.4826,9.6288,9.6288,9.6288,9.6288,9.6288,9.6288,9.6288,0.0,0.0,3.2779,3.41,3.4578,3.5238,3.656,3.6486,3.7,3.8946,0.0,0.0,0.0,0.0,0.0,4.1111,4.0965,4.0891,4.0891,4.0744,4.0708,4.0855,4.0891,4.1258,4.2066,4.1919,4.2213,4.302,0.0,0.0,0.0,0.0,0.0,0.0,0.0,0.0,0.0,0.0,0.0,5.1698,5.3426,0.0,5.6395,5.7588,5.7934,5.7934,5.8896,5.9165,5.905,0.0,5.8627,5.778,0.0,0.0,0.0,0.0,0.0,0.0,0.0,0.0,0.0,0.0,0.0,0.0,6.1358,6.182,6.282,0.0,0.0,0.0,0.0,0.0,0.0,0.0,0.0,0.0,0.0,0.0,0.0,0.0,0.0,0.0,8.3747,8.4632,8.4901,8.4362,8.4478,8.4824,8.5363,8.5247,8.5517,8.6324,8.6209,8.7017,8.8902,8.8786,8.9556,9.121,9.121,9.1556,9.2249,9.2402,9.2402,9.2287,9.3095,9.3557,9.3749,9.4441,9.5365,9.6288,9.6288,9.6288,9.6288,9.6288,9.6288,9.6288,0.0,0.0,3.4037,3.4844,3.5716,3.667,3.7918,3.8102,3.8652,0.0,0.0,0.0,0.0,0.0,0.0,0.0,4.1919,4.1699,4.1699,4.1332,4.1356,4.1909,4.1946,4.244,4.3439,4.3439,4.3534,4.3758,0.0,0.0,0.0,0.0,0.0,0.0,0.0,0.0,0.0,0.0,5.1485,5.3356,5.5049,0.0,5.7203,5.8896,5.955,5.9588,6.0012,6.0165,6.0165,6.0165,5.9588,0.0,0.0,5.8588,5.8896,0.0,5.9204,5.9627,0.0,0.0,0.0,6.1243,0.0,0.0,0.0,6.1435,6.1704,6.2512,6.3397,0.0,0.0,0.0,0.0,0.0,0.0,0.0,0.0,0.0,0.0,0.0,0.0,0.0,8.2285,8.3093,8.3593,8.3593,8.3593,8.3785,8.4209,8.4247,8.4632,8.5478,8.5517,8.6324,8.8017,8.8479,8.9325,9.0556,9.0979,9.1441,9.1864,9.2287,9.2249,9.1902,9.2749,9.3326,9.371,9.4172,9.5134,9.6288,9.6288,9.6288,9.6288,9.6288,9.6288,9.6288,0.0,0.0,0.0,3.5356,3.6731,3.8147,3.9105,3.9804,4.0609,0.0,0.0,0.0,0.0,0.0,0.0,0.0,0.0,4.2955,0.0,4.24,4.2187,4.3108,4.3137,4.3615,4.4561,4.4599,4.4428,4.4117,4.4428,0.0,0.0,0.0,0.0,0.0,0.0,0.0,0.0,0.0,0.0,5.4895,0.0,5.7357,5.7742,5.9935,6.0781,6.0781,6.0781,6.0781,6.0781,6.0781,0.0,5.9627,5.8973,5.9242,0.0,0.0,0.0,0.0,0.0,0.0,0.0,0.0,0.0,6.1589,0.0,0.0,0.0,6.0819,0.0,0.0,0.0,0.0,0.0,0.0,0.0,0.0,0.0,0.0,0.0,0.0,0.0,0.0,0.0,8.1054,8.1747,8.2785,8.2708,8.2824,8.3324,8.3362,8.3747,8.4632,8.4824,8.5632,8.7132,8.8171,8.9094,8.9902,9.0787,9.1287,9.1479,9.2018,9.1979,9.1479,9.2172,9.2864,9.348,9.3826,9.4672,9.5826,9.6172,9.6288,9.6288,9.6288,9.6288,9.6288,3.4237,3.4809,0.0,3.6694,3.8004,3.9435,4.1006,4.1332,4.21,0.0,0.0,0.0,0.0,0.0,0.0,0.0,0.0,0.0,4.7551,0.0,4.4256,4.4395,4.4395,4.4459,4.4599,4.4599,4.4599,4.4546,4.4599,4.4938,0.0,0.0,0.0,0.0,4.9486,0.0,0.0,0.0,5.4664,0.0,5.7434,5.8588,0.0,6.0396,6.0781,6.0781,6.0781,6.0781,6.0781,0.0,6.0742,6.0627,0.0,6.0589,0.0,0.0,0.0,0.0,0.0,0.0,0.0,0.0,6.2551,0.0,0.0,0.0,6.1704,6.0973,0.0,0.0,0.0,0.0,0.0,0.0,0.0,0.0,0.0,0.0,0.0,0.0,0.0,0.0,0.0,7.8207,7.8515,8.0131,7.9515,8.0054,8.2324,8.2439,8.2862,8.3708,8.4516,8.5324,8.6247,8.7863,8.9094,8.9902,9.0787,9.1595,9.2326,9.1633,9.171,9.2364,9.2441,9.2556,9.2749,9.4249,9.4518,9.4134,9.5711,9.6288,9.6288,9.6288,9.6288,9.6288,3.6061,3.6618,0.0,0.0,3.911,4.0516,4.1691,4.3106,0.0,0.0,0.0,0.0,0.0,0.0,0.0,0.0,0.0,4.6841,0.0,0.0,0.0,4.558,4.5124,4.5217,4.5906,4.543,4.5077,4.4896,4.5077,4.5497,0.0,0.0,0.0,0.0,5.0586,0.0,5.1548,0.0,0.0,0.0,0.0,0.0,0.0,6.0666,6.0781,6.0858,6.1358,6.155,6.1627,0.0,6.1935,0.0,0.0,0.0,0.0,0.0,0.0,0.0,0.0,0.0,0.0,0.0,0.0,0.0,0.0,0.0,6.2704,0.0,0.0,0.0,0.0,0.0,0.0,0.0,6.5551,0.0,0.0,0.0,0.0,0.0,0.0,0.0,0.0,0.0,0.0,0.0,7.6707,7.7746,7.9323,8.0323,8.1477,8.2785,8.367,8.4555,8.5401,8.7094,8.8363,8.921,9.0056,9.0902,9.1748,9.1364,9.1402,9.1748,9.1748,9.2018,9.2556,9.3249,9.3595,9.3826,9.5057,9.5557,9.5595,9.6095,9.6288,9.6288,0.0,0.0,0.0,0.0,0.0,4.1949,4.282,0.0,0.0,0.0,0.0,0.0,4.9226,4.9563,0.0,0.0,0.0,4.9543,0.0,0.0,4.7044,0.0,0.0,0.0,0.0,4.6624,4.6148,4.5931,4.6148,4.657,0.0,0.0,0.0,0.0,0.0,5.251,5.3087,0.0,0.0,5.778,5.9011,6.0012,6.0781,6.0781,6.0781,6.0858,6.1512,6.1897,6.2166,6.2781,6.2589,0.0,6.2089,0.0,0.0,0.0,0.0,0.0,6.0858,0.0,0.0,0.0,0.0,0.0,0.0,0.0,0.0,0.0,0.0,0.0,0.0,0.0,0.0,0.0,0.0,6.4512,0.0,0.0,0.0,0.0,0.0,0.0,0.0,0.0,0.0,7.3476,7.4168,7.5284,7.6861,7.8323,7.9977,8.19,8.2785,8.367,8.4555,8.6209,8.7478,8.8363,8.9402,9.0248,9.0864,9.1095,9.121,9.121,9.121,9.1556,9.2172,9.2402,9.2826,9.348,9.4557,9.498,9.5095,9.598,9.6288,9.6288,4.1338,4.0784,0.0,0.0,0.0,0.0,0.0,0.0,0.0,0.0,0.0,0.0,0.0,0.0,0.0,0.0,0.0,5.4297,5.422,0.0,4.9798,0.0,0.0,4.8029,0.0,0.0,4.8009,4.7991,4.8009,4.8471,0.0,0.0,0.0,0.0,0.0,5.4049,5.5626,5.6549,5.7896,5.9435,5.9473,6.0012,6.0781,0.0,6.0781,6.0781,6.0819,0.0,0.0,6.2127,6.2127,0.0,0.0,0.0,0.0,0.0,0.0,0.0,0.0,0.0,0.0,6.2743,0.0,0.0,0.0,0.0,6.532,0.0,0.0,0.0,0.0,0.0,0.0,0.0,0.0,0.0,0.0,0.0,0.0,0.0,0.0,0.0,0.0,0.0,0.0,7.336,7.1975,7.2514,7.5861,7.6899,7.8554,8.1054,8.19,8.2747,8.3632,8.5286,8.6594,8.744,8.9133,8.9902,8.9979,9.0825,9.121,9.121,9.121,9.121,9.1325,9.2133,9.2518,9.271,9.4364,9.498,9.5095,9.598,9.6288,9.6288,0.0,0.0,0.0,0.0,0.0,0.0,0.0,4.6724,0.0,0.0,0.0,0.0,0.0,0.0,5.9935,0.0,0.0,5.855,5.628,5.4318,0.0,0.0,0.0,4.9817,0.0,0.0,0.0,0.0,0.0,0.0,0.0,0.0,0.0,0.0,0.0,5.4664,0.0,0.0,0.0,0.0,0.0,6.1204,6.232,0.0,0.0,6.0781,6.0781,6.1358,0.0,6.2089,6.2089,6.2089,6.2089,6.1512,6.0781,6.0781,6.1781,0.0,0.0,0.0,6.7782,6.5243,0.0,0.0,0.0,0.0,0.0,0.0,0.0,0.0,0.0,0.0,0.0,0.0,0.0,0.0,0.0,0.0,0.0,0.0,0.0,0.0,0.0,0.0,0.0,6.6821,6.7782,6.9398,7.1706,7.4745,7.7323,7.9323,8.1285,8.2708,8.3593,8.4747,8.6017,8.7401,8.8556,8.9363,8.994,9.0787,9.121,9.121,9.121,9.121,9.121,9.1518,9.1979,9.2595,9.371,9.448,9.5095,9.598,9.6288,9.6288,4.3355,0.0,0.0,0.0,0.0,0.0,0.0,0.0,0.0,0.0,5.6434,0.0,6.3743,0.0,6.4782,0.0,6.4628,6.2627,5.8588,5.7627,0.0,5.378,5.2895,0.0,0.0,0.0,0.0,0.0,0.0,5.0164,0.0,0.0,0.0,0.0,0.0,0.0,5.6703,0.0,5.8934,0.0,0.0,6.1704,0.0,0.0,6.1435,6.1704,0.0,6.205,6.2512,6.2512,6.2743,6.2935,6.2627,6.2127,6.1743,6.205,6.3128,6.4205,6.4205,6.6898,0.0,6.7282,6.8475,0.0,6.7282,0.0,0.0,0.0,0.0,0.0,0.0,0.0,0.0,0.0,0.0,0.0,0.0,6.3474,0.0,0.0,0.0,0.0,0.0,0.0,6.5513,6.3897,6.5013,6.6628,0.0,0.0,7.5707,7.7977,8.0554,8.2285,8.3131,8.4016,8.5132,8.6517,8.7979,8.8979,8.9517,9.0671,9.121,9.121,9.121,9.121,9.121,9.1518,9.2172,9.3018,9.3826,9.4672,9.5518,9.6095,9.6288,9.6288,0.0,0.0,0.0,0.0,4.5817,0.0,0.0,0.0,5.401,0.0,5.9088,6.2551,6.5974,6.7051,6.7859,6.8629,6.8706,0.0,6.155,6.1935,0.0,0.0,5.5588,5.5549,5.4626,0.0,0.0,0.0,0.0,0.0,0.0,0.0,0.0,0.0,5.4587,0.0,5.8319,5.8357,5.9319,6.0935,6.182,6.1704,6.1127,6.1897,6.2743,6.3435,6.3281,6.3281,6.332,6.332,6.3858,6.4397,6.3551,6.332,6.3551,6.4359,6.5282,6.6013,6.609,6.7936,6.9667,6.8821,0.0,0.0,0.0,0.0,7.1591,0.0,0.0,0.0,0.0,0.0,0.0,0.0,0.0,0.0,0.0,0.0,0.0,0.0,0.0,0.0,0.0,6.6013,6.4551,6.4436,6.3666,6.432,0.0,0.0,7.3668,7.7053,7.9669,8.1477,8.2362,8.317,8.4093,8.5055,8.7517,8.8709,8.8786,9.0441,9.121,9.121,9.1248,9.1248,9.1325,9.221,9.3018,9.3826,9.4672,9.5518,9.6288,9.6288,9.6288,9.6288,4.5086,4.5778,4.624,0.0,4.6586,4.7548,0.0,0.0,0.0,0.0,6.4897,6.8706,7.2091,7.3206,7.3553,7.3129,7.2552,0.0,0.0,0.0,0.0,6.1166,6.005,5.8511,5.6395,5.5511,0.0,5.3203,0.0,0.0,5.4164,0.0,0.0,0.0,0.0,0.0,5.8357,5.8934,6.0204,6.182,6.2666,6.3628,0.0,0.0,6.4474,6.4974,6.3089,6.2781,6.332,6.332,6.3474,6.3589,6.3358,6.3743,6.432,6.4551,6.609,6.7898,6.8552,7.0591,7.2322,7.1437,7.2052,7.2399,0.0,0.0,0.0,0.0,0.0,0.0,0.0,0.0,0.0,0.0,0.0,0.0,0.0,0.0,0.0,6.4359,0.0,0.0,6.4551,6.4589,6.382,6.1935,6.2166,6.3243,6.5128,0.0,0.0,7.5284,7.8477,8.1131,8.3247,8.3478,8.467,8.6786,8.8055,8.9017,8.9633,9.071,9.121,9.1248,9.1864,9.2172,9.221,9.3056,9.3903,9.4672,9.4903,9.5518,9.6288,9.6288,9.6288,9.6288,4.6009,0.0,0.0,4.8971,0.0,0.0,5.2664,0.0,0.0,6.3243,6.759,0.0,7.336,7.5707,7.6899,7.6399,7.5284,0.0,0.0,0.0,0.0,6.4012,6.2974,6.1281,5.8704,5.7473,0.0,5.4857,0.0,0.0,5.5011,0.0,0.0,0.0,0.0,5.7665,0.0,5.9704,6.105,6.2666,6.3128,0.0,0.0,6.4628,6.5128,6.5705,6.4282,6.382,6.3858,6.3858,6.4128,6.4436,6.4436,6.4782,6.5397,6.6513,6.759,6.8667,6.9898,7.1552,7.2899,7.2783,7.3129,7.3245,7.2245,7.3168,7.3783,0.0,0.0,0.0,0.0,0.0,0.0,0.0,0.0,0.0,0.0,0.0,0.0,0.0,6.4166,0.0,6.3358,6.3089,6.232,6.0896,6.1935,6.2897,0.0,0.0,0.0,7.3553,7.8361,8.1593,8.3016,8.4516,8.5593,8.6324,8.794,8.894,8.944,9.0633,9.121,9.1248,9.2133,9.2479,9.2595,9.3787,9.4557,9.5018,9.5403,9.5865,9.6288,9.6288,9.6288,9.6288,0.0,0.0,0.0,0.0,0.0,0.0,0.0,5.8511,0.0,6.5089,0.0,7.2322,7.2937,7.6399,7.8631,7.8515,0.0,7.5322,7.3014,7.2052,6.9783,6.5782,6.5282,6.3858,6.1204,5.9473,0.0,0.0,0.0,5.5126,5.5703,0.0,0.0,0.0,0.0,0.0,0.0,6.0589,6.1858,6.332,6.3435,6.3551,6.3743,6.4589,6.5397,6.6051,6.6205,6.5743,6.5089,6.5089,6.559,6.6244,6.6244,6.632,6.6821,6.9052,6.9244,6.909,7.0629,7.1629,7.2437,7.3399,7.3668,7.3707,7.3822,7.3822,7.3822,7.3822,7.3129,7.2437,0.0,0.0,0.0,0.0,0.0,0.0,0.0,0.0,0.0,0.0,0.0,0.0,6.3397,6.1897,6.0935,6.0819,6.2166,6.2704,0.0,0.0,0.0,7.2168,7.8246,8.19,8.2785,0.0,8.6632,8.5747,8.7863,8.8902,8.9094,9.0556,9.1248,9.1402,9.2172,9.2633,9.2941,9.4403,9.5057,9.5249,9.6019,9.6288,9.6288,9.6288,9.6288,9.6288,0.0,0.0,0.0,0.0,0.0,5.9781,6.2627,6.5705,6.8475,7.0591,7.5168,7.8015,7.7438,7.8707,7.9285,7.8554,7.8207,0.0,0.0,0.0,0.0,7.0975,6.8859,6.6205,6.2935,6.1204,5.9242,0.0,5.6703,5.628,5.5703,5.628,0.0,0.0,0.0,0.0,6.0627,6.1512,0.0,6.3358,6.4089,6.4782,6.5513,6.6359,6.6744,6.6974,6.7705,6.7859,6.7744,6.7744,6.7859,6.7975,6.7975,6.8475,6.9129,6.959,7.0052,7.0667,7.1706,7.2091,7.2552,7.413,7.4476,7.4668,7.5399,7.5553,7.5553,7.5553,7.4861,7.386,7.2437,0.0,0.0,0.0,0.0,0.0,0.0,0.0,0.0,0.0,0.0,6.4282,0.0,6.2435,6.155,6.0858,6.105,6.1473,0.0,0.0,0.0,0.0,7.5399,0.0,0.0,0.0,8.694,9.0094,8.9825,9.0056,9.0787,9.1056,9.1595,9.2287,9.2441,9.3287,9.4557,9.4864,9.5403,9.6095,9.6249,9.6288,9.6288,9.6288,9.6288,9.6288,0.0,0.0,0.0,0.0,0.0,0.0,0.0,7.1783,0.0,7.236,7.5091,7.6976,7.6553,7.89,8.0323,7.99,7.9438,7.9015,7.8631,7.74,7.5707,7.3591,7.1475,0.0,6.5359,6.3205,6.105,5.8973,5.8088,5.7473,5.7049,5.7473,0.0,0.0,0.0,6.0666,0.0,0.0,0.0,6.4051,6.4936,6.5782,6.659,6.7436,6.8052,6.8513,6.8936,6.936,6.9552,6.8706,6.8398,6.8475,6.8936,6.9052,6.9206,7.0052,7.0591,7.1091,7.1937,7.2514,7.3168,7.4399,7.4399,7.4437,7.5707,7.5668,7.5438,7.5899,7.5322,7.4207,7.2514,7.0129,0.0,0.0,0.0,0.0,0.0,0.0,0.0,0.0,0.0,0.0,0.0,0.0,0.0,0.0,0.0,6.1897,0.0,0.0,0.0,0.0,0.0,0.0,0.0,0.0,0.0,8.9902,8.9902,9.0133,9.0556,9.0979,9.1672,9.2518,9.2941,9.3826,9.5018,9.548,9.5903,9.6288,9.6288,9.6288,9.6288,9.6288,9.6288,9.6288,0.0,5.6934,0.0,0.0,6.5397,0.0,7.1937,7.6053,7.7592,7.4245,7.513,7.6053,7.6053,7.9092,8.1093,8.1093,8.0477,8.0092,8.0092,7.8669,7.713,7.5592,7.3707,7.1206,6.7975,6.5243,6.2935,0.0,5.9396,5.8357,0.0,5.8396,0.0,0.0,0.0,0.0,0.0,0.0,6.332,6.4936,6.582,6.6628,6.7475,6.8359,6.909,6.9706,6.9898,7.036,7.0706,6.9398,6.8936,6.9052,6.9744,6.9629,6.9475,7.0783,7.1321,7.1591,7.2283,7.2976,7.3707,7.4514,7.4207,7.4168,7.5668,7.5476,7.5168,7.5861,7.5322,7.4322,7.2976,7.136,0.0,0.0,0.0,0.0,0.0,0.0,0.0,0.0,0.0,0.0,0.0,0.0,0.0,0.0,0.0,6.2204,6.0858,6.4474,6.7821,0.0,0.0,8.0015,8.4863,0.0,8.8517,8.9248,8.9863,9.0171,9.021,9.1095,9.1941,9.2787,9.3403,9.4172,9.5057,9.5942,9.6288,9.6288,9.6288,9.6288,9.6288,9.6288,9.6288,9.6288,0.0,0.0,0.0,0.0,0.0,0.0,0.0,7.6976,7.9554,7.9131,7.99,8.0516,8.0516,8.0862,8.1093,8.1093,8.1016,8.0977,8.0977,8.0092,7.9131,7.8169,7.5784,7.3245,7.0591,6.7321,6.4436,0.0,0.0,5.8627,0.0,0.0,0.0,0.0,0.0,0.0,0.0,6.2897,6.4205,6.5859,6.6667,6.7513,6.8359,6.9244,6.9629,6.9821,7.0514,7.0821,7.0898,7.0706,7.0667,7.0667,7.0744,7.1283,7.186,7.2014,7.2629,7.3283,7.336,7.3437,7.3707,7.4514,7.463,7.4861,7.5784,7.5938,7.5899,7.5976,7.5322,7.4668,7.4476,7.3091,7.1706,0.0,0.0,0.0,0.0,0.0,0.0,0.0,0.0,0.0,0.0,6.2551,0.0,0.0,6.0935,6.0973,6.0819,6.3358,6.6359,6.9706,0.0,7.8207,8.4863,8.5863,8.7902,9.0979,9.1056,9.1095,9.1133,9.1979,9.2826,9.3595,9.3672,9.4172,9.5057,9.5942,9.6288,9.6288,9.6288,9.6288,9.6288,9.6288,9.6288,9.6288,0.0,0.0,0.0,0.0,0.0,0.0,0.0,7.9169,8.0631,8.0746,8.0977,8.1093,8.1093,8.1093,8.1093,8.1093,8.1093,8.1093,8.1093,8.0785,8.0208,7.9323,7.7323,7.5284,7.3245,6.9898,6.6936,0.0,0.0,0.0,0.0,0.0,0.0,0.0,0.0,6.205,6.2897,6.4282,6.5551,6.6744,6.809,6.8859,6.9321,7.0667,7.1206,7.1321,7.2168,7.2476,7.2476,7.2476,7.1783,7.0975,7.1514,7.1552,7.1629,7.2668,7.3245,7.363,7.4091,7.4591,7.5091,7.5399,7.5476,7.5553,7.5938,7.6015,7.6015,7.6015,7.613,7.6245,7.6245,7.5284,7.4207,0.0,0.0,0.0,0.0,0.0,0.0,0.0,0.0,0.0,0.0,0.0,0.0,0.0,0.0,6.1012,6.155,6.3012,6.5628,6.959,0.0,7.6976,8.3285,8.517,8.7555,9.0441,9.0941,9.1479,9.1979,9.2326,9.321,9.4518,9.5018,9.5441,9.5826,9.6172,9.6288,9.6288,9.6288,9.6288,9.6288,9.6288,9.6288,9.6288,7.0157,0.0,7.1632,0.0,7.6429,7.7284,8.0285,8.1208,8.1739,8.2201,8.214,8.1898,8.1585,8.1323,8.1362,8.1785,8.1362,8.1246,8.1516,8.1246,8.0862,8.0285,7.8823,0.0,7.5592,7.2437,6.959,6.7128,6.482,0.0,0.0,0.0,0.0,0.0,6.232,6.3281,6.4166,6.5897,6.7244,6.8321,6.9552,7.036,7.0937,7.186,7.236,7.2668,7.3283,7.3514,7.3514,7.3553,7.2745,7.1822,7.2399,7.2322,7.2245,7.3514,7.4053,7.4361,7.4938,7.5707,7.6361,7.6361,7.6553,7.6746,7.6746,7.6746,7.6746,7.6746,7.7053,7.7284,7.7284,7.6592,7.5707,7.4861,0.0,0.0,0.0,0.0,0.0,0.0,6.5859,6.5128,6.4666,6.3281,0.0,0.0,0.0,0.0,6.3166,6.3512,0.0,0.0,0.0,0.0,0.0,8.5209,8.7632,8.9902,9.1056,9.1902,9.2518,9.3018,9.4018,9.5403,9.6019,9.6288,9.6288,9.6288,9.6288,9.6288,9.6288,9.6288,9.6288,9.6288,9.6288,9.6288,7.3196,7.4053,7.5354,7.9604,8.0161,8.07,8.2656,8.281,8.3079,8.415,8.4272,8.3854,8.2686,8.1862,8.1977,8.3439,8.2054,8.1516,8.2516,8.167,8.117,0.0,0.0,7.9092,7.7592,7.4861,7.2294,6.9948,0.0,0.0,6.205,0.0,6.1243,6.2166,6.382,6.5051,6.5974,6.7667,6.9321,7.086,7.0898,7.1937,7.336,7.2514,7.2745,7.3514,7.3514,7.3514,7.3514,7.3735,7.3773,7.3735,7.3553,7.4014,7.4668,7.4668,7.5284,7.5976,7.5976,7.663,7.7284,7.7284,7.7861,7.8477,7.8477,7.8477,7.8477,7.8477,7.7861,7.7284,7.7284,7.6592,7.5707,7.4861,0.0,0.0,0.0,0.0,0.0,0.0,6.759,6.6397,6.4743,6.382,0.0,0.0,0.0,0.0,0.0,0.0,0.0,7.0744,7.4207,0.0,8.3516,8.6094,8.8248,8.994,9.1672,9.2479,9.2556,9.421,9.5441,9.6288,9.6288,9.6288,9.6288,9.6288,9.6288,9.6288,9.6288,9.6288,9.6288,9.6288,9.6288,9.6288,7.67,7.7911,7.9226,8.1148,8.1797,8.2266,8.2909,8.3463,8.3956,8.4443,8.4474,8.479,8.5579,8.4298,8.3548,0.0,8.3587,8.3433,0.0,8.2907,8.2414,8.2502,8.1016,7.9984,7.9554,7.6924,7.4624,7.2573,0.0,0.0,0.0,6.4397,6.4436,6.4743,6.582,6.7128,6.8552,6.9667,7.0744,7.1822,7.2437,7.2668,7.2706,7.3707,7.4312,7.4591,7.5207,7.5476,7.5668,7.6198,7.6505,7.671,7.7215,7.632,7.5159,7.5476,7.6284,7.7044,7.6899,7.7476,7.813,7.813,7.8284,7.8477,7.8477,7.8477,7.8669,7.9246,7.9169,7.9015,7.9015,7.8284,7.7438,7.6592,7.4822,0.0,0.0,0.0,0.0,0.0,6.6436,6.6051,0.0,6.4705,0.0,0.0,0.0,0.0,0.0,0.0,0.0,0.0,7.4784,0.0,8.267,8.5824,8.8248,8.9902,9.1056,9.221,9.3364,9.5095,9.6057,9.6288,9.6288,9.6288,9.6288,9.6288,9.6288,9.6288,9.6288,9.6288,9.6288,9.6288,9.6288,9.6288,7.9219,8.0195,8.1172,8.2383,8.2891,8.3376,8.4106,8.4591,8.5211,8.6045,8.6138,8.6662,8.805,8.716,0.0,8.6223,8.563,8.5291,8.5344,8.4449,8.3671,8.3116,8.2011,8.1115,8.0554,0.0,0.0,7.4947,7.1678,6.8987,6.6936,6.6628,6.6782,6.7359,6.8167,6.936,7.081,7.1657,7.2542,7.3388,7.3581,7.3773,7.3937,7.4812,7.5323,7.5662,7.6219,7.6688,7.716,7.7651,7.8103,7.8554,7.9081,7.8434,7.74,7.7151,7.7533,7.8006,7.7784,7.8361,7.8977,7.8977,7.9208,7.9477,7.9477,7.9477,7.9631,8.0169,8.0054,7.9708,7.9361,7.8631,7.7784,7.6938,7.4938,7.3014,7.1591,0.0,0.0,0.0,0.0,0.0,0.0,6.6436,6.6898,0.0,0.0,0.0,0.0,0.0,0.0,7.2706,7.6669,0.0,8.417,8.6978,8.9017,9.0402,9.1287,9.2556,9.421,9.5326,9.598,9.6288,9.6288,9.6288,9.6288,9.6288,9.6288,9.6288,9.6288,9.6288,9.6288,9.6288,9.6288,9.6288,8.0703,8.1094,0.0,0.0,8.3594,0.0,8.5937,8.6194,8.6752,8.8432,8.8741,8.9094,8.9916,9.0039,8.9939,8.9635,0.0,0.0,0.0,8.6164,8.4912,8.3476,8.3137,8.2281,8.0849,7.9777,7.8476,7.6993,7.2738,7.0105,6.9169,6.827,6.8629,7.0014,7.0783,7.1695,7.2762,7.3559,7.4472,7.532,7.4499,7.5154,7.6486,7.5726,7.5895,7.663,7.6597,7.7176,7.7985,7.818,7.8835,7.9516,7.9593,8.0301,8.0782,7.9248,7.8926,7.8968,7.8669,7.9246,7.99,7.99,8.0516,8.1093,8.1093,8.1093,8.1093,8.1093,8.0439,7.9631,7.8823,7.7977,7.7092,7.6245,7.4591,7.3091,7.2168,0.0,0.0,0.0,0.0,0.0,0.0,6.8744,6.909,0.0,0.0,0.0,0.0,0.0,7.1206,7.5938,7.9477,8.3247,8.7363,8.9056,9.0364,9.121,9.221,9.3441,9.4903,9.5018,9.5518,9.6288,9.6288,9.6288,9.6288,9.6288,9.6288,9.6288,9.6288,9.6288,9.6288,9.6288,9.6288,9.6288,0.0,0.0,8.3125,8.3515,8.5195,8.6445,8.6211,8.7791,8.8728,8.7901,8.8884,8.9768,8.9961,9.0586,9.121,9.1783,9.0256,8.8998,8.8369,8.6879,8.5578,8.457,8.3196,8.2276,8.1922,8.1022,7.9699,7.7902,7.6013,7.4611,7.3734,7.2853,7.2619,7.2993,7.3196,7.3773,7.4637,7.4867,7.5482,7.6281,7.6048,7.6221,7.6573,7.6533,7.6657,7.6838,7.6847,7.7508,7.8438,7.895,7.9789,8.0744,8.1382,8.1803,8.1594,7.9661,8.0129,8.1008,8.0008,8.0362,8.0977,8.0823,8.0939,8.1093,8.1093,8.1093,8.1093,8.1093,8.0939,8.0746,8.0516,7.9246,7.7938,7.713,7.4476,7.1975,7.0514,6.8629,0.0,0.0,6.7705,6.8359,6.9013,6.9475,7.0052,0.0,0.0,0.0,0.0,7.4476,7.5745,7.6938,8.09,8.4401,8.7363,8.9056,9.0364,9.1248,9.3364,9.4249,9.4057,9.5403,9.6095,9.6288,9.6288,9.6288,9.6288,9.6288,9.6288,9.6288,9.6288,9.6288,9.6288,9.6288,9.6288,9.6288,8.1601,8.2695,8.3867,8.4648,8.6289,8.7617,8.789,8.9101,8.9804,8.9297,9.0039,9.0742,9.1133,9.1601,9.207,9.2578,9.1367,9.0234,8.9336,8.8086,8.6601,8.4961,8.3984,8.3125,8.2304,8.1445,8.0312,7.8906,7.7932,7.7379,7.7145,7.5509,7.531,7.6355,7.552,7.5939,7.7141,7.7179,7.7276,7.7497,7.7887,7.7809,7.7528,7.7987,7.817,7.8192,7.8184,7.8828,7.9684,8.0039,8.0769,8.1661,8.2132,8.2304,8.2068,8.096,8.1291,8.1848,8.1035,8.1192,8.1516,8.14,8.1362,8.1323,8.1246,8.1246,8.1208,8.1131,8.1093,8.0977,8.0592,7.94,7.7977,7.6361,7.3899,7.1475,6.9398,6.8282,0.0,6.7705,6.9129,7.0475,7.136,7.2476,7.3053,7.2822,0.0,0.0,7.5245,7.8015,7.9592,7.9592,8.3324,8.6555,8.9094,9.0787,9.1864,9.2364,9.3749,9.4364,9.4326,9.5249,9.5903,9.6288,9.6288,9.6288,9.6288,9.6288,9.6288,9.6288,9.6288,9.6288,9.6288,9.6288,9.6288,9.6288,8.2656,8.3398,8.4492,8.6094,8.7226,8.8359,8.9765,9.0234,9.0547,9.1054,9.1445,9.1914,9.2539,9.2734,9.2812,9.2812,9.1875,9.0976,9.0234,8.9258,8.7695,8.539,8.4922,8.4023,8.2539,8.164,8.082,8.0078,7.9297,7.914,7.9609,7.7305,7.7317,7.9208,7.774,7.7943,7.9467,7.9467,7.9228,7.8945,7.9492,7.9375,7.8945,7.9492,7.9687,7.9687,7.9687,8.0273,8.1015,8.1015,8.1562,8.2304,8.2304,8.2304,8.2304,8.2304,8.2176,8.2,8.1805,8.1716,8.1726,8.1726,8.1726,8.1658,8.1466,8.1454,8.14,8.1208,8.117,8.0977,8.0208,7.9246,7.7746,7.5322,7.3283,7.1206,6.8936,0.0,6.8552,6.8936,7.1129,7.2976,7.3976,7.6015,7.6515,7.4591,7.7553,7.8707,7.7053,8.0477,8.2708,8.3247,8.6094,8.8863,9.1556,9.3133,9.3826,9.371,9.398,9.4403,9.498,9.5134,9.5595,9.6288,9.6288,9.6288,9.6288,9.6288,9.6288,9.6288,9.6288,9.6288,9.6288,9.6288,9.6288,9.6288,8.4336,8.5195,8.6094,8.7109,8.8594,8.9687,8.9961,9.125,9.1719,9.039,9.2148,9.3281,9.2656,9.3242,9.3711,9.3711,9.2226,9.125,9.1094,8.9609,8.8203,8.7148,8.4961,8.3672,8.3398,8.2539,8.2031,8.1914,8.1015,8.0664,8.0742,7.9609,7.9257,7.9602,7.9329,7.9363,7.966,7.966,8.003,8.0547,7.9961,8.0078,8.0547,7.9922,7.9687,7.9687,7.9687,8.0273,8.1015,8.1015,8.1562,8.2304,8.2304,8.2304,8.2304,8.2304,8.2264,8.2219,8.2024,8.1821,8.1696,8.1696,8.1696,8.1696,8.1657,8.1644,8.1662,8.1593,8.1593,8.1585,8.14,7.9939,7.8169,7.6361,7.3283,7.0744,6.9667,0.0,6.9206,7.136,7.3206,7.4938,7.6553,7.7053,7.7707,7.8746,7.813,7.8746,8.1208,8.2631,8.4709,8.7594,8.8209,9.0056,9.3287,9.4287,9.4441,9.371,9.5172,9.5595,9.5018,9.5749,9.6172,9.6288,9.6288,9.6288,9.6288,9.6288,9.6288,9.6288,9.6288,9.6288,9.6288,9.6288,9.6288,9.6288,8.4726,8.5976,8.7304,8.8633,8.9883,9.0859,9.1328,9.207,9.2461,9.2148,9.2734,9.3398,9.3945,9.3515,9.3594,9.4531,9.3008,9.2187,9.2656,9.0195,8.8359,8.7539,8.5898,8.457,8.3633,8.2734,8.2304,8.2304,8.1914,8.1719,8.1679,8.082,8.0664,8.1094,8.0625,8.0664,8.1094,8.1094,8.1054,8.1015,8.1054,8.1054,8.1015,8.1054,8.1094,8.1094,8.1094,8.1367,8.1719,8.1719,8.1953,8.2304,8.2304,8.2304,8.2304,8.2304,8.2304,8.2265,8.2187,8.2093,8.2007,8.2007,8.2007,8.2007,8.189,8.1878,8.182,8.1713,8.1685,8.1685,8.1685,8.019,7.8564,7.7343,7.413,0.0,0.0,7.0464,7.1052,7.2706,7.5168,7.7246,7.8515,7.9477,8.0131,8.0477,8.0631,8.1554,8.3593,8.4478,8.6517,8.994,9.1364,9.2826,9.4403,9.5249,9.548,9.5095,9.5942,9.6095,9.5711,9.6134,9.6288,9.6288,9.6288,9.6288,9.6288,9.6288,9.6288,9.6288,9.6288,9.6288,9.6288,9.6288,9.6288,9.6288,8.5625,8.7031,8.8554,9.0039,9.1015,9.1914,9.2773,9.3086,9.3437,9.4101,9.3789,9.4023,9.5351,9.4297,9.4062,9.539,9.4101,9.3398,9.3867,9.1211,8.914,8.8125,8.6679,8.5195,8.3633,8.2734,8.2304,8.2304,8.2304,8.2304,8.2304,8.1601,8.164,8.2265,8.1601,8.1679,8.2304,8.2304,8.1914,8.1367,8.2031,8.1914,8.1367,8.2031,8.2304,8.2304,8.2304,8.2304,8.2304,8.2304,8.2304,8.2304,8.2304,8.2304,8.2304,8.2304,8.2422,8.2578,8.2344,8.2304,8.2304,8.2304,8.2304,8.2304,8.2344,8.2226,8.2141,8.2406,8.2128,8.1894,8.2089,8.0674,7.9141,7.8137,0.0,0.0,0.0,7.2569,7.335,7.4591,7.713,7.9208,8.0285,8.1554,8.2208,8.2016,8.317,8.4362,8.544,8.6247,8.8248,9.1672,9.3864,9.5095,9.5288,9.598,9.6288,9.6288,9.6288,9.6288,9.6288,9.6288,9.6288,9.6288,9.6288,9.6288,9.6288,9.6288,9.6288,9.6288,9.6288,9.6288,9.6288,9.6288,9.6288,9.6288,8.8242,8.9179,9.0117,9.1054,9.1914,9.2812,9.3672,9.4492,9.5039,9.5117,9.5742,9.625,9.6406,9.6289,9.625,9.6406,9.5547,9.4687,9.3945,9.289,9.1562,8.9883,8.6719,8.457,8.3633,8.2734,8.2304,8.2304,8.2304,8.2304,8.2304,8.2226,8.2226,8.2304,8.2226,8.2226,8.2304,8.2304,8.2265,8.2226,8.2265,8.2265,8.2226,8.2265,8.2304,8.2304,8.2304,8.2304,8.2304,8.2304,8.2304,8.2304,8.2304,8.2304,8.2304,8.2304,8.2851,8.332,8.2539,8.2304,8.2304,8.2304,8.2304,8.25,8.3281,8.2851,8.2734,8.4335,8.3396,8.2498,8.3318,8.1873,8.0036,7.8431,0.0,0.0,7.5041,7.4868,7.5687,7.8122,7.9169,8.0323,8.1939,8.2247,8.2939,8.4516,8.4747,8.5517,8.7132,8.8017,9.0056,9.3403,9.448,9.5403,9.6211,9.6288,9.6288,9.6288,9.6288,9.6288,9.6288,9.6288,9.6288,9.6288,9.6288,9.6288,9.6288,9.6288,9.6288,9.6288,9.6288,9.6288,9.6288,9.6288,9.6288,9.6288,8.9258,9.0195,9.1094,9.1953,9.2812,9.3515,9.3867,9.4648,9.539,9.5937,9.582,9.6094,9.7148,9.6328,9.6094,9.7148,9.5976,9.5078,9.4726,9.3906,9.2148,8.9336,8.7461,8.6094,8.5234,8.3828,8.3125,8.3125,8.2578,8.2304,8.2304,8.2304,8.2304,8.2304,8.2304,8.2304,8.2304,8.2304,8.2304,8.2304,8.2304,8.2304,8.2304,8.2304,8.2304,8.2304,8.2304,8.2304,8.2304,8.2304,8.2304,8.2304,8.2304,8.2304,8.2422,8.2969,8.3359,8.3633,8.3867,8.3906,8.3906,8.3906,8.3906,8.3984,8.4336,8.3711,8.3437,8.4648,8.3945,8.3203,8.3554,8.2539,8.1484,8.0859,0.0,7.7479,7.8545,7.8513,7.8856,8.0251,8.1547,8.2516,8.3054,8.3593,8.4401,8.5555,8.6247,8.7286,8.8863,9.0748,9.2633,9.4441,9.5365,9.598,9.6288,9.6288,9.6288,9.6288,9.6288,9.6288,9.6288,9.6288,9.6288,9.6288,9.6288,9.6288,9.6288,9.6288,9.6288,9.6288,9.6288,9.6288,9.6288,9.6288,9.6288,9.6288,9.0117,9.1328,9.2304,9.289,9.3945,9.4726,9.4726,9.5429,9.6211,9.6797,9.6367,9.6406,9.7578,9.6679,9.6445,9.7617,9.664,9.5898,9.5625,9.4531,9.2461,8.9258,8.8086,8.7109,8.6211,8.4765,8.3867,8.3594,8.3008,8.2578,8.2304,8.2304,8.2304,8.2304,8.2304,8.2304,8.2304,8.2304,8.2304,8.2304,8.2304,8.2304,8.2304,8.2304,8.2304,8.2304,8.2304,8.2304,8.2304,8.2304,8.2304,8.2304,8.2304,8.25,8.2812,8.3437,8.3984,8.4531,8.5156,8.5508,8.5586,8.5039,8.4883,8.4961,8.5234,8.4648,8.4336,8.5469,8.4804,8.4101,8.4375,8.3711,8.3047,8.2734,8.1133,8.0312,8.1523,8.1485,8.1558,8.23,8.3603,8.4356,8.4202,8.5241,8.6242,8.705,8.8051,8.9244,9.0748,9.2979,9.4441,9.498,9.5865,9.6288,9.6288,9.6288,9.6288,9.6288,9.6288,9.6288,9.6288,9.6288,9.6288,9.6288,9.6288,9.6288,9.6288,9.6288,9.6288,9.6288,9.6288,9.6288,9.6288,9.6288,9.6288,9.6288,9.1133,9.2695,9.3906,9.3906,9.5351,9.6484,9.6484,9.7187,9.7695,9.7695,9.7695,9.7695,9.7695,9.7695,9.7695,9.7695,9.7695,9.7344,9.6562,9.4883,9.2734,9.0117,8.8398,8.7109,8.6211,8.5351,8.4492,8.3594,8.3594,8.3164,8.2304,8.2304,8.2304,8.2304,8.2304,8.2304,8.2304,8.2304,8.2304,8.2304,8.2304,8.2304,8.2304,8.2304,8.2304,8.2304,8.2304,8.2304,8.2304,8.2304,8.2304,8.2304,8.2304,8.289,8.3594,8.3594,8.4844,8.6211,8.6211,8.6875,8.7109,8.5351,8.4922,8.5156,8.6015,8.5547,8.539,8.7148,8.6133,8.5195,8.6054,8.5508,8.4609,8.375,8.3594,8.3594,8.3633,8.3476,8.3672,8.4531,8.5194,8.5504,8.5504,8.7109,8.8419,8.9234,9.0086,9.1279,9.271,9.4477,9.5249,9.5018,9.5865,9.6288,9.6326,9.6288,9.6288,9.6288,9.6288,9.6288,9.6288,9.6288,9.6288,9.6288,9.6288,9.6288,9.6288,9.6288,9.6288,9.6288,9.6288,9.6288,9.6288,9.6288,9.6288,9.6288,9.2812,9.3554,9.4101,9.4726,9.5742,9.6484,9.6484,9.7187,9.7695,9.7695,9.7695,9.7695,9.7695,9.7695,9.7695,9.7695,9.7695,9.7344,9.6562,9.4883,9.3281,9.1875,9.0156,8.8594,8.7148,8.625,8.539,8.4492,8.3906,8.3164,8.2304,8.2304,8.2617,8.3203,8.2578,8.2656,8.3164,8.2578,8.2304,8.2344,8.2969,8.3203,8.3203,8.3203,8.3203,8.3125,8.2539,8.2304,8.2304,8.2304,8.2304,8.2304,8.2304,8.332,8.4492,8.4492,8.5742,8.7226,8.7812,8.8594,8.8867,8.7148,8.7148,8.7617,8.789,8.7304,8.7226,8.8906,8.7422,8.6094,8.6953,8.6406,8.5547,8.4648,8.4492,8.4922,8.6172,8.6289,8.6719,8.8008,8.8326,8.8378,8.8261,8.8727,8.9348,9.0164,9.1601,9.2949,9.4117,9.5105,9.5863,9.6365,9.648,9.6596,9.6788,9.6442,9.6288,9.6288,9.6288,9.6288,9.6288,9.6288,9.6288,9.6288,9.6288,9.6288,9.6288,9.6288,9.6288,9.6288,9.6288,9.6288,9.6288,9.6288,9.6288,9.6288,9.3125,9.3945,9.457,9.5117,9.6172,9.6953,9.6953,9.7383,9.7695,9.7695,9.7695,9.7695,9.7695,9.7695,9.7695,9.7695,9.7695,9.7344,9.6562,9.5195,9.3867,9.2656,9.125,8.9883,8.8515,8.7617,8.6758,8.5937,8.5078,8.4179,8.332,8.332,8.3594,8.4101,8.3554,8.3633,8.4062,8.3554,8.3125,8.2851,8.3398,8.3398,8.3086,8.3086,8.3086,8.3008,8.25,8.2539,8.2812,8.2812,8.2812,8.2812,8.2812,8.4023,8.5469,8.582,8.7148,8.8594,8.9062,8.9609,8.9765,8.875,8.8867,8.9219,8.9219,8.8828,8.8789,8.9804,8.8789,8.7851,8.8398,8.8047,8.7539,8.6992,8.6914,8.7304,8.8359,8.8476,8.8828,8.9726,9.0114,9.016,8.9691,9.0277,9.0862,9.1369,9.3008,9.4232,9.4765,9.581,9.6563,9.6976,9.686,9.6861,9.7017,9.6745,9.6519,9.6403,9.6403,9.6365,9.6288,9.6288,9.6288,9.6288,9.6288,9.6288,9.6288,9.6288,9.6288,9.6288,9.6288,9.6288,9.6288,9.6288,9.6288,9.6288,9.2656,9.4179,9.5351,9.539,9.6679,9.7695,9.7695,9.7695,9.7695,9.7695,9.7695,9.7695,9.7695,9.7695,9.7695,9.7695,9.7695,9.7383,9.664,9.5781,9.4609,9.3008,9.2109,9.1289,9.0469,8.9375,8.8437,8.7617,8.6797,8.5937,8.5039,8.5039,8.5039,8.5,8.4922,8.4922,8.5,8.4922,8.4453,8.3711,8.3789,8.3359,8.2656,8.2656,8.2656,8.2656,8.2578,8.3047,8.3711,8.3711,8.3789,8.3828,8.375,8.4922,8.6484,8.7265,8.8672,9.0039,9.0117,9.0234,9.0312,9.0234,9.0273,9.0312,9.0156,9.0117,9.0156,9.0234,9.0117,9.0039,9.0117,9.0039,9.0,9.0,9.0,9.0039,9.0117,9.0117,9.0156,9.0234,9.0937,9.1094,9.0312,9.1679,9.2617,9.2695,9.4258,9.5117,9.4961,9.6523,9.7315,9.7082,9.703,9.7043,9.7056,9.7044,9.6876,9.6663,9.6632,9.6519,9.6365,9.6326,9.6326,9.6326,9.6326,9.6288,9.6288,9.6288,9.6288,9.6288,9.6288,9.6288,9.6288,9.6288,9.6288,9.6288,9.4453,9.5508,9.6406,9.7031,9.7461,9.7695,9.7695,9.7695,9.7695,9.7695,9.7695,9.7695,9.7695,9.7695,9.7695,9.7695,9.7695,9.7617,9.7461,9.6679,9.6054,9.5664,9.4804,9.4258,9.4062,9.1211,8.9297,8.8437,8.8242,8.7383,8.5937,8.5937,8.5937,8.5898,8.5195,8.5273,8.5859,8.5195,8.4804,8.4687,8.5351,8.5508,8.5351,8.5351,8.5351,8.5273,8.457,8.4453,8.4609,8.4609,8.5078,8.5508,8.4844,8.582,8.7265,8.7422,8.8672,9.0156,9.082,9.1992,9.289,9.2226,9.2539,9.2695,9.1328,9.1015,9.1211,9.1914,9.0937,9.0195,9.0898,9.0469,9.0,9.0,9.0,9.0234,9.0937,9.1015,9.1289,9.1953,9.2187,9.2226,9.2031,9.2383,9.289,9.3554,9.4609,9.5469,9.6094,9.7109,9.7615,9.7563,9.7383,9.7392,9.7556,9.7389,9.7199,9.6904,9.6906,9.6865,9.6826,9.6634,9.6519,9.6519,9.6365,9.6288,9.6288,9.6288,9.6288,9.6288,9.6288,9.6288,9.6288,9.6288,9.6288,9.6288,9.5117,9.5898,9.664,9.7031,9.7422,9.7695,9.7695,9.7695,9.7695,9.7695,9.7695,9.7695,9.7695,9.7695,9.7695,9.7695,9.7695,9.7695,9.7695,9.6953,9.6484,9.6484,9.5664,9.5195,9.5195,9.3008,9.1445,9.0547,8.9726,8.8867,8.8008,8.8008,8.8008,8.8008,8.7539,8.7344,8.7344,8.6914,8.625,8.5547,8.6015,8.5937,8.5586,8.5586,8.5586,8.5508,8.5078,8.5156,8.5508,8.5508,8.582,8.6133,8.5664,8.6679,8.8164,8.8554,8.9883,9.1328,9.1797,9.289,9.3789,9.332,9.3867,9.4062,9.2304,9.1914,9.2031,9.25,9.1875,9.1367,9.1836,9.1562,9.125,9.125,9.125,9.1406,9.1875,9.1914,9.2109,9.2539,9.2617,9.2773,9.3164,9.3594,9.4023,9.4492,9.5312,9.6015,9.6484,9.7265,9.7695,9.7695,9.761,9.7591,9.7694,9.7581,9.7479,9.7319,9.7255,9.7121,9.6986,9.6831,9.6777,9.6788,9.6673,9.6634,9.6634,9.6634,9.6634,9.6634,9.6634,9.6634,9.6634,9.6634,9.6634,9.6634,9.539,9.6094,9.6719,9.6719,9.7265,9.7695,9.7695,9.7695,9.7695,9.7695,9.7695,9.7695,9.7695,9.7695,9.7695,9.7695,9.7695,9.7695,9.7695,9.707,9.6719,9.6719,9.6015,9.5625,9.5625,9.4765,9.3828,9.2812,9.1211,9.0351,9.0234,9.0234,9.0156,9.0,9.0,8.9609,8.8906,8.8906,8.8125,8.6836,8.6836,8.6406,8.5781,8.5781,8.5664,8.5547,8.5547,8.5937,8.6406,8.6406,8.6523,8.664,8.664,8.7695,8.9101,8.9961,9.125,9.2422,9.2578,9.3359,9.4101,9.3945,9.4687,9.5,9.3398,9.3047,9.3008,9.2851,9.2929,9.3047,9.3047,9.3047,9.3047,9.3047,9.2929,9.2812,9.2812,9.2812,9.2812,9.2812,9.2969,9.332,9.4062,9.4765,9.5273,9.539,9.6094,9.6562,9.6719,9.7344,9.7695,9.7695,9.7695,9.7695,9.7695,9.7712,9.7712,9.7695,9.7539,9.731,9.713,9.7091,9.7069,9.7071,9.7027,9.6999,9.6999,9.6999,9.6999,9.6999,9.6999,9.6999,9.6999,9.6999,9.6999,9.6999,9.6172,9.6992,9.7539,9.7539,9.7617,9.7695,9.7695,9.7695,9.7695,9.7695,9.7695,9.7695,9.7695,9.7695,9.7695,9.7695,9.7695,9.7695,9.7695,9.7617,9.7539,9.7539,9.7422,9.7344,9.7344,9.6562,9.5351,9.3711,9.2734,9.1875,9.1133,9.1133,9.0703,9.0,9.0,8.9922,8.9804,8.9804,8.9687,8.9492,8.9492,8.9414,8.9297,8.9297,8.8828,8.8203,8.8203,8.7812,8.7304,8.7304,8.7773,8.8359,8.8359,8.9023,9.0,9.0859,9.1289,9.164,9.2383,9.3789,9.4844,9.4101,9.5117,9.6054,9.5078,9.4844,9.4648,9.3867,9.4336,9.4844,9.4844,9.4844,9.4844,9.4844,9.4219,9.3711,9.3711,9.3711,9.3711,9.3711,9.4375,9.4883,9.5,9.5117,9.5508,9.6289,9.6445,9.6797,9.75,9.7656,9.7695,9.7695,9.7695,9.7695,9.7695,9.7684,9.7684,9.7695,9.7656,9.7655,9.7611,9.7416,9.7332,9.7349,9.7099,9.6991,9.6991,9.6991,9.6991,9.6991,9.6991,9.6991,9.6991,9.6991,9.6991,9.6991,9.7109,9.7461,9.7695,9.7695,9.7695,9.7695,9.7695,9.7695,9.7695,9.7695,9.7695,9.7695,9.7695,9.7695,9.7695,9.7695,9.7695,9.7695,9.7695,9.7695,9.7695,9.7695,9.7695,9.7695,9.7695,9.6914,9.6133,9.5351,9.4492,9.3867,9.3476,9.2969,9.2539,9.2148,9.1679,9.1172,9.0742,9.0742,9.0469,9.0,9.0,9.0,9.0,9.0,8.9765,8.9414,8.9414,8.9219,8.8906,8.8906,8.914,8.9414,8.9414,9.0039,9.0781,9.1172,9.164,9.2109,9.25,9.3867,9.5117,9.4726,9.5898,9.6953,9.6133,9.6289,9.6211,9.4883,9.4922,9.5195,9.5195,9.5195,9.5195,9.5195,9.4883,9.4648,9.4648,9.4648,9.4648,9.4648,9.4961,9.539,9.5898,9.6328,9.6758,9.7148,9.7187,9.7344,9.7695,9.7695,9.7695,9.7695,9.7695,9.7695,9.7695,9.7695,9.7695,9.7695,9.7695,9.7695,9.7695,9.7617,9.7578,9.7578,9.7422,9.7386,9.7386,9.7386,9.7386,9.7386,9.7386,9.7386,9.7386,9.7386,9.7386,9.7386]},{"header":{"parameterUnit":"m.s-1","parameterCategory":1,"la1":30.6,"la2":28.766,"lo1":-90.7593,"lo2":-88.6598,"dy":0.0162,"dx":0.0183,"nx":116,"ny":114,"refTime":"2023-04-14T12:00:00:Z","depth":0,"parameterNumber":3,"parameterNumberName":"V-component_of_WINDS"},"data":[0.0,0.0,0.0,0.0,0.0,0.0,0.0,0.0,0.0,0.0,0.0,0.0,0.0,0.0,0.0,0.0,0.0,0.0,0.0,0.0,0.0,0.0,0.0,0.0,0.0,0.0,0.0,0.0,0.0,0.0,0.0,0.0,0.0,0.0,0.0,0.0,0.0,0.0,0.0,0.0,0.0,0.0,0.0,0.0,0.0,0.0,0.0,0.0,0.0,0.0,0.0,0.0,0.0,0.0,0.0,0.0,0.0,0.0,0.0,0.0,0.0,0.0,0.0,0.0,0.0,0.0,0.0,0.0,0.0,0.0,0.0,0.0,0.0,0.0,0.0,0.0,0.0,0.0,0.0,0.0,0.0,0.0,0.0,0.0,0.0,0.0,0.0,0.0,0.0,0.0,0.0,0.0,0.0,0.0,0.0,0.0,0.0,0.0,0.0,0.0,0.0,0.0,0.0,0.0,0.0,0.0,0.0,0.0,0.0,0.0,0.0,0.0,0.0,0.0,0.0,0.0,0.0,0.0,0.0,0.0,0.0,0.0,0.0,0.0,0.0,0.0,0.0,0.0,0.0,0.0,0.0,0.0,0.0,0.0,0.0,0.0,0.0,0.0,0.0,0.0,0.0,0.0,0.0,0.0,0.0,0.0,0.0,0.0,0.0,0.0,0.0,0.0,0.0,0.0,0.0,0.0,0.0,0.0,0.0,0.0,0.0,0.0,0.0,0.0,0.0,0.0,0.0,0.0,0.0,0.0,0.0,0.0,0.0,0.0,0.0,0.0,0.0,0.0,0.0,0.0,0.0,0.0,0.0,0.0,0.0,0.0,0.0,0.0,0.0,0.0,0.0,0.0,0.0,0.0,0.0,0.0,0.0,0.0,0.0,0.0,0.0,0.0,0.0,0.0,0.0,0.0,0.0,0.0,0.0,0.0,0.0,0.0,0.0,0.0,0.0,0.0,0.0,0.0,0.0,0.0,0.0,0.0,0.0,0.0,0.0,0.0,0.0,0.0,0.0,0.0,0.0,0.0,0.0,0.0,0.0,0.0,0.0,0.0,0.0,0.0,0.0,0.0,0.0,0.0,0.0,0.0,0.0,0.0,0.0,0.0,0.0,0.0,0.0,0.0,0.0,0.0,0.0,0.0,0.0,0.0,0.0,0.0,0.0,0.0,0.0,0.0,0.0,0.0,0.0,0.0,0.0,0.0,0.0,0.0,0.0,0.0,0.0,0.0,0.0,0.0,0.0,0.0,0.0,0.0,0.0,0.0,0.0,0.0,0.0,0.0,0.0,0.0,0.0,0.0,0.0,0.0,0.0,0.0,0.0,0.0,0.0,0.0,0.0,0.0,0.0,0.0,0.0,0.0,0.0,0.0,0.0,0.0,0.0,0.0,0.0,0.0,0.0,0.0,0.0,0.0,0.0,0.0,0.0,0.0,0.0,0.0,0.0,0.0,0.0,0.0,0.0,0.0,0.0,0.0,0.0,0.0,0.0,0.0,0.0,0.0,0.0,0.0,0.0,0.0,0.0,0.0,0.0,0.0,0.0,0.0,0.0,0.0,0.0,0.0,0.0,0.0,0.0,0.0,0.0,0.0,0.0,0.0,0.0,0.0,0.0,0.0,0.0,0.0,0.0,0.0,0.0,0.0,0.0,0.0,0.0,0.0,0.0,0.0,0.0,0.0,0.0,0.0,0.0,0.0,0.0,0.0,0.0,0.0,0.0,0.0,0.0,0.0,0.0,0.0,0.0,0.0,0.0,0.0,0.0,0.0,0.0,0.0,0.0,0.0,0.0,0.0,0.0,0.0,0.0,0.0,0.0,0.0,0.0,0.0,0.0,0.0,0.0,0.0,0.0,0.0,0.0,0.0,0.0,0.0,0.0,0.0,0.0,0.0,0.0,0.0,0.0,0.0,0.0,0.0,0.0,0.0,0.0,0.0,0.0,0.0,0.0,0.0,0.0,0.0,0.0,0.0,0.0,0.0,0.0,0.0,0.0,0.0,0.0,0.0,0.0,0.0,0.0,0.0,0.0,0.0,0.0,0.0,0.0,0.0,0.0,0.0,0.0,0.0,0.0,0.0,0.0,0.0,0.0,0.0,0.0,0.0,0.0,0.0,0.0,0.0,0.0,0.0,0.0,0.0,0.0,0.0,0.0,0.0,0.0,0.0,0.0,0.0,0.0,0.0,0.0,0.0,0.0,0.0,0.0,0.0,0.0,0.0,0.0,0.0,0.0,0.0,0.0,0.0,0.0,0.0,0.0,0.0,0.0,0.0,0.0,0.0,0.0,0.0,0.0,0.0,0.0,0.0,0.0,0.0,0.0,0.0,0.0,0.0,0.0,0.0,0.0,0.0,0.0,0.0,0.0,0.0,0.0,0.0,0.0,0.0,0.0,0.0,0.0,0.0,0.0,0.0,0.0,0.0,0.0,0.0,0.0,0.0,0.0,0.0,0.0,0.0,0.0,0.0,0.0,0.0,0.0,0.0,0.0,0.0,0.0,0.0,0.0,0.0,0.0,0.0,0.0,0.0,0.0,0.0,0.0,0.0,0.0,0.0,0.0,0.0,0.0,0.0,0.0,0.0,0.0,0.0,0.0,0.0,0.0,0.0,0.0,0.0,0.0,0.0,0.0,0.0,0.0,0.0,0.0,0.0,0.0,0.0,0.0,0.0,0.0,0.0,0.0,0.0,0.0,0.0,0.0,0.0,0.0,0.0,0.0,0.0,0.0,0.0,0.0,0.0,0.0,0.0,0.0,0.0,0.0,0.0,0.0,0.0,0.0,0.0,0.0,0.0,0.0,0.0,0.0,0.0,0.0,0.0,0.0,0.0,0.0,0.0,0.0,0.0,0.0,0.0,0.0,0.0,0.0,0.0,0.0,0.0,0.0,0.0,0.0,0.0,0.0,0.0,0.0,0.0,0.0,0.0,0.0,0.0,0.0,0.0,0.0,0.0,0.0,0.0,0.0,0.0,0.0,0.0,0.0,0.0,0.0,0.0,0.0,0.0,0.0,0.0,0.0,0.0,0.0,0.0,0.0,0.0,0.0,0.0,0.0,0.0,0.0,0.0,0.0,0.0,0.0,0.0,0.0,0.0,0.0,0.0,0.0,0.0,0.0,0.0,0.0,0.0,0.0,0.0,0.0,0.0,0.0,0.0,0.0,0.0,0.0,0.0,0.0,0.0,0.0,0.0,0.0,0.0,0.0,0.0,0.0,0.0,0.0,0.0,0.0,0.0,0.0,0.0,0.0,0.0,0.0,0.0,0.0,0.0,0.0,0.0,0.0,0.0,0.0,0.0,0.0,0.0,0.0,0.0,0.0,0.0,0.0,0.0,0.0,0.0,0.0,0.0,0.0,0.0,0.0,0.0,0.0,0.0,0.0,0.0,0.0,0.0,0.0,0.0,0.0,0.0,0.0,0.0,0.0,0.0,0.0,0.0,0.0,0.0,0.0,0.0,0.0,0.0,0.0,0.0,0.0,0.0,0.0,0.0,0.0,0.0,0.0,0.0,0.0,0.0,0.0,0.0,0.0,0.0,0.0,0.0,0.0,0.0,0.0,0.0,0.0,0.0,0.0,0.0,0.0,0.0,0.0,0.0,0.0,0.0,0.0,0.0,0.0,0.0,0.0,0.0,0.0,0.0,0.0,0.0,0.0,0.0,0.0,0.0,0.0,0.0,0.0,0.0,0.0,0.0,0.0,0.0,0.0,0.0,0.0,0.0,0.0,0.0,0.0,0.0,0.0,0.0,0.0,0.0,0.0,0.0,0.0,0.0,0.0,0.0,0.0,0.0,0.0,0.0,0.0,0.0,0.0,0.0,0.0,0.0,0.0,0.0,0.0,0.0,0.0,0.0,0.0,0.0,0.0,0.0,0.0,0.0,0.0,0.0,0.0,0.0,0.0,0.0,0.0,0.0,0.0,0.0,0.0,0.0,0.0,0.0,0.0,0.0,0.0,0.0,0.0,0.0,0.0,0.0,0.0,0.0,0.0,0.0,0.0,0.0,0.0,0.0,0.0,0.0,0.0,0.0,0.0,0.0,0.0,0.0,0.0,0.0,0.0,0.0,0.0,0.0,0.0,0.0,0.0,0.0,0.0,0.0,0.0,0.0,0.0,0.0,0.0,0.0,0.0,0.0,0.0,0.0,0.0,0.0,0.0,0.0,0.0,0.0,0.0,0.0,0.0,0.0,0.0,0.0,0.0,0.0,0.0,0.0,0.0,0.0,0.0,0.0,0.0,0.0,0.0,0.0,0.0,0.0,0.0,0.0,0.0,0.0,0.0,0.0,0.0,0.0,0.0,0.0,0.0,0.0,0.0,0.0,0.0,0.0,0.0,0.0,0.0,0.0,0.0,0.0,0.0,0.0,0.0,0.0,0.0,0.0,0.0,0.0,0.0,0.0,0.0,0.0,0.0,0.0,0.0,0.0,0.0,0.0,0.0,0.0,0.0,0.0,0.0,0.0,0.0,0.0,0.0,0.0,0.0,0.0,0.0,0.0,0.0,0.0,0.0,0.0,0.0,0.0,0.0,0.0,0.0,0.0,0.0,0.0,0.0,0.0,0.0,0.0,0.0,0.0,0.0,0.0,0.0,0.0,0.0,0.0,0.0,0.0,0.0,0.0,0.0,0.0,0.0,0.0,0.0,0.0,0.0,0.0,0.0,0.0,0.0,0.0,0.0,0.0,0.0,0.0,0.0,0.0,0.0,0.0,0.0,0.0,0.0,0.0,0.0,0.0,0.0,0.0,0.0,0.0,0.0,0.0,0.0,0.0,0.0,0.0,0.0,0.0,0.0,0.0,0.0,0.0,0.0,0.0,0.0,0.0,0.0,0.0,0.0,0.0,0.0,0.0,0.0,0.0,0.0,0.0,0.0,0.0,0.0,0.0,0.0,0.0,0.0,0.0,0.0,0.0,0.0,0.0,0.0,0.0,0.0,0.0,0.0,0.0,0.0,0.0,0.0,0.0,0.0,0.0,0.0,0.0,0.0,0.0,0.0,0.0,0.0,0.0,0.0,0.0,0.0,0.0,0.0,0.0,0.0,0.0,0.0,0.0,0.0,0.0,0.0,0.0,0.0,0.0,0.0,0.0,0.0,0.0,0.0,0.0,0.0,0.0,0.0,0.0,0.0,0.0,0.0,0.0,0.0,0.0,0.0,0.0,0.0,0.0,0.0,0.0,0.0,0.0,0.0,0.0,0.0,0.0,0.0,0.0,0.0,0.0,0.0,0.0,0.0,0.0,0.0,0.0,0.0,0.0,0.0,0.0,0.0,0.0,0.0,0.0,0.0,0.0,0.0,0.0,0.0,0.0,0.0,0.0,0.0,0.0,0.0,0.0,0.0,0.0,0.0,0.0,0.0,0.0,0.0,0.0,0.0,0.0,0.0,0.0,0.0,0.0,0.0,0.0,0.0,0.0,0.0,0.0,0.0,0.0,0.0,0.0,0.0,0.0,0.0,0.0,0.0,0.0,0.0,0.0,0.0,0.0,0.0,0.0,0.0,0.0,0.0,0.0,0.0,0.0,0.0,0.0,0.0,0.0,0.0,0.0,0.0,0.0,0.0,0.0,0.0,0.0,0.0,0.0,0.0,0.0,0.0,0.0,0.0,0.0,0.0,0.0,0.0,0.0,0.0,0.0,0.0,0.0,0.0,0.0,0.0,0.0,0.0,0.0,0.0,0.0,0.0,0.0,0.0,0.0,0.0,0.0,0.0,0.0,0.0,0.0,0.0,0.0,0.0,0.0,0.0,0.0,0.0,0.0,0.0,0.0,0.0,0.0,0.0,0.0,0.0,0.0,0.0,0.0,0.0,0.0,0.0,0.0,0.0,0.0,0.0,0.0,0.0,0.0,0.0,0.0,0.0,0.0,0.0,0.0,0.0,0.0,0.0,0.0,0.0,0.0,0.0,0.0,0.0,0.0,0.0,0.0,0.0,0.0,0.0,0.0,0.0,0.0,0.0,0.0,0.0,0.0,0.0,0.0,0.0,0.0,0.0,0.0,0.0,0.0,0.0,0.0,0.0,0.0,0.0,0.0,0.0,0.0,0.0,0.0,0.0,0.0,0.0,0.0,0.0,0.0,0.0,0.0,0.0,0.0,-1.7793,0.0,0.0,0.0,0.0,0.0,0.0,0.0,0.0,0.0,0.0,0.0,0.0,0.0,0.0,0.0,0.0,0.0,0.0,0.0,0.0,0.0,0.0,0.0,0.0,0.0,0.0,0.0,0.0,0.0,0.0,0.0,0.0,0.0,0.0,0.0,0.0,0.0,0.0,0.0,0.0,0.0,0.0,0.0,0.0,0.0,0.0,0.0,0.0,0.0,0.0,0.0,0.0,0.0,0.0,0.0,0.0,0.0,0.0,0.0,0.0,0.0,0.0,0.0,0.0,0.0,0.0,0.0,0.0,0.0,0.0,0.0,0.0,0.0,0.0,0.0,0.0,0.0,0.0,0.0,0.0,0.0,0.0,0.0,0.0,0.0,0.0,0.0,0.0,0.0,0.0,0.0,0.0,0.0,0.0,0.0,0.0,0.0,0.0,0.0,0.0,0.0,0.0,0.0,0.0,0.0,0.0,0.0,0.0,0.0,0.0,0.0,0.0,0.0,0.0,0.0,0.0,-1.8926,0.0,0.0,0.0,0.0,0.0,0.0,0.0,0.0,0.0,0.0,0.0,0.0,0.0,0.0,0.0,0.0,0.0,0.0,0.0,0.0,0.0,0.0,0.0,0.0,0.0,0.0,0.0,0.0,0.0,0.0,0.0,0.0,0.0,0.0,0.0,0.0,0.0,0.0,0.0,0.0,0.0,0.0,0.0,0.0,0.0,0.0,0.0,0.0,0.0,0.0,0.0,0.0,0.0,0.0,0.0,0.0,0.0,0.0,0.0,0.0,0.0,0.0,0.0,0.0,0.0,0.0,0.0,0.0,0.0,0.0,0.0,0.0,0.0,0.0,0.0,0.0,0.0,0.0,0.0,0.0,0.0,0.0,0.0,0.0,0.0,0.0,0.0,0.0,0.0,0.0,0.0,0.0,0.0,0.0,0.0,0.0,0.0,0.0,0.0,0.0,0.0,0.0,0.0,0.0,0.0,0.0,0.0,0.0,-2.236,-2.2775,-2.3357,-2.1913,-2.157,-2.2143,-2.1328,-2.0498,-1.9844,0.0,0.0,0.0,0.0,0.0,0.0,0.0,0.0,0.0,0.0,0.0,0.0,0.0,0.0,0.0,0.0,0.0,0.0,0.0,0.0,0.0,0.0,0.0,0.0,0.0,0.0,0.0,0.0,0.0,0.0,0.0,0.0,0.0,0.0,0.0,0.0,0.0,0.0,0.0,-1.5639,-1.661,-1.7056,-1.7026,-1.6395,0.0,0.0,0.0,0.0,0.0,0.0,0.0,0.0,0.0,0.0,0.0,0.0,0.0,0.0,0.0,0.0,0.0,0.0,0.0,0.0,0.0,0.0,0.0,0.0,0.0,0.0,0.0,0.0,0.0,0.0,0.0,0.0,0.0,0.0,0.0,0.0,0.0,0.0,0.0,0.0,0.0,0.0,0.0,-1.8795,-1.8596,0.0,0.0,0.0,0.0,0.0,0.0,0.0,0.0,0.0,0.0,0.0,0.0,0.0,0.0,-2.2637,-2.3867,-2.4336,-2.4102,-2.4184,-2.4194,-2.4217,-2.2967,-2.2581,-2.2828,-2.2461,0.0,-1.9546,-2.0062,0.0,0.0,0.0,0.0,0.0,0.0,0.0,0.0,0.0,0.0,0.0,0.0,0.0,0.0,0.0,0.0,0.0,0.0,0.0,0.0,0.0,0.0,0.0,0.0,0.0,0.0,0.0,0.0,0.0,0.0,0.0,0.0,0.0,0.0,0.0,0.0,-1.5375,-1.6059,-1.6566,-1.7133,-1.7594,-1.7705,-1.7099,-1.7101,-1.7391,-1.675,0.0,0.0,0.0,0.0,0.0,0.0,0.0,0.0,0.0,0.0,0.0,0.0,0.0,0.0,0.0,0.0,0.0,0.0,0.0,0.0,0.0,0.0,0.0,0.0,0.0,0.0,0.0,0.0,0.0,0.0,0.0,0.0,0.0,0.0,0.0,0.0,0.0,0.0,0.0,-1.914,-1.9258,-1.9023,-1.9434,-1.9531,0.0,0.0,0.0,0.0,0.0,0.0,0.0,0.0,0.0,-2.2226,-2.3932,-2.4068,-2.275,-2.4488,-2.5099,-2.4297,-2.4429,-2.462,-2.504,-2.3787,-2.3322,-2.3444,-2.248,-2.1278,-1.9874,-2.0295,-1.9978,-1.9278,0.0,0.0,0.0,0.0,-2.0764,-2.1194,0.0,0.0,0.0,0.0,0.0,0.0,0.0,0.0,0.0,0.0,0.0,0.0,0.0,0.0,0.0,-1.587,0.0,0.0,0.0,0.0,0.0,0.0,0.0,0.0,0.0,0.0,0.0,0.0,-1.6515,-1.7327,-1.7836,-1.8196,-1.8531,-1.8798,-1.8504,-1.8198,-1.7796,-1.7018,-1.6769,0.0,0.0,0.0,0.0,0.0,0.0,0.0,0.0,0.0,0.0,0.0,0.0,0.0,0.0,0.0,0.0,0.0,0.0,0.0,0.0,0.0,0.0,0.0,0.0,0.0,0.0,0.0,0.0,0.0,0.0,0.0,0.0,0.0,0.0,0.0,0.0,0.0,0.0,-1.9648,-2.0098,-1.9668,-2.0469,-2.0684,0.0,0.0,0.0,0.0,0.0,0.0,-2.3437,-2.3929,-2.4059,-2.4033,-2.5605,-2.5484,-2.347,-2.5188,-2.5661,-2.5004,-2.4738,-2.4964,-2.5565,-2.4312,-2.371,-2.3782,-2.2558,-2.155,-2.0752,-2.0793,-2.0295,-1.9447,-1.9461,-1.939,-1.9379,-2.0566,-2.1212,-2.1731,0.0,0.0,0.0,0.0,0.0,0.0,0.0,0.0,0.0,0.0,0.0,0.0,0.0,0.0,-1.77,-1.7237,-1.845,-1.8689,0.0,0.0,0.0,0.0,0.0,0.0,0.0,0.0,0.0,-1.6993,-1.7984,-1.8784,-1.9679,-2.0254,-2.0681,-2.0935,-2.0655,-1.9546,-1.7916,-1.6846,-1.6814,-1.7516,0.0,0.0,0.0,0.0,0.0,0.0,0.0,0.0,0.0,0.0,0.0,0.0,0.0,0.0,0.0,0.0,0.0,0.0,0.0,0.0,0.0,0.0,0.0,0.0,0.0,0.0,0.0,0.0,0.0,0.0,0.0,0.0,0.0,0.0,0.0,0.0,0.0,0.0,0.0,-2.0547,-2.1641,0.0,0.0,0.0,0.0,-2.2949,-2.4531,-2.5684,-2.6172,-2.5393,-2.5377,-2.6452,-2.5461,-2.5319,-2.6229,-2.6744,-2.7068,-2.6987,-2.5749,-2.5412,-2.5754,-2.4039,-2.3534,-2.3776,-2.3354,-2.2886,-2.2297,-2.1804,-2.1009,-2.0357,-2.1506,-2.1916,-2.19,-2.2022,-2.2054,-2.207,0.0,0.0,0.0,0.0,0.0,0.0,0.0,0.0,0.0,0.0,0.0,0.0,0.0,-1.9219,-2.0552,-1.9667,-2.1259,-2.0923,-1.783,0.0,0.0,0.0,0.0,0.0,0.0,0.0,-1.6236,-1.8053,-1.9045,-2.0067,-2.0935,-2.1523,-2.1857,-2.1951,-2.2044,-2.163,-2.0735,-1.8798,-1.7847,-1.7502,-1.6181,-1.582,0.0,0.0,0.0,0.0,0.0,0.0,0.0,0.0,0.0,0.0,0.0,0.0,0.0,0.0,0.0,0.0,0.0,0.0,0.0,0.0,0.0,0.0,0.0,0.0,0.0,0.0,0.0,0.0,0.0,0.0,0.0,0.0,0.0,0.0,0.0,0.0,0.0,-2.3027,-2.4453,0.0,-2.3984,-2.4316,-2.4392,-2.395,-2.4911,-2.5595,-2.5743,-2.6032,-2.6215,-2.6182,-2.7146,-2.6729,-2.4739,-2.613,-2.6328,-2.4925,-2.4484,-2.447,-2.444,-2.4079,-2.3848,-2.3768,-2.3861,-2.3554,-2.2953,-2.2712,-2.1699,-2.0275,-2.0529,-2.0558,-2.0514,-2.1481,-2.2146,-2.246,0.0,0.0,0.0,0.0,0.0,0.0,0.0,0.0,0.0,0.0,0.0,-1.6523,-1.8262,-2.09,-2.2262,-2.1587,-2.231,-2.1445,-1.8006,0.0,0.0,0.0,0.0,0.0,0.0,-1.6348,-1.7408,-1.9078,-2.0347,-2.1323,-2.2004,-2.2498,-2.2832,-2.3033,-2.3233,-2.326,-2.306,-2.1403,-1.984,-1.8357,-1.6981,-1.6498,-1.6345,0.0,0.0,0.0,0.0,0.0,0.0,0.0,0.0,0.0,0.0,0.0,0.0,0.0,0.0,0.0,0.0,0.0,0.0,0.0,0.0,0.0,0.0,0.0,0.0,0.0,0.0,0.0,0.0,0.0,0.0,0.0,0.0,0.0,0.0,0.0,-2.4883,-2.5449,-2.65,-2.6767,-2.5937,-2.5706,-2.5541,-2.5069,-2.5809,-2.6349,-2.6696,-2.6783,-2.6617,-2.6349,-2.7327,-2.6617,-2.4062,-2.5464,-2.5464,-2.4062,-2.4168,-2.4209,-2.4222,-2.4516,-2.4543,-2.4369,-2.4556,-2.4369,-2.3915,-2.3808,-2.2899,-2.151,-2.0922,-2.0561,-2.0523,-2.1568,-2.209,-2.24,0.0,0.0,0.0,0.0,0.0,0.0,0.0,0.0,0.0,0.0,-1.543,-1.7773,-2.0275,-2.1841,-2.2715,-2.2699,-2.1571,-2.0051,-1.7963,-1.6583,0.0,0.0,0.0,0.0,-1.6641,-1.8194,-1.9399,-2.0307,-2.175,-2.2619,-2.2913,-2.3233,-2.3688,-2.4249,-2.4249,-2.4422,-2.4676,-2.4382,-2.2752,-2.0227,-1.8424,-1.7836,-1.7849,0.0,0.0,0.0,0.0,0.0,0.0,0.0,0.0,0.0,0.0,0.0,0.0,0.0,0.0,0.0,0.0,0.0,0.0,0.0,0.0,0.0,0.0,0.0,0.0,0.0,0.0,0.0,0.0,0.0,0.0,0.0,0.0,0.0,-2.3174,-2.5042,-2.6734,-2.761,-2.7471,-2.707,-2.6293,-2.589,-2.5881,-2.6232,-2.7354,-2.839,-2.9099,-2.7595,-2.6761,-2.7245,-2.5838,-2.4983,-2.4676,-2.497,-2.4957,-2.4663,-2.4957,-2.509,-2.5104,-2.5384,-2.5518,-2.5518,-2.5518,-2.5358,-2.5077,-2.4783,-2.4502,-2.4128,-2.2926,-2.2458,-2.2418,-2.2124,-2.2017,-2.2004,0.0,0.0,0.0,0.0,0.0,0.0,0.0,0.0,0.0,0.0,-1.6325,-1.8648,-2.0069,-2.3598,-2.4855,-2.2363,-2.2031,-2.0628,-1.7636,0.0,0.0,0.0,0.0,0.0,-1.8551,-1.9435,-2.0508,-2.1817,-2.2873,-2.3541,-2.3848,-2.4356,-2.4796,-2.5157,-2.5384,-2.5638,-2.5892,-2.5598,-2.481,-2.3541,-2.1109,-1.9546,-1.8531,0.0,0.0,0.0,0.0,0.0,0.0,0.0,0.0,0.0,0.0,0.0,0.0,0.0,0.0,0.0,0.0,0.0,0.0,0.0,0.0,0.0,0.0,0.0,0.0,0.0,0.0,0.0,0.0,0.0,0.0,0.0,0.0,-2.2266,-2.1996,-2.488,-2.7035,-2.7156,-2.7744,-2.8114,-2.7916,-2.7865,-2.7431,-2.6556,-2.7055,-2.7082,-2.6574,-2.6226,-2.635,-2.6653,-2.6283,-2.5892,-2.5598,-2.5678,-2.5571,-2.5277,-2.5358,-2.5398,-2.5398,-2.5478,-2.5518,-2.5518,-2.5518,-2.5464,-2.5384,-2.5304,-2.5224,-2.5037,-2.3861,-2.3273,-2.3073,-2.2993,-2.2672,-2.2325,0.0,0.0,0.0,0.0,0.0,0.0,0.0,0.0,0.0,0.0,-1.7031,-1.9278,-2.0128,-2.3551,-2.4544,-2.1841,-2.1024,-1.9453,-1.6643,0.0,0.0,0.0,0.0,-1.8357,-1.988,-2.0855,-2.1884,-2.2979,-2.3754,-2.4342,-2.477,-2.5224,-2.5665,-2.6066,-2.6239,-2.648,-2.6747,-2.6573,-2.6239,-2.5651,-2.3861,-2.2191,-2.0628,-1.9305,-1.8597,-1.817,-1.7221,-1.7034,-1.7074,-1.5899,0.0,0.0,0.0,0.0,0.0,0.0,0.0,0.0,0.0,0.0,0.0,0.0,0.0,0.0,0.0,0.0,0.0,0.0,0.0,0.0,0.0,0.0,0.0,0.0,-2.2766,-2.3598,-2.2689,-2.5477,-2.7738,-2.8267,-2.8553,-2.8676,-2.8676,-2.8213,-2.757,-2.673,-2.7041,-2.6933,-2.6226,-2.6413,-2.652,-2.6573,-2.6694,-2.656,-2.6146,-2.6132,-2.6052,-2.5879,-2.5879,-2.5945,-2.6066,-2.6186,-2.6253,0.0,-2.6253,-2.6172,-2.6052,-2.5932,-2.5812,0.0,0.0,0.0,0.0,0.0,-2.3287,-2.3006,0.0,0.0,0.0,0.0,0.0,0.0,0.0,0.0,0.0,0.0,0.0,-1.9469,-2.0022,-2.2351,-2.2963,-2.0772,-1.9355,-1.7639,0.0,0.0,0.0,-1.6887,-1.8343,-1.9706,-2.0949,-2.2311,-2.3313,-2.3915,-2.4529,-2.5104,-2.5625,-2.5945,-2.64,-2.6921,-2.6921,-2.7081,-2.7362,-2.7362,-2.7188,-2.6881,-2.636,-2.5104,-2.3367,-2.1911,-2.1336,-2.1122,-1.9679,-1.8865,-1.8277,-1.7034,0.0,0.0,0.0,0.0,0.0,0.0,0.0,0.0,0.0,0.0,0.0,0.0,0.0,0.0,0.0,0.0,0.0,0.0,0.0,0.0,0.0,0.0,0.0,0.0,-2.4054,-2.5665,-2.4711,-2.6437,-2.8474,-2.9806,-2.9049,-2.8534,-2.8674,-2.7485,-2.6867,-2.6867,-2.7121,-2.7281,-2.7308,0.0,0.0,0.0,0.0,-2.7028,-2.6547,-2.6507,-2.6493,-2.6493,-2.6493,-2.6627,-2.6881,-2.7148,-2.7268,-2.7268,-2.7268,-2.7094,-2.68,-2.6547,-2.6266,-2.5945,-2.5291,-2.485,-2.4529,-2.4008,-2.3794,-2.3768,0.0,0.0,0.0,0.0,0.0,0.0,0.0,0.0,0.0,-1.4609,-1.7129,-1.8546,-1.7928,-2.1427,-2.2284,-1.8611,-1.8662,-1.7933,0.0,0.0,-1.67,-1.8424,-1.9679,-2.1109,-2.2779,-2.3554,-2.4235,-2.4823,-2.5651,-2.6106,-2.6226,-2.676,-2.7201,-2.7535,-2.7535,-2.7696,-2.7976,-2.7976,-2.7802,-2.7522,-2.7402,-2.6306,-2.4609,-2.3367,-2.2739,-2.2365,-2.1122,-2.0922,-2.0962,-1.9319,-1.8891,-1.8758,-1.7208,0.0,0.0,0.0,0.0,0.0,0.0,0.0,0.0,0.0,0.0,0.0,0.0,0.0,0.0,0.0,0.0,0.0,0.0,0.0,0.0,-2.3403,-2.413,-2.4939,-2.6079,-2.6874,-2.7416,-2.756,-2.7575,-2.7486,-2.7647,-2.7432,-2.7175,-2.7175,-2.7228,-2.7362,-2.7602,-2.7388,0.0,-2.7869,-2.7482,-2.7321,-2.7442,-2.7215,-2.7094,-2.7094,0.0,0.0,-2.7188,-2.7241,-2.7268,-2.7268,-2.7268,-2.7094,-2.6814,-2.676,-2.656,-2.6199,-2.5144,-2.4543,-2.4275,-2.4155,-2.3968,-2.3808,0.0,0.0,0.0,0.0,0.0,0.0,0.0,0.0,0.0,0.0,-1.6348,-1.7404,-1.6716,-1.9703,-2.0364,-1.6572,-1.633,0.0,0.0,-1.6353,-1.7916,-2.0147,-2.1376,-2.2699,-2.4168,-2.4636,-2.5077,-2.5518,-2.6106,-2.6533,-2.6841,-2.7281,-2.7642,-2.7923,-2.7923,-2.8003,-2.8136,-2.8136,-2.8056,-2.7923,-2.7923,-2.7402,-2.6507,-2.5464,-2.4703,-2.4088,-2.3367,-2.2806,-2.2218,-2.0909,-2.0267,-1.9786,-1.845,-1.7729,-1.7235,0.0,0.0,0.0,0.0,0.0,0.0,0.0,0.0,0.0,0.0,0.0,0.0,0.0,0.0,-1.9389,0.0,0.0,-2.2619,-2.4623,-2.5283,-2.5919,-2.7094,-2.7522,-2.7589,-2.7295,-2.7522,-2.7642,-2.7495,-2.7615,-2.7709,-2.7709,-2.7709,-2.7762,-2.7909,-2.7789,-2.7843,-2.8136,-2.7856,-2.7776,-2.7923,-2.7629,-2.7562,-2.7709,-2.7549,-2.7562,-2.7709,-2.7709,-2.7709,-2.7709,-2.7709,-2.7535,-2.7255,-2.7108,-2.6867,-2.6547,-2.5959,-2.5464,-2.5064,-2.4917,-2.477,-2.4636,0.0,0.0,0.0,0.0,0.0,0.0,0.0,0.0,0.0,0.0,-1.5391,-1.6211,-1.563,-1.7834,-1.8229,0.0,0.0,0.0,0.0,-1.7114,-1.9118,-2.1777,-2.2926,-2.4048,-2.5224,-2.5531,-2.5825,-2.6132,-2.648,-2.6881,-2.7362,-2.7655,-2.7909,-2.8136,-2.8136,-2.8136,-2.8136,-2.8136,-2.8136,-2.8136,-2.8136,-2.8136,-2.8056,-2.7281,-2.652,-2.5798,-2.5331,-2.4209,-2.2832,-2.2004,-2.1136,-2.0267,-1.9506,-1.9065,-1.8637,-1.7622,-1.7248,0.0,0.0,0.0,0.0,0.0,0.0,0.0,0.0,0.0,-1.7074,-1.7769,-1.8771,-1.9947,-2.1363,-2.2592,-2.3901,-2.5504,-2.6453,-2.7175,-2.7709,-2.7989,-2.8056,-2.7816,-2.8003,-2.8043,-2.7802,-2.8003,-2.8136,-2.8136,-2.8136,-2.8136,-2.8136,-2.8136,-2.8136,-2.8136,-2.8203,-2.8203,-2.8136,-2.7963,-2.7963,-2.8136,-2.7896,-2.7909,-2.8136,-2.8136,-2.8136,-2.8136,-2.8083,-2.7923,-2.7682,-2.7388,-2.7121,-2.6907,-2.6841,-2.6573,-2.6159,-2.5758,-2.5558,-2.5478,0.0,0.0,0.0,0.0,0.0,0.0,0.0,0.0,0.0,0.0,0.0,0.0,0.0,0.0,0.0,0.0,0.0,0.0,-1.6948,-1.8343,-2.0347,-2.3006,-2.3754,-2.4649,-2.5838,-2.6146,-2.644,-2.672,-2.7281,-2.7589,-2.7655,-2.7949,-2.811,-2.8136,-2.8136,-2.8136,-2.8136,-2.8136,-2.8136,-2.8136,-2.8136,-2.8136,-2.8096,-2.7736,-2.7375,-2.6934,-2.5852,-2.4529,-2.318,-2.2539,-2.1737,-2.0949,-2.0588,-2.0281,-1.976,-1.8357,0.0,-1.6954,-1.6032,-1.5805,-1.6005,-1.6727,-1.6927,-1.7301,0.0,0.0,-1.9332,-2.0441,-2.1189,-2.2017,-2.3247,-2.4422,-2.5531,-2.652,-2.7201,-2.7709,-2.8043,-2.8123,-2.8136,-2.8096,-2.8123,-2.8123,-2.8096,-2.8123,-2.8136,-2.8136,-2.8136,-2.8136,-2.8136,-2.8136,-2.8136,-2.8136,-2.8417,-2.8417,-2.815,-2.839,-2.839,-2.8136,-2.811,-2.811,-2.8136,-2.8136,-2.8136,-2.8123,-2.7856,-2.7722,-2.7682,-2.7388,-2.7241,-2.7188,-2.6921,-2.6947,-2.7028,-2.6213,-2.5745,-2.5504,0.0,0.0,0.0,0.0,0.0,0.0,0.0,0.0,0.0,0.0,0.0,0.0,0.0,0.0,0.0,0.0,0.0,0.0,-1.7022,-1.8741,-2.0735,-2.322,-2.4222,-2.5104,-2.5932,-2.6413,-2.6694,-2.6827,-2.7415,-2.7696,-2.7709,-2.8003,-2.8136,-2.8136,-2.8136,-2.8136,-2.815,-2.8337,-2.831,-2.8163,-2.8337,-2.831,-2.8096,-2.7629,-2.6947,-2.6119,-2.5104,-2.3915,0.0,0.0,-2.1296,-2.0869,-2.0909,-2.0494,-1.976,-1.8637,-1.8009,0.0,-1.6794,-1.6727,-1.6981,0.0,-1.8317,-1.9239,-2.0374,-2.0895,-2.143,-2.2445,-2.326,-2.4102,-2.5104,-2.5972,-2.676,0.0,-2.7802,-2.8003,-2.8123,-2.7989,-2.7762,-2.7415,-2.7522,-2.7762,-2.811,-2.8136,-2.8136,-2.8136,-2.8136,-2.8136,-2.8136,-2.831,-2.8417,-2.8417,-2.8698,-2.8791,-2.8671,-2.8791,-2.8791,-2.8657,-2.8497,-2.8417,-2.8404,-2.823,-2.8136,-2.8136,-2.8003,-2.7963,-2.7949,-2.7829,-2.7776,-2.7762,-2.7642,-2.7562,-2.7415,-2.6533,-2.6239,-2.6226,0.0,0.0,0.0,0.0,0.0,0.0,0.0,0.0,0.0,0.0,0.0,0.0,0.0,0.0,0.0,0.0,0.0,0.0,0.0,-1.855,-2.0641,-2.3086,-2.4329,-2.5277,-2.5945,-2.66,-2.6947,-2.6947,-2.7535,-2.7816,-2.7829,-2.8043,-2.8136,-2.8136,-2.8136,-2.8136,-2.8163,-2.8377,-2.835,-2.8163,-2.839,-2.819,-2.7709,-2.7041,-2.5945,-2.4703,-2.4062,-2.2913,0.0,0.0,-2.0254,-2.0013,-2.0388,-2.0067,-1.9399,-1.8597,-1.8036,-1.7635,-1.7448,-1.7662,0.0,-1.8838,-2.0,-2.1229,-2.2285,-2.2913,-2.3554,-2.4529,-2.5237,-2.5919,-2.672,-2.7228,-2.7642,-2.807,-2.8136,-2.8136,-2.8136,-2.7816,-2.7388,-2.6881,-2.6867,-2.7134,-2.7722,-2.7923,-2.8083,-2.8257,-2.827,-2.831,-2.839,-2.8684,-2.8818,-2.8724,-2.9165,-2.9325,-2.9165,-2.9325,-2.9366,-2.9272,-2.8991,-2.8804,-2.8711,-2.8323,-2.8136,-2.8136,-2.8136,-2.8136,-2.8136,-2.8136,-2.8136,-2.8136,-2.8056,-2.7936,-2.7722,-2.6921,-2.676,-2.6867,0.0,0.0,0.0,0.0,0.0,0.0,0.0,0.0,0.0,0.0,0.0,0.0,0.0,0.0,0.0,0.0,0.0,0.0,0.0,-1.803,-2.012,-2.2766,-2.4008,-2.5064,-2.5932,-2.68,-2.7255,-2.7255,-2.7843,-2.8123,-2.8123,-2.8136,-2.8136,-2.8136,-2.8136,-2.8136,-2.8136,-2.815,-2.815,-2.8136,-2.815,-2.7642,-2.6774,-2.5892,-2.4476,-2.2939,-2.2913,0.0,0.0,0.0,-1.8611,-1.8223,-1.8811,-1.8971,0.0,-1.8237,-1.7435,-1.6927,-1.7782,0.0,-1.9292,-2.1015,-2.2124,-2.3166,-2.4636,-2.5211,-2.5745,-2.6921,-2.7188,-2.7388,-2.7976,-2.8096,-2.8123,-2.8136,-2.8136,-2.8136,-2.8136,-2.7642,-2.7161,-2.6854,-2.6333,-2.6226,0.0,-2.7375,-2.7963,-2.8551,-2.8591,-2.8711,-2.8991,-2.9299,-2.9325,-2.9032,-2.9873,-3.0047,-2.9472,-3.0034,-3.0181,-2.9887,-2.9593,-2.9312,-2.9005,-2.8417,-2.8136,-2.8136,-2.8136,-2.8136,-2.8136,-2.8136,-2.8136,-2.811,-2.7829,-2.7883,-2.8056,-2.7455,-2.7241,-2.7215,0.0,0.0,0.0,0.0,0.0,0.0,0.0,0.0,0.0,0.0,0.0,0.0,0.0,0.0,0.0,0.0,0.0,0.0,0.0,-1.7678,-1.9126,-2.0468,-2.2231,-2.3581,-2.4489,-2.5371,-2.6106,-2.668,-2.7068,-2.7362,-2.7562,-2.7762,-2.7843,-2.7856,-2.8056,-2.8136,-2.8163,-2.8364,-2.8671,-2.8925,-2.7749,-2.7442,-2.7415,-2.4756,-2.302,-2.1817,0.0,0.0,0.0,0.0,0.0,0.0,-1.813,-1.8063,-1.7675,-1.7275,-1.7502,-1.8076,-1.8971,0.0,-2.1577,-2.2966,-2.4115,-2.5197,-2.6279,-2.676,-2.7081,-2.7468,-2.7094,-2.668,-2.6694,-2.6533,-2.652,-2.6921,-2.7308,-2.7696,-2.8083,-2.7802,-2.7228,-2.6346,-2.6413,0.0,0.0,0.0,0.0,-2.8524,-2.8778,-2.9018,-2.9312,-2.9806,-3.002,-2.9913,-3.0394,-3.0555,-3.0354,-3.0555,-3.0595,-3.0488,-3.0007,-2.9619,-2.9312,-2.8724,-2.8457,-2.8444,-2.823,-2.8136,-2.8136,-2.8136,-2.8136,-2.8136,-2.803,-2.8056,-2.8123,-2.7923,-2.7843,-2.7776,0.0,0.0,0.0,0.0,0.0,0.0,0.0,0.0,0.0,0.0,0.0,0.0,0.0,0.0,0.0,0.0,0.0,0.0,0.0,0.0,-1.7626,-1.8769,-1.9999,-2.1162,-2.2178,-2.2953,-2.3674,-2.4342,-2.5064,-2.5558,-2.5865,-2.6373,-2.6667,-2.6774,-2.6961,-2.7161,-2.7362,-2.7468,-2.7535,-2.7495,-2.6239,-2.5625,-2.5197,-2.2712,-2.1082,0.0,0.0,0.0,0.0,0.0,0.0,0.0,-1.7248,-1.7355,-1.7328,-1.7462,-1.8343,-1.9533,-2.0735,-2.2191,-2.3647,-2.4836,-2.5865,-2.676,-2.7428,-2.7642,-2.7615,-2.7295,-2.6613,-2.5919,-2.5424,-2.4997,-2.4957,-2.5651,-2.6079,-2.664,-2.7549,-2.7415,-2.6987,-2.6346,-2.6413,-2.6453,0.0,0.0,0.0,-2.8511,-2.8978,-2.9325,-2.9619,-3.0301,-3.0621,-3.0515,-3.0902,-3.1049,-3.0942,-3.1049,-3.1049,-3.0942,-3.0354,-2.9927,-2.9619,-2.9032,-2.8711,-2.8591,-2.839,-2.8243,-2.8136,-2.8136,-2.8136,-2.8136,-2.8136,-2.8136,-2.8136,-2.8136,-2.8136,-2.807,0.0,0.0,0.0,0.0,0.0,0.0,0.0,0.0,0.0,0.0,0.0,0.0,0.0,0.0,0.0,0.0,0.0,0.0,0.0,0.0,0.0,-1.7595,-1.7538,-1.8023,-1.9212,-1.9813,-2.0281,-2.0615,-2.2017,-2.2873,-2.3207,-2.4062,-2.4609,-2.4903,-2.4917,-2.5237,-2.5732,-2.5451,-2.4877,-2.4128,-2.3741,-2.2445,-2.0668,-1.996,0.0,0.0,0.0,0.0,0.0,0.0,0.0,0.0,-1.6273,-1.6967,-1.7849,-1.8771,-1.9893,-2.1216,-2.2979,-2.4329,-2.5504,-2.6653,-2.7348,-2.7816,-2.8083,-2.7883,-2.7388,-2.6507,-2.5798,-2.5064,0.0,0.0,-2.3541,-2.4449,-2.4663,-2.5237,-2.6707,-2.668,-2.66,0.0,0.0,0.0,0.0,0.0,0.0,-2.8604,0.0,-2.9659,-2.9993,-3.0808,-3.1156,-3.0889,-3.1423,-3.1583,-3.1289,-3.1557,-3.1543,-3.1236,-3.0662,-3.0234,-2.994,-2.9339,-2.8911,-2.8657,-2.8631,-2.8457,-2.819,-2.8177,-2.8163,-2.8163,-2.815,-2.8136,-2.8136,-2.8136,-2.8136,-2.8096,0.0,0.0,0.0,0.0,0.0,0.0,0.0,0.0,0.0,0.0,0.0,0.0,0.0,0.0,0.0,0.0,0.0,0.0,0.0,0.0,0.0,0.0,0.0,0.0,0.0,0.0,0.0,-1.9706,-2.0294,-2.0842,-2.1363,-2.1804,-2.2164,-2.2458,-2.2672,-2.2859,-2.2993,-2.2913,-2.314,-2.3407,0.0,-2.1336,-2.139,0.0,0.0,0.0,0.0,0.0,0.0,0.0,0.0,0.0,0.0,-1.8196,-1.9132,-2.0227,-2.171,-2.3313,-2.4863,-2.6306,-2.7549,-2.8283,-2.8417,-2.8337,-2.8177,-2.7402,-2.6466,-2.5598,-2.4062,-2.2686,0.0,0.0,0.0,-2.3781,-2.509,0.0,-2.7949,-2.8083,0.0,-2.7829,0.0,-2.7989,-2.8136,-2.8551,0.0,0.0,-2.9847,-3.0221,-3.1169,-3.1637,-3.1944,-3.2091,-3.2238,-3.2291,-3.2211,-3.2064,-3.1851,-3.1543,-3.0955,-3.0648,-3.0541,-2.974,-2.9325,-2.9245,-2.9018,-2.8885,-2.8791,-2.8577,-2.8484,-2.847,-2.823,-2.8136,-2.8136,-2.8136,-2.8136,-2.8136,0.0,0.0,0.0,0.0,0.0,0.0,0.0,0.0,0.0,0.0,0.0,0.0,0.0,0.0,0.0,0.0,0.0,0.0,0.0,0.0,0.0,0.0,0.0,0.0,0.0,0.0,0.0,0.0,0.0,0.0,-1.8557,-1.9239,-1.98,-2.0214,-2.0388,-2.0668,-2.1015,-2.0895,0.0,0.0,0.0,0.0,0.0,0.0,0.0,0.0,0.0,0.0,0.0,0.0,0.0,-1.8464,-1.9025,-1.9987,-2.1162,-2.2472,0.0,-2.5398,-2.676,-2.8003,-2.8965,-2.9179,-2.9018,-2.8551,-2.7589,-2.6667,-2.5531,-2.3875,-2.2405,0.0,-2.0307,0.0,0.0,0.0,0.0,0.0,-2.7736,-2.8243,-2.8484,0.0,-2.9112,0.0,-2.9379,-2.9793,-3.0301,0.0,-3.0662,-3.0835,-3.1623,-3.2064,-3.2372,-3.2545,-3.2545,-3.2545,-3.2545,-3.2251,-3.2024,-3.1851,-3.1263,-3.0982,-3.0955,-3.0207,-2.9873,-2.9847,0.0,-2.9232,-2.9205,-2.8925,-2.8804,-2.8778,-2.8604,-2.8537,-2.8537,-2.8537,-2.8457,-2.835,0.0,0.0,0.0,0.0,0.0,0.0,0.0,0.0,0.0,0.0,0.0,0.0,0.0,0.0,0.0,0.0,0.0,0.0,0.0,0.0,0.0,0.0,0.0,0.0,0.0,0.0,0.0,0.0,0.0,0.0,0.0,0.0,0.0,0.0,0.0,0.0,0.0,0.0,0.0,0.0,0.0,0.0,0.0,0.0,0.0,0.0,0.0,0.0,0.0,0.0,-1.9279,-1.9826,-2.0828,-2.2124,-2.3567,-2.505,-2.6293,-2.7428,-2.8591,-2.9513,-3.0074,-2.974,-2.9339,-2.8577,-2.68,-2.5745,-2.4449,-2.1951,0.0,-2.008,-1.9052,-1.9172,-2.0027,-2.1871,0.0,-2.4529,-2.7134,-2.7976,-2.8657,-2.9553,-3.014,-3.0501,-3.0581,-3.0849,-3.1249,-3.1797,-3.1597,-3.157,-3.1824,-3.2332,-3.2625,-3.2666,-3.2666,-3.2639,-3.2599,-3.2345,-3.2185,-3.2091,-3.1543,-3.1263,-3.1209,-3.0662,-3.0421,-3.0394,0.0,0.0,-2.9633,-2.9339,-2.9192,-2.9152,-2.9112,-2.9072,-2.9045,-2.9045,-2.8885,-2.8657,0.0,0.0,0.0,0.0,0.0,0.0,0.0,0.0,0.0,0.0,-1.2891,-1.2891,0.0,0.0,0.0,0.0,0.0,0.0,0.0,0.0,0.0,0.0,0.0,0.0,0.0,0.0,0.0,0.0,0.0,0.0,0.0,0.0,0.0,0.0,0.0,0.0,0.0,0.0,0.0,0.0,0.0,0.0,0.0,0.0,0.0,0.0,0.0,0.0,0.0,0.0,-2.0134,-2.1456,-2.3086,-2.4436,-2.5705,-2.7175,-2.8283,-2.9219,-3.0154,-3.0875,-3.1236,-3.0702,-2.9793,-2.8577,-2.68,-2.4796,0.0,0.0,-1.9786,-1.8811,-1.8597,-1.9199,-2.0468,-2.2726,0.0,0.0,0.0,0.0,-2.9579,0.0,0.0,0.0,0.0,0.0,0.0,0.0,0.0,-3.2692,-3.2746,-3.2853,-3.3013,-3.3253,-3.3253,-3.3146,-3.2906,-3.2853,-3.2585,-3.2104,-3.1757,-3.1463,-3.1209,-3.0875,-3.0715,-3.0715,-3.0608,0.0,-3.0541,-3.0247,-2.998,-2.974,-2.9499,-2.9259,-2.9045,-2.9045,-2.9005,-2.8938,0.0,0.0,0.0,0.0,0.0,0.0,0.0,-1.2891,-1.2891,-1.2891,-1.2891,-1.2891,-1.2891,-1.2891,-1.2891,0.0,0.0,0.0,0.0,0.0,0.0,0.0,0.0,0.0,0.0,0.0,0.0,0.0,0.0,0.0,0.0,0.0,0.0,0.0,0.0,0.0,0.0,0.0,0.0,0.0,0.0,0.0,0.0,0.0,0.0,0.0,0.0,0.0,0.0,0.0,-2.0214,-2.1937,-2.4182,-2.5798,-2.7121,-2.8457,-2.9366,-3.0127,-3.1009,-3.1677,-3.1944,-3.1209,-2.9913,-2.819,-2.5798,0.0,0.0,0.0,-1.8744,-1.821,-1.805,-1.8865,0.0,0.0,0.0,0.0,0.0,0.0,0.0,0.0,0.0,0.0,0.0,0.0,0.0,0.0,0.0,-3.32,-3.32,-3.32,-3.3267,-3.3414,-3.3414,-3.3347,-3.32,-3.3053,-3.2839,-3.2559,-3.2265,-3.2051,-3.1904,-3.161,-3.1476,-3.1463,-3.1156,0.0,-3.0996,-3.0702,-3.0501,-3.0354,-3.0221,-2.998,-2.9726,-2.9726,-2.9526,-2.9232,0.0,0.0,0.0,0.0,0.0,0.0,0.0,-1.2891,-1.2891,-1.2891,-1.2891,-1.2891,-1.2891,-1.2891,-1.2891,0.0,0.0,0.0,0.0,0.0,0.0,0.0,0.0,0.0,0.0,0.0,0.0,0.0,0.0,0.0,0.0,0.0,0.0,0.0,0.0,0.0,0.0,0.0,0.0,0.0,0.0,0.0,0.0,0.0,0.0,0.0,0.0,0.0,0.0,0.0,-1.9773,-2.151,-2.3901,-2.6066,-2.7883,-2.8831,-2.9833,-3.0808,-3.1557,-3.2238,-3.2492,-3.1476,-2.986,-2.7749,-2.4863,-2.2686,0.0,0.0,-1.8036,-1.7889,-1.7716,0.0,-1.9693,0.0,-2.1937,-2.3607,0.0,0.0,0.0,0.0,0.0,0.0,0.0,0.0,0.0,0.0,0.0,0.0,-3.3414,-3.3414,-3.3414,-3.3414,-3.3414,-3.3414,-3.3414,-3.3187,-3.304,-3.2973,-3.2746,-3.2612,-3.2532,-3.2305,-3.2198,-3.2171,-3.1704,0.0,0.0,-3.1196,-3.1036,-3.0982,-3.0902,-3.0715,-3.0448,-3.0381,-3.0074,-2.9619,0.0,0.0,0.0,0.0,0.0,0.0,0.0,-1.2891,-1.2891,-1.2891,-1.2891,-1.2891,-1.2891,-1.2891,-1.2891,0.0,0.0,0.0,0.0,0.0,0.0,0.0,0.0,0.0,0.0,0.0,0.0,0.0,0.0,0.0,0.0,0.0,0.0,0.0,0.0,0.0,0.0,0.0,0.0,0.0,0.0,0.0,0.0,0.0,0.0,0.0,0.0,0.0,0.0,0.0,0.0,-1.984,-2.1416,-2.4583,-2.7722,-2.7829,0.0,0.0,-3.1971,-3.2679,-3.2986,-3.1583,-2.97,-2.7482,-2.481,0.0,-1.9987,-1.8718,-1.8009,-1.7702,-1.7956,0.0,0.0,0.0,0.0,-2.3768,0.0,0.0,0.0,0.0,0.0,0.0,0.0,0.0,0.0,0.0,0.0,0.0,-3.3414,-3.3414,-3.3414,-3.3414,-3.3414,-3.3414,-3.3414,-3.3387,-3.324,-3.2973,-3.2959,-3.2799,-3.2545,-3.2519,-3.2505,-3.2505,-3.2452,0.0,0.0,-3.2104,-3.1824,-3.157,-3.1289,-3.1009,-3.0715,-3.0461,-3.0327,-3.0194,0.0,0.0,0.0,0.0,0.0,0.0,-1.2891,-1.2891,-1.2891,-1.2891,-1.2891,-1.2891,-1.2891,-1.2891,-1.2891,-1.2891,0.0,0.0,0.0,0.0,0.0,0.0,0.0,0.0,0.0,0.0,0.0,0.0,0.0,0.0,0.0,0.0,0.0,0.0,0.0,0.0,0.0,0.0,0.0,0.0,0.0,0.0,0.0,0.0,0.0,0.0,0.0,0.0,0.0,0.0,0.0,0.0,-1.8971,-2.139,0.0,0.0,-2.8297,-3.0114,-3.1476,-3.2612,-3.3053,-3.1583,-2.9406,-2.6974,-2.4502,0.0,-1.9426,-1.8424,-1.8036,-1.7903,-1.8023,-1.8531,-1.9265,0.0,-2.0788,0.0,-2.4369,-2.5678,-2.7335,0.0,0.0,0.0,0.0,0.0,0.0,0.0,0.0,0.0,-3.3427,-3.3414,-3.3414,-3.3414,-3.3414,-3.3414,-3.3414,-3.3414,-3.336,-3.324,-3.324,-3.3173,-3.3066,-3.3066,-3.2973,-3.2799,-3.2799,0.0,0.0,-3.2144,-3.1931,-3.1664,-3.1543,-3.1316,-3.1036,-3.0929,-3.0768,-3.0568,0.0,0.0,0.0,0.0,0.0,-1.2891,-1.2891,-1.2891,-1.2891,-1.2891,-1.2891,-1.2891,-1.2891,-1.2891,-1.2891,-1.2891,-1.2891,0.0,0.0,0.0,0.0,0.0,0.0,0.0,0.0,0.0,0.0,0.0,0.0,0.0,0.0,0.0,0.0,0.0,0.0,0.0,0.0,0.0,0.0,0.0,0.0,0.0,0.0,0.0,0.0,0.0,0.0,0.0,0.0,0.0,0.0,0.0,0.0,0.0,0.0,0.0,-2.6627,-2.8738,-3.0528,-3.1998,-3.2706,-3.1423,-2.9032,-2.644,-2.4262,-2.1483,-1.9145,-1.8343,-1.8103,-1.805,-1.805,-1.845,-1.9011,-1.9693,-1.9947,-2.0855,-2.314,-2.4289,-2.5905,0.0,0.0,0.0,0.0,0.0,0.0,0.0,0.0,0.0,0.0,-3.1591,-3.1731,-3.3414,-3.3414,-3.3414,-3.3414,-3.3414,-3.3414,-3.3414,-3.3414,-3.3414,-3.3414,-3.3414,-3.3293,-3.3106,0.0,0.0,0.0,-3.2265,-3.2064,-3.1784,-3.1704,-3.1543,-3.1343,-3.1263,-3.1089,-3.0875,0.0,0.0,0.0,0.0,0.0,0.0,-1.2891,-1.2891,-1.2891,-1.2891,-1.2891,-1.2891,-1.2891,-1.2891,-1.2891,-1.2891,-1.2891,0.0,0.0,0.0,0.0,0.0,0.0,0.0,0.0,0.0,-1.4579,-1.312,-1.4081,0.0,0.0,0.0,0.0,0.0,0.0,0.0,0.0,0.0,0.0,0.0,0.0,0.0,-1.5832,0.0,0.0,0.0,0.0,0.0,0.0,0.0,0.0,0.0,0.0,0.0,0.0,0.0,-2.473,-2.7976,-2.9179,-3.0782,-3.1904,-3.1022,-2.8577,-2.5932,-2.4168,-2.1483,-1.9199,-1.8611,-1.825,-1.805,-1.805,-1.829,-1.8784,-1.9653,-2.0294,-2.139,-2.3474,-2.477,0.0,0.0,0.0,0.0,0.0,0.0,0.0,0.0,0.0,0.0,0.0,-2.7333,-2.795,-3.3227,-3.3414,-3.3414,-3.3414,-3.3414,-3.3414,-3.3414,-3.3414,-3.3414,-3.3414,-3.3414,-3.3414,0.0,0.0,0.0,0.0,-3.2666,-3.2372,-3.2064,-3.1784,-3.1664,-3.1623,-3.133,-3.1223,-3.1183,0.0,0.0,0.0,0.0,0.0,0.0,0.0,-1.2891,-1.2891,-1.2891,-1.2891,-1.2891,-1.2891,-1.2891,-1.2891,-1.2891,-1.2891,0.0,0.0,0.0,0.0,0.0,0.0,0.0,0.0,0.0,-1.4861,-1.3939,-1.4154,-1.4016,-1.3507,-1.3694,0.0,0.0,0.0,0.0,0.0,0.0,0.0,0.0,0.0,-1.5444,-1.5551,0.0,0.0,0.0,0.0,0.0,0.0,0.0,0.0,0.0,0.0,0.0,0.0,-1.9145,-2.1871,0.0,-2.6092,-2.7455,-2.823,-2.7161,-2.5585,-2.3941,-2.2565,-2.0762,-1.9252,-1.8865,-1.8718,-1.8651,-1.8651,-1.8891,-1.9439,-2.0521,-2.0855,-2.1483,-2.2939,0.0,0.0,0.0,0.0,0.0,0.0,0.0,0.0,0.0,0.0,0.0,0.0,-2.6072,-2.6358,-2.7913,-2.977,-3.0717,-3.0546,-3.0546,-3.1567,-3.3414,-3.1567,-3.1567,-3.3414,-3.1365,0.0,0.0,0.0,0.0,0.0,-2.7214,-2.7037,-2.6782,-2.6549,-2.646,-2.6438,-2.6183,-2.7256,-2.8809,0.0,0.0,0.0,0.0,0.0,0.0,0.0,-1.2891,-1.2891,-1.2891,-1.2891,-1.2891,-1.2891,-1.2891,-1.2891,-1.2891,-1.2891,0.0,0.0,0.0,0.0,0.0,0.0,0.0,0.0,-1.5694,-1.5519,-1.4883,-1.503,-1.4814,-1.4198,-1.4034,-1.4015,-1.4082,0.0,0.0,0.0,0.0,0.0,0.0,-1.499,-1.5204,-1.5418,0.0,0.0,0.0,0.0,0.0,0.0,0.0,0.0,0.0,0.0,0.0,0.0,0.0,-1.9599,-2.1657,0.0,-2.5184,-2.5985,-2.5264,-2.4022,-2.2726,-2.1777,-2.0414,-1.9279,-1.8985,-1.8918,-1.8918,-1.8918,-1.9078,-1.9506,-2.0468,-2.0708,-2.1269,-2.2659,0.0,0.0,0.0,0.0,0.0,0.0,0.0,0.0,0.0,0.0,0.0,0.0,-2.3349,-2.2583,-2.2319,-2.5985,-2.7947,-2.7802,-2.7725,-2.8698,-3.0331,-2.8495,-2.8698,-3.0331,-2.8495,0.0,0.0,0.0,0.0,0.0,-2.4861,-2.4528,-2.4307,-2.4097,-2.4016,-2.3986,-2.3961,-2.4851,-2.6409,0.0,0.0,0.0,0.0,0.0,0.0,0.0,-1.2891,-1.2891,-1.2891,-1.2891,-1.2891,-1.2891,-1.2891,-1.2891,-1.2891,0.0,0.0,0.0,0.0,0.0,0.0,0.0,0.0,0.0,-1.6269,-1.6484,-1.595,-1.638,-1.6253,-1.5453,-1.4951,-1.4561,-1.4277,-1.4179,0.0,0.0,0.0,0.0,0.0,-1.4509,-1.4843,0.0,0.0,0.0,0.0,0.0,0.0,0.0,0.0,0.0,0.0,0.0,0.0,0.0,0.0,0.0,0.0,0.0,-2.3554,-2.4636,-2.4623,-2.338,-2.2017,-2.147,-2.0294,0.0,-1.8985,-1.8918,-1.8931,-1.8985,-1.8971,-1.9172,-1.9813,-2.0026,-2.0684,-2.2563,-2.409,0.0,0.0,0.0,0.0,0.0,0.0,0.0,0.0,0.0,0.0,0.0,-1.9383,-1.7738,-1.7446,-2.2328,-2.4914,-2.5092,-2.4893,-2.5009,-2.5215,-2.5009,-2.5009,-2.5215,-2.5009,0.0,0.0,0.0,0.0,0.0,-2.4283,-2.4144,-2.3737,-2.3542,-2.3661,-2.3622,-2.3415,-2.3521,-2.3706,0.0,0.0,0.0,0.0,0.0,0.0,0.0,0.0,0.0,0.0,-1.2891,-1.2891,-1.2891,-1.2891,-1.2891,0.0,0.0,0.0,0.0,0.0,0.0,0.0,0.0,0.0,0.0,-1.6269,-1.6552,-1.6276,-1.734,-1.7706,-1.7383,-1.6642,-1.6052,-1.5731,-1.4599,-1.3961,0.0,0.0,0.0,0.0,-1.4429,-1.4603,0.0,0.0,0.0,0.0,-1.5752,-1.5832,0.0,0.0,0.0,0.0,0.0,0.0,0.0,0.0,-1.7675,-1.8303,-1.8985,0.0,-2.0321,-2.0094,-1.9893,-1.9653,0.0,-1.9118,0.0,0.0,0.0,-1.9065,-1.9506,-1.9412,-1.9679,-2.0935,-2.0017,-1.9567,-2.115,0.0,0.0,0.0,0.0,0.0,0.0,0.0,0.0,0.0,0.0,0.0,0.0,-1.8302,-1.7772,-1.7602,-1.8718,-2.0197,-2.1994,-2.2158,-2.3165,-2.5215,-2.3156,-2.3165,-2.5215,-2.2949,0.0,0.0,0.0,0.0,-1.8775,-1.8775,-1.8677,-1.8519,-1.8481,-1.8391,-1.827,-1.8225,-1.9524,-2.0984,0.0,0.0,0.0,0.0,0.0,0.0,0.0,0.0,0.0,0.0,0.0,0.0,0.0,0.0,0.0,0.0,0.0,0.0,0.0,0.0,0.0,0.0,0.0,-1.4531,-1.5391,-1.6269,-1.6804,-1.7148,-1.7859,-1.8364,-1.8711,-1.7738,-1.6877,-1.6019,-1.4434,-1.3667,0.0,0.0,0.0,-1.4095,-1.4255,0.0,0.0,0.0,0.0,0.0,-1.5765,-1.5832,0.0,-1.5832,-1.5925,-1.6059,0.0,0.0,0.0,0.0,-1.7382,-1.7662,-1.7796,-1.837,-1.8891,-1.8731,-1.8918,-1.9052,-1.8758,0.0,0.0,0.0,0.0,0.0,-1.8568,-1.8488,-1.8766,-1.9763,-1.8499,-1.8229,0.0,0.0,0.0,0.0,0.0,0.0,0.0,0.0,0.0,0.0,0.0,0.0,0.0,-1.7792,-1.7704,-1.7548,-1.7399,-1.7868,-1.9369,-1.9291,-1.9871,-2.1518,-1.9871,-2.0079,-2.131,-1.9871,-1.9253,0.0,0.0,0.0,-1.6876,-1.6876,-1.6829,-1.6741,-1.6673,-1.6639,-1.6612,-1.6476,-1.7213,-1.8583,0.0,0.0,0.0,0.0,0.0,0.0,0.0,0.0,0.0,0.0,0.0,0.0,0.0,0.0,0.0,0.0,0.0,0.0,0.0,0.0,0.0,0.0,0.0,-1.4629,-1.5488,-1.6309,-1.7148,-1.8008,-1.8304,-1.8988,-1.9798,-1.8748,-1.7347,-1.5755,-1.4149,-1.3493,0.0,0.0,0.0,-1.4082,-1.4082,0.0,0.0,0.0,0.0,0.0,0.0,0.0,0.0,-1.5832,-1.5992,-1.6206,-1.6206,0.0,0.0,0.0,0.0,0.0,-1.7635,-1.8317,-1.8891,-1.8758,-1.9011,-1.9212,-1.8865,0.0,0.0,0.0,0.0,0.0,0.0,0.0,0.0,0.0,0.0,0.0,0.0,0.0,0.0,0.0,0.0,0.0,0.0,0.0,0.0,0.0,0.0,0.0,0.0,-1.7717,-1.7582,-1.7426,-1.727,-1.7182,-1.7161,-1.7039,-1.6978,-1.6978,-1.6978,-1.6978,-1.6978,-1.6978,-1.6978,0.0,0.0,0.0,-1.6788,-1.6788,-1.6768,-1.6741,-1.6632,-1.6659,-1.672,-1.6497,-1.6476,-1.6537,0.0,0.0,0.0,0.0,0.0,0.0,0.0,0.0,0.0,0.0,0.0,0.0,0.0,0.0,0.0,0.0,0.0,0.0,0.0,0.0,0.0,-1.4068,-1.4492,-1.5078,-1.5937,-1.6465,-1.7148,-1.8008,-1.95,-2.0487,-2.0909,-2.0492,-1.8515,-1.5358,-1.4825,-1.4066,-1.328,0.0,0.0,-1.4082,-1.4082,0.0,0.0,0.0,0.0,0.0,0.0,0.0,0.0,-1.5832,-1.5858,-1.5899,-1.5899,0.0,0.0,0.0,0.0,0.0,-1.8196,-1.8637,-1.8744,-1.7983,-1.8397,-1.8851,0.0,0.0,0.0,0.0,0.0,0.0,0.0,0.0,0.0,0.0,0.0,0.0,0.0,0.0,0.0,0.0,0.0,0.0,0.0,0.0,0.0,0.0,0.0,0.0,0.0,-1.7717,-1.7582,-1.7426,-1.727,-1.7134,-1.7012,-1.6992,-1.6978,-1.6978,-1.6978,-1.6978,-1.6978,-1.6978,-1.6978,0.0,0.0,-1.6965,-1.6944,-1.6944,-1.687,-1.6761,-1.687,-1.6842,-1.6761,-1.6849,-1.6809,-1.6693,0.0,0.0,0.0,0.0,0.0,0.0,0.0,0.0,0.0,0.0,0.0,0.0,0.0,0.0,0.0,0.0,0.0,0.0,0.0,0.0,0.0,-1.4068,-1.5,-1.5664,-1.6115,-1.6738,-1.7617,-1.8691,-1.9961,-2.1035,-2.1831,-2.0495,-1.8493,-1.584,-1.4713,-1.3777,-1.2973,-1.3133,-1.3454,-1.3868,0.0,0.0,0.0,0.0,0.0,0.0,0.0,0.0,0.0,0.0,-1.5939,-1.6046,-1.5885,0.0,0.0,0.0,0.0,0.0,-1.7836,-1.8223,-1.8384,-1.8143,-1.8043,-1.7927,0.0,0.0,0.0,0.0,0.0,0.0,0.0,0.0,0.0,0.0,0.0,0.0,0.0,0.0,0.0,0.0,0.0,0.0,0.0,0.0,0.0,0.0,0.0,0.0,0.0,0.0,-1.7453,-1.7304,-1.7154,-1.7046,-1.6978,-1.6978,-1.6978,-1.6978,-1.6978,-1.6978,-1.6978,-1.6978,-1.6978,-1.6978,0.0,-1.6931,-1.6856,-1.6856,-1.6815,-1.6754,-1.6829,-1.6863,-1.6883,-1.6951,-1.6883,-1.6741,0.0,0.0,0.0,0.0,0.0,0.0,0.0,0.0,0.0,0.0,0.0,0.0,0.0,0.0,0.0,0.0,0.0,0.0,0.0,0.0,-1.4126,-1.4277,-1.543,-1.6213,-1.6429,-1.7129,-1.8105,-1.9297,-2.0137,-2.1133,-2.2187,-2.0173,-1.8248,-1.648,-1.4739,-1.3572,-1.2973,-1.3213,-1.348,-1.3761,0.0,0.0,0.0,0.0,0.0,0.0,0.0,0.0,0.0,0.0,0.0,0.0,0.0,0.0,0.0,-1.6647,-1.6807,-1.7048,-1.7635,-1.7969,-1.8127,-1.8138,0.0,0.0,0.0,0.0,0.0,0.0,0.0,0.0,0.0,0.0,0.0,0.0,0.0,0.0,0.0,0.0,0.0,0.0,0.0,0.0,0.0,0.0,0.0,0.0,0.0,0.0,0.0,0.0,-1.7311,-1.7195,-1.7053,-1.6978,-1.6978,-1.6978,-1.6978,-1.6978,-1.6978,-1.6978,-1.6978,-1.6978,-1.6978,-1.6978,-1.6978,-1.691,-1.6802,-1.6802,-1.6802,-1.6802,-1.6802,-1.6876,-1.6978,-1.6978,-1.6904,-1.6802,0.0,0.0,0.0,0.0,0.0,0.0,0.0,0.0,0.0,0.0,0.0,0.0,0.0,0.0,0.0,0.0,0.0,0.0,0.0,0.0,-1.4316,-1.4727,-1.5645,-1.6507,-1.7266,-1.7734,-1.8398,-1.9297,-2.0137,-2.082,-2.1228,-1.9832,-1.8408,-1.6785,-1.5343,-1.4295,-1.3574,-1.3519,-1.3788,-1.4055,-1.4082,0.0,0.0,0.0,0.0,0.0,0.0,0.0,0.0,0.0,0.0,0.0,0.0,0.0,-1.6687,-1.67,-1.7088,-1.7649,-1.8263,-1.8437,-1.8249,-1.7377,0.0,0.0,0.0,0.0,0.0,0.0,0.0,0.0,0.0,0.0,0.0,0.0,0.0,0.0,0.0,0.0,0.0,0.0,0.0,0.0,0.0,0.0,0.0,0.0,0.0,0.0,0.0,0.0,0.0,-1.7195,-1.7053,-1.6978,-1.6978,-1.6978,-1.6978,-1.6978,-1.6978,-1.6978,-1.6978,-1.6978,-1.6978,-1.6978,-1.6978,-1.6971,-1.6965,-1.6965,-1.6965,-1.6965,-1.6965,-1.6971,-1.6978,-1.6978,-1.6971,-1.6965,0.0,0.0,0.0,0.0,0.0,0.0,0.0,0.0,0.0,0.0,0.0,0.0,0.0,0.0,0.0,0.0,0.0,0.0,0.0,-1.3906,-1.4336,-1.4766,-1.5605,-1.6547,-1.7363,-1.8047,-1.8945,-2.0078,-2.0957,-2.0986,-2.0205,-1.9201,-1.7666,-1.5576,-1.479,-1.3964,-1.3106,-1.348,-1.3707,-1.3828,-1.4015,-1.4255,0.0,0.0,0.0,0.0,0.0,0.0,0.0,0.0,-1.5832,-1.5832,-1.5832,-1.6112,-1.6473,-1.6647,-1.6994,-1.7408,-1.7809,-1.7418,-1.6903,-1.6844,0.0,0.0,0.0,0.0,0.0,0.0,0.0,0.0,0.0,0.0,0.0,0.0,0.0,0.0,0.0,0.0,0.0,0.0,0.0,0.0,0.0,0.0,0.0,0.0,0.0,0.0,0.0,0.0,0.0,-1.7066,-1.7012,-1.6978,-1.6978,-1.6978,-1.6978,-1.6978,-1.6978,-1.6978,-1.6978,-1.6978,-1.6978,-1.6978,-1.6978,-1.6978,-1.6978,-1.6978,-1.6978,-1.6978,-1.6978,-1.6978,-1.6978,-1.6978,-1.6978,-1.6978,0.0,0.0,0.0,0.0,0.0,0.0,0.0,0.0,0.0,0.0,0.0,0.0,0.0,0.0,0.0,0.0,0.0,0.0,-1.3867,-1.418,-1.4531,-1.4961,-1.5684,-1.6547,-1.7363,-1.8086,-1.9004,-2.0156,-2.0898,-2.0614,-1.9236,-1.8362,-1.6941,-1.5008,-1.4307,-1.3747,-1.3333,-1.3654,-1.3841,-1.3935,-1.4148,-1.4456,0.0,0.0,0.0,0.0,0.0,0.0,0.0,0.0,-1.5832,-1.5832,-1.5832,-1.6099,-1.6446,-1.6647,-1.6981,-1.7328,-1.7528,-1.6742,-1.5873,-1.5903,0.0,0.0,0.0,0.0,0.0,0.0,0.0,0.0,0.0,0.0,0.0,0.0,0.0,0.0,0.0,0.0,0.0,0.0,0.0,0.0,0.0,0.0,0.0,0.0,0.0,0.0,0.0,0.0,0.0,0.0,-1.6978,-1.6978,-1.6978,-1.6978,-1.6978,-1.6978,-1.6978,-1.6978,-1.6978,-1.6978,-1.6978,-1.6978,-1.6978,-1.6978,-1.6978,-1.6978,-1.6978,-1.6978,-1.6978,-1.6978,-1.6978,-1.6978,-1.6978,-1.6978,0.0,0.0,0.0,0.0,0.0,0.0,0.0,0.0,0.0,0.0,0.0,0.0,0.0,0.0,0.0,0.0,0.0,0.0,-1.4727,-1.4785,-1.498,-1.5391,-1.582,-1.6465,-1.7363,-1.7793,-1.8437,-1.9297,-1.9707,-1.9374,-1.8439,-1.7398,-1.6477,-1.5598,-1.4255,-1.3961,-1.4496,-1.4215,-1.4255,-1.4522,-1.4522,-1.487,-1.5391,0.0,0.0,0.0,0.0,0.0,0.0,0.0,-1.5832,-1.5832,-1.5832,-1.6233,-1.6714,-1.67,-1.7128,-1.7582,-1.7582,-1.6605,-1.5387,-1.4154,0.0,0.0,0.0,0.0,0.0,0.0,0.0,0.0,0.0,0.0,0.0,0.0,0.0,0.0,0.0,0.0,0.0,0.0,0.0,0.0,0.0,0.0,0.0,0.0,0.0,0.0,0.0,0.0,0.0,0.0,-1.6978,-1.6978,-1.6978,-1.6978,-1.6978,-1.6978,-1.6978,-1.6978,-1.6978,-1.6978,-1.6978,-1.6978,-1.6978,-1.6978,-1.6978,-1.6978,-1.6978,-1.6978,-1.6978,-1.6978,-1.6978,-1.6978,-1.6978,-1.6978,0.0,0.0,0.0,0.0,0.0,0.0,0.0,0.0,0.0,0.0,0.0,0.0,0.0,0.0,0.0,0.0,0.0,0.0,-1.4746,-1.4785,-1.498,-1.5391,-1.5527,-1.6016,-1.6914,-1.7637,-1.8437,-1.9297,-1.9014,-1.8344,-1.7242,-1.5966,-1.4959,-1.4159,-1.3763,-1.3665,-1.3921,-1.4255,-1.4442,-1.4536,-1.475,-1.5057,-1.5391,0.0,0.0,0.0,0.0,0.0,0.0,0.0,0.0,0.0,-1.5832,-1.638,-1.6981,-1.6767,-1.7275,-1.7635,-1.6336,-1.5209,0.0,0.0,0.0,0.0,0.0,0.0,0.0,0.0,0.0,0.0,0.0,0.0,0.0,0.0,0.0,0.0,0.0,0.0,0.0,0.0,0.0,0.0,0.0,0.0,0.0,0.0,0.0,0.0,0.0,0.0,0.0,0.0,-1.6978,-1.6978,-1.6978,-1.6978,-1.6978,-1.6978,-1.6978,-1.6978,-1.6978,-1.6978,-1.6978,-1.6978,-1.6978,-1.6978,-1.6978,-1.6978,-1.6978,-1.6978,-1.6978,-1.6978,-1.6978,-1.6978,-1.6978,-1.6978,0.0,0.0,0.0,0.0,0.0,0.0,0.0,0.0,0.0,0.0,0.0,0.0,0.0,0.0,0.0,0.0,0.0,0.0,0.0,-1.5039,-1.5156,-1.5391,-1.5586,-1.6094,-1.6973,-1.7475,-1.7839,-1.8252,-1.8064,-1.7266,-1.5936,-1.5385,-1.4741,-1.4001,-1.4122,-1.4229,-1.4349,-1.4589,-1.4763,-1.4883,-1.5057,-1.5311,-1.5565,0.0,0.0,0.0,0.0,0.0,0.0,0.0,0.0,0.0,-1.5832,-1.6353,-1.6839,-1.6036,-1.6834,-1.7407,-1.5263,0.0,0.0,0.0,0.0,0.0,0.0,0.0,0.0,0.0,0.0,0.0,0.0,0.0,0.0,0.0,0.0,0.0,0.0,0.0,0.0,0.0,0.0,0.0,0.0,0.0,0.0,0.0,0.0,0.0,0.0,0.0,0.0,0.0,-1.6978,-1.6978,-1.6978,-1.6978,-1.6978,-1.6978,-1.6978,-1.6978,-1.6978,-1.6978,-1.6978,-1.6978,-1.6978,-1.6978,-1.6978,-1.6978,-1.6978,-1.6978,-1.6978,-1.6978,-1.6978,-1.6978,-1.6978,-1.6978,0.0,0.0,0.0,0.0,0.0,0.0,0.0,0.0,0.0,0.0,0.0,0.0,0.0,0.0,0.0,0.0,0.0,0.0,0.0,0.0,-1.5352,-1.5294,-1.5679,-1.6316,-1.7081,-1.7037,-1.6795,-1.6349,-1.6795,-1.6228,-1.4817,-1.5316,-1.5218,-1.4536,-1.483,-1.511,-1.5337,-1.511,-1.515,-1.5404,-1.5431,-1.5591,-1.5832,-1.5832,0.0,0.0,0.0,0.0,0.0,0.0,0.0,0.0,-1.5858,-1.6273,-1.6439,-1.5101,-1.6019,-1.6851,-1.4261,0.0,0.0,0.0,0.0,0.0,0.0,0.0,0.0,0.0,0.0,0.0,0.0,0.0,0.0,0.0,0.0,0.0,0.0,0.0,0.0,0.0,0.0,0.0,0.0,0.0,0.0,0.0,0.0,0.0,0.0,0.0,0.0,-1.6978,-1.6965,-1.6958,-1.6958,-1.6958,-1.6958,0.0,-1.6971,-1.6978,-1.6978,-1.6978,-1.6978,-1.6978,-1.6978,-1.6978,-1.6978,-1.6978,-1.6978,-1.6978,-1.6978,-1.6978,-1.6978,-1.6978,-1.6978,-1.6978,0.0,0.0,0.0,0.0,0.0,0.0,0.0,0.0,0.0,0.0,0.0,0.0,0.0,0.0,0.0,0.0,0.0,0.0,0.0,0.0,-1.5118,-1.451,-1.4505,-1.4692,-1.5087,-1.5477,-1.5166,-1.4314,-1.4997,-1.5111,-1.4662,-1.4529,-1.4484,-1.4536,-1.483,-1.5003,-1.507,-1.5231,-1.5337,-1.5418,-1.5645,-1.5778,-1.5832,-1.5832,-1.5832,0.0,0.0,0.0,0.0,0.0,0.0,0.0,-1.6099,-1.658,-1.7048,-1.6741,-1.6549,-1.6081,0.0,-1.3407,0.0,0.0,0.0,0.0,0.0,0.0,0.0,0.0,0.0,0.0,0.0,0.0,0.0,0.0,0.0,0.0,0.0,0.0,0.0,0.0,0.0,0.0,0.0,0.0,0.0,0.0,0.0,0.0,0.0,0.0,0.0,-1.6978,-1.6863,-1.6802,-1.6802,-1.6802,-1.6802,0.0,-1.6924,-1.6978,-1.6978,-1.6978,-1.6978,-1.6978,-1.6978,-1.6978,-1.6978,-1.6978,-1.6978,-1.6978,-1.6978,-1.6978,-1.6978,-1.6978,-1.6978,-1.6978,0.0,0.0,0.0,0.0,0.0,0.0,0.0,0.0,0.0,0.0,0.0,0.0,0.0,0.0,0.0,0.0,0.0,0.0,0.0,0.0,-1.5231,-1.4754,-1.4442,-1.4443,-1.4805,-1.4577,-1.432,-1.3903,-1.4041,-1.4044,0.0,-1.4266,-1.4522,-1.495,-1.5244,-1.5378,-1.5391,-1.5538,-1.5605,-1.5618,-1.5765,-1.5832,-1.5832,-1.5832,-1.5832,-1.5832,-1.5832,0.0,0.0,0.0,0.0,0.0,0.0,0.0,-1.6724,-1.527,-1.5317,-1.5155,0.0,0.0,0.0,0.0,0.0,0.0,0.0,0.0,0.0,0.0,0.0,0.0,0.0,0.0,0.0,0.0,0.0,0.0,0.0,0.0,0.0,0.0,0.0,0.0,0.0,0.0,0.0,0.0,0.0,0.0,0.0,-1.6978,-1.6944,-1.687,-1.6863,-1.6822,-1.6748,-1.6822,-1.6863,-1.6863,-1.6944,-1.6978,-1.6978,-1.6978,-1.6978,-1.6978,-1.6978,-1.6978,-1.6978,-1.6978,-1.6978,-1.6978,-1.6978,-1.6978,-1.6978,-1.6978,-1.6978,-1.6978,0.0,0.0,0.0,0.0,0.0,0.0,0.0,0.0,0.0,0.0,0.0,0.0,0.0,0.0,0.0,0.0,0.0,0.0,0.0,0.0,0.0,-1.4937,-1.4394,-1.4236,-1.4657,-1.3882,-1.3623,-1.3945,-1.3443,0.0,0.0,0.0,-1.4883,-1.5404,-1.5698,-1.5832,-1.5832,-1.5832,-1.5832,-1.5832,-1.5832,-1.5832,-1.5832,-1.5832,-1.5832,-1.5832,-1.5832,-1.5832,-1.5832,-1.5832,0.0,0.0,0.0,0.0,-1.6276,-1.3637,-1.3984,-1.4385,0.0,0.0,0.0,0.0,0.0,0.0,0.0,0.0,0.0,0.0,0.0,0.0,0.0,0.0,0.0,0.0,0.0,0.0,0.0,0.0,0.0,0.0,0.0,0.0,0.0,0.0,0.0,0.0,0.0,0.0,-1.6944,-1.6944,-1.687,-1.6714,-1.6836,-1.6829,-1.6673,-1.6822,-1.689,-1.6863,-1.6917,-1.6944,-1.6944,-1.6971,-1.6978,-1.6978,-1.6978,-1.6978,-1.6978,-1.6978,-1.6978,-1.6978,-1.6978,-1.6978,-1.6978,-1.6978,-1.6978,-1.6978,0.0,0.0,0.0,0.0,0.0,0.0,0.0,0.0,0.0,0.0,0.0,0.0,0.0,0.0,0.0,0.0,0.0,0.0,0.0,0.0,0.0,-1.3377,-1.2684,-1.2428,-1.2659,-1.2586,-1.2662,-1.2974,0.0,0.0,0.0,0.0,0.0,-1.5404,0.0,-1.5832,-1.5832,-1.5832,-1.5832,-1.5832,-1.5832,-1.5832,-1.5832,-1.5832,-1.5832,-1.5832,-1.5832,-1.5832,-1.5832,-1.5832,-1.6005,0.0,0.0,0.0,-1.6819,-1.5458,-1.4473,-1.3591,0.0,0.0,0.0,0.0,0.0,0.0,0.0,0.0,0.0,0.0,0.0,0.0,0.0,0.0,0.0,0.0,0.0,0.0,0.0,0.0,0.0,0.0,0.0,0.0,0.0,0.0,0.0,0.0,0.0,0.0,-1.6788,-1.6781,-1.6707,-1.6558,-1.6571,-1.6517,-1.6368,-1.651,-1.6524,-1.6402,-1.6659,-1.6781,-1.6788,-1.6917,-1.6978,-1.6978,-1.6978,-1.6978,-1.6978,-1.6978,-1.6978,-1.6978,-1.6978,-1.6978,-1.6978,-1.6978,-1.6978,-1.6978,0.0,0.0,0.0,0.0,0.0,0.0,0.0,0.0,0.0,0.0,0.0,0.0,0.0,0.0,0.0,0.0,0.0,0.0,0.0,0.0,0.0,-1.312,-1.2456,-1.2171,-1.2305,-1.2305,-1.2532,-1.3013,0.0,0.0,0.0,-1.507,-1.5364,0.0,0.0,0.0,0.0,0.0,-1.5832,-1.5832,-1.5832,-1.5343,-1.4854,-1.5534,-1.5343,-1.4854,0.0,0.0,0.0,-1.5832,-1.6019,-1.6299,-1.642,0.0,0.0,0.0,-1.3088,0.0,-1.1456,0.0,0.0,0.0,0.0,0.0,0.0,0.0,0.0,0.0,0.0,0.0,0.0,0.0,0.0,0.0,0.0,0.0,0.0,0.0,0.0,0.0,0.0,0.0,0.0,0.0,0.0,0.0,0.0,-1.691,-1.6761,-1.6748,-1.6639,-1.6408,-1.6476,-1.6456,-1.6313,-1.6449,-1.653,-1.6558,-1.6598,-1.6714,-1.6876,-1.6768,-1.6815,-1.6978,-1.689,-1.6904,-1.6971,-1.689,-1.6904,-1.6978,-1.6978,-1.6978,-1.6978,-1.6978,-1.6978,-1.6978,0.0,0.0,0.0,0.0,0.0,0.0,0.0,0.0,0.0,0.0,0.0,0.0,0.0,0.0,0.0,0.0,0.0,0.0,0.0,0.0,0.0,-1.2899,-1.2476,-1.2305,-1.2305,-1.2371,-1.2679,0.0,0.0,0.0,-1.4977,-1.5257,-1.5551,0.0,-1.5912,0.0,0.0,0.0,0.0,0.0,-1.5439,-1.4758,-1.3968,-1.4567,0.0,-1.3579,-1.4484,0.0,0.0,0.0,0.0,0.0,0.0,0.0,0.0,0.0,0.0,0.0,0.0,0.0,0.0,0.0,0.0,0.0,0.0,0.0,0.0,0.0,0.0,0.0,0.0,0.0,0.0,0.0,0.0,0.0,0.0,0.0,0.0,0.0,0.0,0.0,0.0,0.0,0.0,0.0,0.0,-1.6836,-1.6646,-1.6639,-1.6517,-1.6259,-1.6395,-1.6395,-1.6252,-1.6354,-1.6469,-1.6578,-1.6503,-1.6605,-1.6856,-1.6666,-1.6727,-1.6971,-1.6815,-1.6836,-1.6971,-1.6856,-1.6876,-1.6978,-1.6978,-1.6978,-1.6978,-1.6978,-1.6978,-1.6978,0.0,0.0,0.0,0.0,0.0,0.0,0.0,0.0,0.0,0.0,0.0,0.0,0.0,0.0,-1.1396,-1.1423,-1.2553,-1.3349,-1.3678,-1.2851,-1.2352,-1.2352,-1.2291,0.0,-1.2305,-1.2585,0.0,0.0,0.0,0.0,-1.4977,-1.5257,-1.5551,-1.5845,-1.6126,-1.6086,-1.5845,0.0,0.0,0.0,-1.4459,-1.3968,-1.3776,0.0,0.0,0.0,0.0,0.0,0.0,0.0,0.0,0.0,0.0,0.0,0.0,0.0,0.0,0.0,0.0,0.0,0.0,0.0,0.0,0.0,0.0,0.0,0.0,0.0,0.0,0.0,0.0,0.0,0.0,0.0,0.0,0.0,0.0,0.0,0.0,0.0,0.0,0.0,0.0,0.0,0.0,0.0,-1.668,-1.6632,-1.6347,-1.6334,-1.6259,-1.6096,-1.6239,-1.6246,-1.6096,-1.6103,-1.611,-1.6117,-1.6252,-1.6402,-1.6551,-1.668,-1.6829,-1.6971,-1.6815,-1.6836,-1.6978,-1.6971,-1.6971,-1.6978,-1.6978,-1.6978,-1.6978,-1.6978,-1.6978,-1.6978,0.0,0.0,0.0,0.0,0.0,0.0,0.0,0.0,0.0,0.0,0.0,0.0,0.0,-1.1476,-1.1583,-1.1957,-1.2367,-1.2694,-1.2806,-1.2526,-1.2305,-1.2305,-1.2478,-1.2585,-1.2585,-1.2893,0.0,0.0,0.0,-1.4576,-1.4977,-1.5444,-1.5725,-1.5832,-1.5939,-1.6032,-1.6112,-1.6019,0.0,0.0,-1.4692,-1.3622,-1.2957,0.0,0.0,0.0,0.0,0.0,0.0,0.0,0.0,0.0,0.0,0.0,0.0,0.0,0.0,0.0,0.0,0.0,0.0,0.0,0.0,0.0,0.0,0.0,0.0,0.0,0.0,0.0,0.0,0.0,0.0,0.0,0.0,0.0,0.0,0.0,0.0,0.0,0.0,0.0,0.0,0.0,0.0,0.0,0.0,-1.6517,-1.632,-1.6307,-1.6239,-1.609,-1.6137,-1.6137,-1.6083,-1.6083,-1.613,-1.6225,-1.6185,-1.6286,-1.6517,-1.6381,-1.6456,-1.668,-1.6625,-1.6748,-1.6971,-1.6876,-1.689,-1.6978,-1.6978,-1.6978,-1.6978,-1.6978,-1.6978,-1.6978,0.0,0.0,0.0,0.0,0.0,0.0,0.0,0.0,0.0,0.0,0.0,0.0,0.0,0.0,-1.2064,-1.2559,-1.2612,-1.2612,-1.2612,-1.2612,-1.2612,-1.2612,-1.2799,-1.2906,-1.2906,-1.3106,0.0,0.0,0.0,0.0,0.0,-1.5565,-1.5832,-1.5832,-1.5832,-1.5992,0.0,0.0,0.0,-1.5859,0.0,-1.2871,-1.1784,0.0,0.0,0.0,0.0,0.0,0.0,0.0,0.0,0.0,0.0,0.0,0.0,0.0,0.0,0.0,0.0,0.0,0.0,0.0,0.0,0.0,0.0,0.0,0.0,0.0,0.0,0.0,0.0,0.0,0.0,0.0,0.0,0.0,0.0,0.0,0.0,0.0,0.0,0.0,0.0,0.0,0.0,0.0,0.0,0.0,-1.6171,-1.6157,-1.611,-1.6008,-1.5961,-1.5981,-1.6083,-1.6029,-1.6083,-1.6232,-1.613,-1.6212,-1.6442,-1.6246,-1.6293,-1.6524,-1.6524,-1.6666,-1.6897,-1.6849,-1.689,-1.6978,-1.6978,-1.6978,-1.6978,-1.6978,-1.6978,-1.6978,0.0,0.0,0.0,0.0,0.0,0.0,0.0,0.0,0.0,-1.145,0.0,0.0,0.0,0.0,0.0,-1.3186,-1.3213,-1.3213,-1.3213,-1.3213,-1.3213,-1.3213,-1.3213,-1.3227,-1.324,-1.324,-1.3387,0.0,0.0,0.0,0.0,0.0,-1.5832,0.0,-1.5832,-1.6005,-1.6326,0.0,-1.6138,-1.4366,0.0,-1.17,-1.0289,0.0,0.0,0.0,-0.8906,-0.9049,0.0,0.0,0.0,0.0,0.0,0.0,0.0,0.0,0.0,0.0,0.0,0.0,0.0,0.0,0.0,0.0,0.0,0.0,0.0,0.0,0.0,0.0,0.0,0.0,0.0,0.0,0.0,0.0,0.0,0.0,0.0,0.0,0.0,0.0,0.0,0.0,0.0,0.0,-1.6212,-1.6164,-1.5866,-1.5845,-1.5845,-1.5845,-1.571,-1.5778,-1.6076,-1.5927,-1.5934,-1.6083,-1.6083,-1.6157,-1.63,-1.6307,-1.6381,-1.651,-1.6517,-1.6605,-1.6754,-1.691,-1.6978,-1.6978,-1.6978,-1.6978,-1.6978,-1.6978,-1.6978,-1.6978,0.0,0.0,0.0,0.0,0.0,0.0,-1.1303,-1.1557,-1.1824,0.0,0.0,0.0,0.0,0.0,-1.312,-1.32,-1.3213,-1.3213,-1.3213,-1.3213,-1.3213,-1.3213,-1.3414,-1.3627,-1.3841,-1.4055,-1.4309,-1.4603,0.0,0.0,0.0,0.0,0.0,0.0,-1.6059,-1.5712,-1.5056,-1.5008,0.0,0.0,-1.2326,-1.1319,0.0,0.0,0.0,0.0,0.0,-0.9449,0.0,0.0,-1.009,-1.0098,0.0,0.0,0.0,0.0,0.0,0.0,-0.9869,0.0,0.0,0.0,0.0,0.0,0.0,0.0,0.0,0.0,0.0,0.0,0.0,0.0,0.0,0.0,0.0,0.0,0.0,0.0,0.0,0.0,0.0,0.0,0.0,0.0,0.0,0.0,-1.59,-1.59,-1.571,-1.5696,-1.5696,-1.5696,-1.5662,-1.573,-1.5913,-1.5872,-1.5934,-1.6083,-1.6083,-1.6103,-1.6151,-1.6259,-1.6273,-1.6218,-1.6429,-1.6544,-1.6598,-1.6748,-1.6876,-1.6978,-1.6978,-1.6978,-1.6978,-1.6978,-1.6978,-1.6978,0.0,0.0,0.0,0.0,0.0,-1.1797,-1.1797,-1.2158,-1.2492,0.0,0.0,0.0,0.0,0.0,-1.3814,-1.3935,-1.3828,-1.3761,-1.3761,-1.3641,-1.3627,-1.3748,-1.3921,-1.4148,-1.4442,-1.4496,-1.4669,-1.4963,0.0,0.0,0.0,-1.5698,0.0,0.0,0.0,0.0,0.0,0.0,0.0,0.0,-1.1815,0.0,0.0,-0.994,-0.9618,0.0,0.0,0.0,-0.9802,-0.9869,-0.9802,0.0,0.0,0.0,0.0,0.0,0.0,0.0,0.0,0.0,0.0,0.0,0.0,0.0,-1.1118,-1.1436,0.0,0.0,0.0,0.0,0.0,0.0,0.0,0.0,0.0,0.0,0.0,0.0,0.0,0.0,0.0,0.0,0.0,-1.5486,-1.5567,-1.5547,-1.5683,-1.5703,-1.5554,-1.5486,-1.5479,-1.554,-1.5479,-1.5581,-1.5852,-1.5791,-1.5872,-1.6083,-1.6083,-1.6083,-1.609,-1.6239,-1.6225,-1.6096,-1.6334,-1.6469,-1.653,-1.6619,-1.6781,-1.6978,-1.6978,-1.6978,-1.6978,-1.6978,-1.6978,-1.6978,0.0,0.0,-1.149,-1.1557,-1.1997,-1.2371,-1.2438,-1.2879,-1.324,0.0,0.0,0.0,0.0,0.0,-1.4669,-1.4937,-1.4723,-1.4563,-1.4563,-1.4322,-1.4295,-1.4563,-1.4563,-1.471,-1.5003,-1.475,-1.4763,-1.5057,0.0,0.0,0.0,0.0,0.0,0.0,0.0,0.0,0.0,0.0,0.0,-1.0949,-1.12,-1.057,0.0,0.0,-0.9992,0.0,-1.0202,-1.0215,-1.012,-1.0256,-1.0114,0.0,0.0,0.0,0.0,0.0,-1.0175,0.0,0.0,0.0,0.0,0.0,0.0,0.0,-1.1056,-1.1124,-1.1226,0.0,0.0,0.0,0.0,0.0,0.0,0.0,0.0,0.0,0.0,0.0,0.0,0.0,0.0,0.0,-1.493,-1.5072,-1.5208,-1.533,-1.5466,-1.5486,-1.5371,-1.5235,-1.5228,-1.5377,-1.5255,-1.5391,-1.5825,-1.5703,-1.5791,-1.6083,-1.6083,-1.609,-1.611,-1.6246,-1.6239,-1.6117,-1.6266,-1.6402,-1.6524,-1.6537,-1.672,-1.6978,-1.6978,-1.6978,-1.6978,-1.6978,-1.6978,-1.6978,0.0,0.0,-1.1931,-1.2412,-1.2585,-1.2826,-1.3307,-1.328,-1.3467,-1.4175,0.0,0.0,0.0,0.0,0.0,-1.4963,-1.491,-1.4883,-1.4883,-1.483,-1.4816,-1.487,-1.4883,-1.5017,-1.5311,-1.5257,-1.5364,-1.5658,0.0,0.0,0.0,0.0,0.0,0.0,0.0,0.0,0.0,0.0,0.0,-0.9582,-0.9902,0.0,-0.9944,-1.0154,-1.0215,-1.0215,-1.0385,-1.0432,-1.0412,0.0,-1.0337,-1.0188,0.0,0.0,0.0,0.0,0.0,0.0,0.0,0.0,0.0,0.0,0.0,0.0,-1.0819,-1.09,-1.1077,0.0,0.0,0.0,0.0,0.0,0.0,0.0,0.0,0.0,0.0,0.0,0.0,0.0,0.0,0.0,-1.4767,-1.4923,-1.497,-1.4875,-1.4896,-1.4957,-1.5052,-1.5031,-1.5079,-1.5221,-1.5201,-1.5343,-1.5676,-1.5655,-1.5791,-1.6083,-1.6083,-1.6144,-1.6266,-1.6293,-1.6293,-1.6273,-1.6415,-1.6497,-1.653,-1.6653,-1.6815,-1.6978,-1.6978,-1.6978,-1.6978,-1.6978,-1.6978,-1.6978,0.0,0.0,-1.2472,-1.2768,-1.2999,-1.3347,-1.3801,-1.3868,-1.4068,0.0,0.0,0.0,0.0,0.0,0.0,0.0,-1.5257,-1.5177,-1.5177,-1.5044,-1.4746,-1.4226,-1.4239,-1.3994,-1.3696,-1.3696,-1.404,-1.4854,0.0,0.0,0.0,0.0,0.0,0.0,0.0,0.0,0.0,0.0,-0.9658,-0.9408,-0.9707,0.0,-1.0086,-1.0385,-1.05,-1.0507,-1.0582,-1.0609,-1.0609,-1.0609,-1.0507,0.0,0.0,-1.0331,-1.0385,0.0,-1.0439,-1.0514,0.0,0.0,0.0,-1.0799,0.0,0.0,0.0,-1.0833,-1.088,-1.1023,-1.1179,0.0,0.0,0.0,0.0,0.0,0.0,0.0,0.0,0.0,0.0,0.0,0.0,0.0,-1.4509,-1.4652,-1.474,-1.474,-1.474,-1.4774,-1.4848,-1.4855,-1.4923,-1.5072,-1.5079,-1.5221,-1.552,-1.5601,-1.575,-1.5967,-1.6042,-1.6123,-1.6198,-1.6273,-1.6266,-1.6205,-1.6354,-1.6456,-1.6524,-1.6605,-1.6775,-1.6978,-1.6978,-1.6978,-1.6978,-1.6978,-1.6978,-1.6978,0.0,0.0,0.0,-1.2261,-1.2827,-1.3509,-1.3848,-1.4095,-1.4281,0.0,0.0,0.0,0.0,0.0,0.0,0.0,0.0,-1.479,0.0,-1.46,-1.4013,-1.318,-1.3085,-1.2713,-1.194,-1.195,-1.2425,-1.3488,-1.2425,0.0,0.0,0.0,0.0,0.0,0.0,0.0,0.0,0.0,0.0,-0.968,0.0,-1.0114,-1.0181,-1.0568,-1.0717,-1.0717,-1.0717,-1.0717,-1.0717,-1.0717,0.0,-1.0514,-1.0399,-1.0446,0.0,0.0,0.0,0.0,0.0,0.0,0.0,0.0,0.0,-1.086,0.0,0.0,0.0,-1.0724,0.0,0.0,0.0,0.0,0.0,0.0,0.0,0.0,0.0,0.0,0.0,0.0,0.0,0.0,0.0,-1.4292,-1.4414,-1.4597,-1.4584,-1.4604,-1.4692,-1.4699,-1.4767,-1.4923,-1.4957,-1.5099,-1.5364,-1.5547,-1.571,-1.5852,-1.6008,-1.6096,-1.613,-1.6225,-1.6218,-1.613,-1.6252,-1.6374,-1.6483,-1.6544,-1.6693,-1.6897,-1.6958,-1.6978,-1.6978,-1.6978,-1.6978,-1.6978,-1.0795,-1.1059,0.0,-1.0349,-1.1438,-1.2623,-1.3225,-1.3231,-1.2871,0.0,0.0,0.0,0.0,0.0,0.0,0.0,0.0,0.0,-1.2853,0.0,-1.2169,-1.2104,-1.2104,-1.2017,-1.195,-1.195,-1.195,-1.2145,-1.195,-1.2041,0.0,0.0,0.0,0.0,-0.9507,0.0,0.0,0.0,-0.9639,0.0,-1.0127,-1.0331,0.0,-1.0649,-1.0717,-1.0717,-1.0717,-1.0717,-1.0717,0.0,-1.0711,-1.069,0.0,-1.0683,0.0,0.0,0.0,0.0,0.0,0.0,0.0,0.0,-1.1029,0.0,0.0,0.0,-1.088,-1.0751,0.0,0.0,0.0,0.0,0.0,0.0,0.0,0.0,0.0,0.0,0.0,0.0,0.0,0.0,0.0,-1.379,-1.3844,-1.4129,-1.4021,-1.4116,-1.4516,-1.4536,-1.4611,-1.476,-1.4903,-1.5045,-1.5208,-1.5493,-1.571,-1.5852,-1.6008,-1.6151,-1.6279,-1.6157,-1.6171,-1.6286,-1.63,-1.632,-1.6354,-1.6619,-1.6666,-1.6598,-1.6876,-1.6978,-1.6978,-1.6978,-1.6978,-1.6978,-1.0001,-1.0327,0.0,0.0,-1.0846,-1.1618,-1.2053,-1.2361,0.0,0.0,0.0,0.0,0.0,0.0,0.0,0.0,0.0,-1.2332,0.0,0.0,0.0,-1.0943,-1.0833,-1.0439,-0.9862,-0.9657,-0.9993,-1.0779,-0.9993,-1.0086,0.0,0.0,0.0,0.0,-0.9147,0.0,-0.9089,0.0,0.0,0.0,0.0,0.0,0.0,-1.0697,-1.0717,-1.0731,-1.0819,-1.0853,-1.0867,0.0,-1.0921,0.0,0.0,0.0,0.0,0.0,0.0,0.0,0.0,0.0,0.0,0.0,0.0,0.0,0.0,0.0,-1.1056,0.0,0.0,0.0,0.0,0.0,0.0,0.0,-1.1558,0.0,0.0,0.0,0.0,0.0,0.0,0.0,0.0,0.0,0.0,0.0,-1.3526,-1.3709,-1.3987,-1.4163,-1.4367,-1.4597,-1.4753,-1.4909,-1.5059,-1.5357,-1.5581,-1.573,-1.5879,-1.6029,-1.6178,-1.611,-1.6117,-1.6178,-1.6178,-1.6225,-1.632,-1.6442,-1.6503,-1.6544,-1.6761,-1.6849,-1.6856,-1.6944,-1.6978,-1.6978,0.0,0.0,0.0,0.0,0.0,-1.0654,-1.0875,0.0,0.0,0.0,0.0,0.0,-1.1478,-1.0874,0.0,0.0,0.0,-1.1666,0.0,0.0,-1.0861,0.0,0.0,0.0,0.0,-0.8221,-0.8657,-0.9554,-0.8657,-0.8736,0.0,0.0,0.0,0.0,0.0,-0.9259,-0.9361,0.0,0.0,-1.0188,-1.0405,-1.0582,-1.0717,-1.0717,-1.0717,-1.0731,-1.0846,-1.0914,-1.0962,-1.107,-1.1036,0.0,-1.0948,0.0,0.0,0.0,0.0,0.0,-1.0731,0.0,0.0,0.0,0.0,0.0,0.0,0.0,0.0,0.0,0.0,0.0,0.0,0.0,0.0,0.0,0.0,-1.1375,0.0,0.0,0.0,0.0,0.0,0.0,0.0,0.0,0.0,-1.2956,-1.3078,-1.3275,-1.3553,-1.381,-1.4102,-1.4441,-1.4597,-1.4753,-1.4909,-1.5201,-1.5425,-1.5581,-1.5764,-1.5913,-1.6022,-1.6062,-1.6083,-1.6083,-1.6083,-1.6144,-1.6252,-1.6293,-1.6368,-1.6483,-1.6673,-1.6748,-1.6768,-1.6924,-1.6978,-1.6978,-0.7382,-0.8205,0.0,0.0,0.0,0.0,0.0,0.0,0.0,0.0,0.0,0.0,0.0,0.0,0.0,0.0,0.0,-0.9696,-0.9683,0.0,-0.8893,0.0,0.0,-0.8577,0.0,0.0,-0.8465,-0.857,-0.8465,-0.8547,0.0,0.0,0.0,0.0,0.0,-0.953,-0.9808,-0.9971,-1.0209,-1.048,-1.0487,-1.0582,-1.0717,0.0,-1.0717,-1.0717,-1.0724,0.0,0.0,-1.0955,-1.0955,0.0,0.0,0.0,0.0,0.0,0.0,0.0,0.0,0.0,0.0,-1.1063,0.0,0.0,0.0,0.0,-1.1518,0.0,0.0,0.0,0.0,0.0,0.0,0.0,0.0,0.0,0.0,0.0,0.0,0.0,0.0,0.0,0.0,0.0,0.0,-1.2935,-1.2691,-1.2786,-1.3376,-1.3559,-1.3851,-1.4292,-1.4441,-1.459,-1.4746,-1.5038,-1.5269,-1.5418,-1.5716,-1.5852,-1.5866,-1.6015,-1.6083,-1.6083,-1.6083,-1.6083,-1.6103,-1.6246,-1.6313,-1.6347,-1.6639,-1.6748,-1.6768,-1.6924,-1.6978,-1.6978,0.0,0.0,0.0,0.0,0.0,0.0,0.0,-0.8976,0.0,0.0,0.0,0.0,0.0,0.0,-1.0568,0.0,0.0,-1.0324,-0.9924,-0.9578,0.0,0.0,0.0,-0.8784,0.0,0.0,0.0,0.0,0.0,0.0,0.0,0.0,0.0,0.0,0.0,-0.9639,0.0,0.0,0.0,0.0,0.0,-1.0792,-1.0989,0.0,0.0,-1.0717,-1.0717,-1.0819,0.0,-1.0948,-1.0948,-1.0948,-1.0948,-1.0846,-1.0717,-1.0717,-1.0894,0.0,0.0,0.0,-1.1952,-1.1504,0.0,0.0,0.0,0.0,0.0,0.0,0.0,0.0,0.0,0.0,0.0,0.0,0.0,0.0,0.0,0.0,0.0,0.0,0.0,0.0,0.0,0.0,0.0,-1.1782,-1.1952,-1.2237,-1.2644,-1.318,-1.3634,-1.3987,-1.4333,-1.4584,-1.474,-1.4943,-1.5167,-1.5411,-1.5615,-1.5757,-1.5859,-1.6008,-1.6083,-1.6083,-1.6083,-1.6083,-1.6083,-1.6137,-1.6218,-1.6327,-1.6524,-1.6659,-1.6768,-1.6924,-1.6978,-1.6978,-0.7645,0.0,0.0,0.0,0.0,0.0,0.0,0.0,0.0,0.0,-0.9951,0.0,-1.124,0.0,-1.1423,0.0,-1.1396,-1.1043,-1.0331,-1.0161,0.0,-0.9483,-0.9327,0.0,0.0,0.0,0.0,0.0,0.0,-0.8845,0.0,0.0,0.0,0.0,0.0,0.0,-0.9998,0.0,-1.0392,0.0,0.0,-1.088,0.0,0.0,-1.0833,-1.088,0.0,-1.0941,-1.1023,-1.1023,-1.1063,-1.1097,-1.1043,-1.0955,-1.0887,-1.0941,-1.1131,-1.1321,-1.1321,-1.1796,0.0,-1.1864,-1.2074,0.0,-1.1864,0.0,0.0,0.0,0.0,0.0,0.0,0.0,0.0,0.0,0.0,0.0,0.0,-1.1192,0.0,0.0,0.0,0.0,0.0,0.0,-1.1552,-1.1267,-1.1463,-1.1748,0.0,0.0,-1.3349,-1.3749,-1.4204,-1.4509,-1.4658,-1.4814,-1.5011,-1.5255,-1.5513,-1.5689,-1.5784,-1.5988,-1.6083,-1.6083,-1.6083,-1.6083,-1.6083,-1.6137,-1.6252,-1.6402,-1.6544,-1.6693,-1.6842,-1.6944,-1.6978,-1.6978,0.0,0.0,0.0,0.0,-0.8079,0.0,0.0,0.0,-0.9523,0.0,-1.0419,-1.1029,-1.1633,-1.1823,-1.1965,-1.2101,-1.2115,0.0,-1.0853,-1.0921,0.0,0.0,-0.9802,-0.9795,-0.9632,0.0,0.0,0.0,0.0,0.0,0.0,0.0,0.0,0.0,-0.9625,0.0,-1.0283,-1.029,-1.046,-1.0744,-1.09,-1.088,-1.0778,-1.0914,-1.1063,-1.1185,-1.1158,-1.1158,-1.1165,-1.1165,-1.126,-1.1355,-1.1206,-1.1165,-1.1206,-1.1348,-1.1511,-1.164,-1.1653,-1.1979,-1.2284,-1.2135,0.0,0.0,0.0,0.0,-1.2623,0.0,0.0,0.0,0.0,0.0,0.0,0.0,0.0,0.0,0.0,0.0,0.0,0.0,0.0,0.0,0.0,-1.164,-1.1382,-1.1362,-1.1226,-1.1341,0.0,0.0,-1.299,-1.3587,-1.4048,-1.4367,-1.4523,-1.4665,-1.4828,-1.4997,-1.5432,-1.5642,-1.5655,-1.5947,-1.6083,-1.6083,-1.609,-1.609,-1.6103,-1.6259,-1.6402,-1.6544,-1.6693,-1.6842,-1.6978,-1.6978,-1.6978,-1.6978,-0.795,-0.8072,-0.8153,0.0,-0.8214,-0.8384,0.0,0.0,0.0,0.0,-1.1443,-1.2115,-1.2712,-1.2908,-1.2969,-1.2895,-1.2793,0.0,0.0,0.0,0.0,-1.0785,-1.0588,-1.0317,-0.9944,-0.9788,0.0,-0.9381,0.0,0.0,-0.9551,0.0,0.0,0.0,0.0,0.0,-1.029,-1.0392,-1.0616,-1.09,-1.105,-1.1219,0.0,0.0,-1.1369,-1.1457,-1.1124,-1.107,-1.1165,-1.1165,-1.1192,-1.1212,-1.1172,-1.124,-1.1341,-1.1382,-1.1653,-1.1972,-1.2088,-1.2447,-1.2752,-1.2596,-1.2705,-1.2766,0.0,0.0,0.0,0.0,0.0,0.0,0.0,0.0,0.0,0.0,0.0,0.0,0.0,0.0,0.0,-1.1348,0.0,0.0,-1.1382,-1.1389,-1.1253,-1.0921,-1.0962,-1.1151,-1.1484,0.0,0.0,-1.3275,-1.3838,-1.4306,-1.4679,-1.4719,-1.493,-1.5303,-1.5527,-1.5696,-1.5805,-1.5995,-1.6083,-1.609,-1.6198,-1.6252,-1.6259,-1.6408,-1.6558,-1.6693,-1.6734,-1.6842,-1.6978,-1.6978,-1.6978,-1.6978,-0.8113,0.0,0.0,-0.8635,0.0,0.0,-0.9286,0.0,0.0,-1.1151,-1.1918,0.0,-1.2935,-1.3349,-1.3559,-1.3471,-1.3275,0.0,0.0,0.0,0.0,-1.1287,-1.1104,-1.0806,-1.0351,-1.0134,0.0,-0.9673,0.0,0.0,-0.97,0.0,0.0,0.0,0.0,-1.0168,0.0,-1.0527,-1.0765,-1.105,-1.1131,0.0,0.0,-1.1396,-1.1484,-1.1586,-1.1335,-1.1253,-1.126,-1.126,-1.1307,-1.1362,-1.1362,-1.1423,-1.1531,-1.1728,-1.1918,-1.2108,-1.2325,-1.2617,-1.2854,-1.2834,-1.2895,-1.2915,-1.2739,-1.2901,-1.301,0.0,0.0,0.0,0.0,0.0,0.0,0.0,0.0,0.0,0.0,0.0,0.0,0.0,-1.1314,0.0,-1.1172,-1.1124,-1.0989,-1.0738,-1.0921,-1.109,0.0,0.0,0.0,-1.2969,-1.3817,-1.4387,-1.4638,-1.4903,-1.5092,-1.5221,-1.5506,-1.5683,-1.5771,-1.5981,-1.6083,-1.609,-1.6246,-1.6307,-1.6327,-1.6537,-1.6673,-1.6754,-1.6822,-1.6904,-1.6978,-1.6978,-1.6978,-1.6978,0.0,0.0,0.0,0.0,0.0,0.0,0.0,-1.0317,0.0,-1.1477,0.0,-1.2752,-1.2861,-1.3471,-1.3865,-1.3844,0.0,-1.3281,-1.2874,-1.2705,-1.2305,-1.1599,-1.1511,-1.126,-1.0792,-1.0487,0.0,0.0,0.0,-0.972,-0.9822,0.0,0.0,0.0,0.0,0.0,0.0,-1.0683,-1.0907,-1.1165,-1.1185,-1.1206,-1.124,-1.1389,-1.1531,-1.1647,-1.1674,-1.1592,-1.1477,-1.1477,-1.1565,-1.1681,-1.1681,-1.1694,-1.1782,-1.2176,-1.221,-1.2182,-1.2454,-1.263,-1.2773,-1.2942,-1.299,-1.2996,-1.3017,-1.3017,-1.3017,-1.3017,-1.2895,-1.2773,0.0,0.0,0.0,0.0,0.0,0.0,0.0,0.0,0.0,0.0,0.0,0.0,-1.1179,-1.0914,-1.0744,-1.0724,-1.0962,-1.1056,0.0,0.0,0.0,-1.2725,-1.3797,-1.4441,-1.4597,0.0,-1.5276,-1.512,-1.5493,-1.5676,-1.571,-1.5967,-1.609,-1.6117,-1.6252,-1.6334,-1.6388,-1.6646,-1.6761,-1.6795,-1.6931,-1.6978,-1.6978,-1.6978,-1.6978,-1.6978,0.0,0.0,0.0,0.0,0.0,-1.0541,-1.1043,-1.1586,-1.2074,-1.2447,-1.3254,-1.3756,-1.3654,-1.3878,-1.398,-1.3851,-1.379,0.0,0.0,0.0,0.0,-1.2515,-1.2142,-1.1674,-1.1097,-1.0792,-1.0446,0.0,-0.9998,-0.9924,-0.9822,-0.9924,0.0,0.0,0.0,0.0,-1.069,-1.0846,0.0,-1.1172,-1.1301,-1.1423,-1.1552,-1.1701,-1.1769,-1.1809,-1.1938,-1.1965,-1.1945,-1.1945,-1.1965,-1.1986,-1.1986,-1.2074,-1.2189,-1.2271,-1.2352,-1.2461,-1.2644,-1.2712,-1.2793,-1.3071,-1.3132,-1.3166,-1.3295,-1.3322,-1.3322,-1.3322,-1.32,-1.3024,-1.2773,0.0,0.0,0.0,0.0,0.0,0.0,0.0,0.0,0.0,0.0,-1.1335,0.0,-1.1009,-1.0853,-1.0731,-1.0765,-1.0839,0.0,0.0,0.0,0.0,-1.3295,0.0,0.0,0.0,-1.533,-1.5886,-1.5839,-1.5879,-1.6008,-1.6056,-1.6151,-1.6273,-1.63,-1.6449,-1.6673,-1.6727,-1.6822,-1.6944,-1.6971,-1.6978,-1.6978,-1.6978,-1.6978,-1.6978,0.0,0.0,0.0,0.0,0.0,0.0,0.0,-1.2657,0.0,-1.2759,-1.3241,-1.3573,-1.3498,-1.3912,-1.4163,-1.4089,-1.4007,-1.3933,-1.3865,-1.3648,-1.3349,-1.2976,-1.2603,0.0,-1.1525,-1.1145,-1.0765,-1.0399,-1.0243,-1.0134,-1.0059,-1.0134,0.0,0.0,0.0,-1.0697,0.0,0.0,0.0,-1.1294,-1.145,-1.1599,-1.1742,-1.1891,-1.1999,-1.2081,-1.2155,-1.223,-1.2264,-1.2115,-1.206,-1.2074,-1.2155,-1.2176,-1.2203,-1.2352,-1.2447,-1.2535,-1.2684,-1.2786,-1.2901,-1.3119,-1.3119,-1.3125,-1.3349,-1.3342,-1.3302,-1.3383,-1.3281,-1.3085,-1.2786,-1.2366,0.0,0.0,0.0,0.0,0.0,0.0,0.0,0.0,0.0,0.0,0.0,0.0,0.0,0.0,0.0,-1.0914,0.0,0.0,0.0,0.0,0.0,0.0,0.0,0.0,0.0,-1.5852,-1.5852,-1.5893,-1.5967,-1.6042,-1.6164,-1.6313,-1.6388,-1.6544,-1.6754,-1.6836,-1.691,-1.6978,-1.6978,-1.6978,-1.6978,-1.6978,-1.6978,-1.6978,0.0,-1.0039,0.0,0.0,-1.1531,0.0,-1.2684,-1.341,-1.3682,-1.3091,-1.3247,-1.341,-1.341,-1.3946,-1.4299,-1.4299,-1.419,-1.4122,-1.4122,-1.3871,-1.36,-1.3329,-1.2996,-1.2556,-1.1986,-1.1504,-1.1097,0.0,-1.0473,-1.029,0.0,-1.0297,0.0,0.0,0.0,0.0,0.0,0.0,-1.1165,-1.145,-1.1606,-1.1748,-1.1898,-1.2054,-1.2182,-1.2291,-1.2325,-1.2406,-1.2467,-1.2237,-1.2155,-1.2176,-1.2298,-1.2277,-1.225,-1.2481,-1.2576,-1.2623,-1.2745,-1.2868,-1.2996,-1.3139,-1.3085,-1.3078,-1.3342,-1.3308,-1.3254,-1.3376,-1.3281,-1.3105,-1.2868,-1.2583,0.0,0.0,0.0,0.0,0.0,0.0,0.0,0.0,0.0,0.0,0.0,0.0,0.0,0.0,0.0,-1.0968,-1.0731,-1.1369,-1.1959,0.0,0.0,-1.4109,-1.4964,0.0,-1.5608,-1.5737,-1.5845,-1.59,-1.5906,-1.6062,-1.6212,-1.6361,-1.6469,-1.6605,-1.6761,-1.6917,-1.6978,-1.6978,-1.6978,-1.6978,-1.6978,-1.6978,-1.6978,-1.6978,0.0,0.0,0.0,0.0,0.0,0.0,0.0,-1.3573,-1.4027,-1.3953,-1.4089,-1.4197,-1.4197,-1.4258,-1.4299,-1.4299,-1.4285,-1.4278,-1.4278,-1.4122,-1.3953,-1.3783,-1.3363,-1.2915,-1.2447,-1.187,-1.1362,0.0,0.0,-1.0337,0.0,0.0,0.0,0.0,0.0,0.0,0.0,-1.109,-1.1321,-1.1613,-1.1755,-1.1904,-1.2054,-1.221,-1.2277,-1.2311,-1.2433,-1.2488,-1.2501,-1.2467,-1.2461,-1.2461,-1.2474,-1.2569,-1.2671,-1.2698,-1.2807,-1.2922,-1.2935,-1.2949,-1.2996,-1.3139,-1.3159,-1.32,-1.3363,-1.339,-1.3383,-1.3397,-1.3281,-1.3166,-1.3132,-1.2888,-1.2644,0.0,0.0,0.0,0.0,0.0,0.0,0.0,0.0,0.0,0.0,-1.1029,0.0,0.0,-1.0744,-1.0751,-1.0724,-1.1172,-1.1701,-1.2291,0.0,-1.379,-1.4964,-1.514,-1.5499,-1.6042,-1.6056,-1.6062,-1.6069,-1.6218,-1.6368,-1.6503,-1.6517,-1.6605,-1.6761,-1.6917,-1.6978,-1.6978,-1.6978,-1.6978,-1.6978,-1.6978,-1.6978,-1.6978,0.0,0.0,0.0,0.0,0.0,0.0,0.0,-1.396,-1.4217,-1.4238,-1.4278,-1.4299,-1.4299,-1.4299,-1.4299,-1.4299,-1.4299,-1.4299,-1.4299,-1.4245,-1.4143,-1.3987,-1.3634,-1.3275,-1.2915,-1.2325,-1.1803,0.0,0.0,0.0,0.0,0.0,0.0,0.0,0.0,-1.0941,-1.109,-1.1335,-1.1558,-1.1769,-1.2006,-1.2142,-1.2223,-1.2461,-1.2556,-1.2576,-1.2725,-1.2779,-1.2779,-1.2779,-1.2657,-1.2515,-1.261,-1.2617,-1.263,-1.2813,-1.2915,-1.2983,-1.3064,-1.3152,-1.3241,-1.3295,-1.3308,-1.3322,-1.339,-1.3403,-1.3403,-1.3403,-1.3424,-1.3444,-1.3444,-1.3275,-1.3085,0.0,0.0,0.0,0.0,0.0,0.0,0.0,0.0,0.0,0.0,0.0,0.0,0.0,0.0,-1.0758,-1.0853,-1.1111,-1.1572,-1.2271,0.0,-1.3573,-1.4685,-1.5018,-1.5438,-1.5947,-1.6035,-1.613,-1.6218,-1.6279,-1.6435,-1.6666,-1.6754,-1.6829,-1.6897,-1.6958,-1.6978,-1.6978,-1.6978,-1.6978,-1.6978,-1.6978,-1.6978,-1.6978,-0.9081,0.0,-1.1185,0.0,-1.3305,-1.3627,-1.4156,-1.4319,-1.4229,-1.4309,-1.301,-1.2788,-1.4202,-1.434,-1.4346,-1.4421,-1.4346,-1.4326,-1.4373,-1.4326,-1.4258,-1.4156,-1.3899,0.0,-1.3329,-1.2773,-1.2271,-1.1837,-1.143,0.0,0.0,0.0,0.0,0.0,-1.0989,-1.1158,-1.1314,-1.1619,-1.1857,-1.2047,-1.2264,-1.2406,-1.2508,-1.2671,-1.2759,-1.2813,-1.2922,-1.2963,-1.2963,-1.2969,-1.2827,-1.2664,-1.2766,-1.2752,-1.2739,-1.2963,-1.3057,-1.3112,-1.3214,-1.3349,-1.3464,-1.3464,-1.3498,-1.3532,-1.3532,-1.3532,-1.3532,-1.3532,-1.3587,-1.3627,-1.3627,-1.3505,-1.3349,-1.32,0.0,0.0,0.0,0.0,0.0,0.0,-1.1613,-1.1484,-1.1402,-1.1158,0.0,0.0,0.0,0.0,-1.1138,-1.1199,0.0,0.0,0.0,0.0,0.0,-1.5025,-1.5452,-1.5852,-1.6056,-1.6205,-1.6313,-1.6402,-1.6578,-1.6822,-1.6931,-1.6978,-1.6978,-1.6978,-1.6978,-1.6978,-1.6978,-1.6978,-1.6978,-1.6978,-1.6978,-1.6978,-0.5439,-0.5503,-0.7256,-1.2786,-1.3954,-1.4048,-1.4203,-1.4229,-1.4276,-1.4271,-1.0161,-0.8998,-1.4022,-1.4434,-1.4455,-1.4713,-1.4468,-1.4373,-1.455,-1.4401,-1.4312,0.0,0.0,-1.3946,-1.3682,-1.32,-1.291,-1.2491,0.0,0.0,-1.0941,0.0,-1.0799,-1.0962,-1.1253,-1.147,-1.1633,-1.1932,-1.2223,-1.2494,-1.2501,-1.2684,-1.2935,-1.2786,-1.2827,-1.2963,-1.2963,-1.2963,-1.2963,-1.2836,-1.2842,-1.2836,-1.2969,-1.3051,-1.3166,-1.3166,-1.3275,-1.3397,-1.3397,-1.3512,-1.3627,-1.3627,-1.3729,-1.3838,-1.3838,-1.3838,-1.3838,-1.3838,-1.3729,-1.3627,-1.3627,-1.3505,-1.3349,-1.32,0.0,0.0,0.0,0.0,0.0,0.0,-1.1918,-1.1708,-1.1416,-1.1253,0.0,0.0,0.0,0.0,0.0,0.0,0.0,-1.2474,-1.3085,0.0,-1.4726,-1.5181,-1.556,-1.5859,-1.6164,-1.6307,-1.632,-1.6612,-1.6829,-1.6978,-1.6978,-1.6978,-1.6978,-1.6978,-1.6978,-1.6978,-1.6978,-1.6978,-1.6978,-1.6978,-1.6978,-1.6978,-0.1674,-0.17,-0.2248,-0.4075,-0.7156,-1.0466,-1.3874,-1.1544,-1.0494,-1.3942,-1.3002,-1.1351,-0.975,-1.2598,-1.4544,0.0,-1.4551,-1.4524,0.0,-1.1283,-1.085,-1.4176,-1.4285,-1.4283,-1.4027,-1.064,-1.0156,-1.3123,0.0,0.0,0.0,-1.1355,-1.1362,-1.1416,-1.1606,-1.1837,-1.2088,-1.2284,-1.2474,-1.2664,-1.2773,-1.2813,-1.282,-1.2996,-1.2936,-1.3152,-1.3261,-1.3308,-1.3342,-1.3264,-1.1093,-0.8571,-0.8627,-1.0726,-1.3083,-1.3308,-1.3451,-1.3412,-1.3559,-1.3661,-1.3777,-1.3777,-1.3804,-1.3838,-1.3838,-1.3838,-1.3871,-1.3973,-1.396,-1.3933,-1.3933,-1.3804,-1.3654,-1.3505,-1.3193,0.0,0.0,0.0,0.0,0.0,-1.1714,-1.1647,0.0,-1.1409,0.0,0.0,0.0,0.0,0.0,0.0,0.0,0.0,-1.3186,0.0,-1.4577,-1.5133,-1.556,-1.5852,-1.6056,-1.6259,-1.6463,-1.6768,-1.6937,-1.6978,-1.6978,-1.6978,-1.6978,-1.6978,-1.6978,-1.6978,-1.6978,-1.6978,-1.6978,-1.6978,-1.6978,-1.6978,0.0,0.0,0.0,0.0,-0.2533,-0.5465,-0.8469,-0.9451,-1.084,-1.3821,-1.4222,-1.1794,-0.5193,-0.7242,0.0,-1.1543,-1.1844,-1.2557,-1.4473,-0.9995,-0.7688,-0.8919,-1.0615,-1.2485,-1.4204,0.0,0.0,-1.3384,-1.28,-1.2319,-1.1803,-1.1748,-1.1775,-1.1877,-1.202,-1.223,-1.2326,-1.2474,-1.2628,-1.2775,-1.2809,-1.2842,-1.3037,-1.3023,-1.2099,-1.0634,-1.0882,-1.1975,-1.3432,-1.3343,-1.1498,-0.895,-0.7266,-0.9631,-1.2952,-1.2047,-1.2627,-1.3579,-1.3715,-1.3817,-1.3926,-1.3926,-1.3966,-1.4014,-1.4014,-1.4014,-1.4041,-1.4136,-1.4116,-1.4055,-1.3994,-1.3865,-1.3715,-1.3566,-1.3214,-1.2874,-1.2623,0.0,0.0,0.0,0.0,0.0,0.0,-1.1714,-1.1796,0.0,0.0,0.0,0.0,0.0,0.0,-1.282,-1.3519,0.0,-1.4841,-1.5337,-1.5696,-1.594,-1.6096,-1.632,-1.6612,-1.6809,-1.6924,-1.6978,-1.6978,-1.6978,-1.6978,-1.6978,-1.6978,-1.6978,-1.6978,-1.6978,-1.6978,-1.6978,-1.6978,-1.6978,0.0,0.0,0.0,0.0,0.0,0.0,0.0,-0.7541,-1.3352,-1.3216,-1.3262,-0.9954,-0.0981,0.0,-0.1962,-0.6661,0.0,0.0,0.0,-0.9437,-0.4636,-0.0182,-0.4175,-0.8648,-1.3167,-0.8913,-0.8595,-1.2539,-1.2172,-1.2046,-1.173,-1.1884,-1.2101,-1.2345,-1.2481,-1.2481,-1.2503,-1.2475,-1.2462,-1.2604,-1.23,-1.2408,-1.2971,-1.3012,-1.0666,-0.7041,-0.6533,-0.8964,-1.2526,-1.3258,-1.3369,-1.2594,-0.7664,-0.9149,-1.2073,-0.973,-1.1268,-1.3747,-1.3871,-1.3973,-1.4089,-1.4089,-1.4197,-1.4299,-1.4299,-1.4299,-1.4299,-1.4299,-1.4183,-1.4041,-1.3899,-1.3749,-1.3593,-1.3444,-1.3152,-1.2888,-1.2725,0.0,0.0,0.0,0.0,0.0,0.0,-1.2121,-1.2182,0.0,0.0,0.0,0.0,0.0,-1.2556,-1.339,-1.4014,-1.4679,-1.5404,-1.5703,-1.5934,-1.6083,-1.6259,-1.6476,-1.6734,-1.6754,-1.6842,-1.6978,-1.6978,-1.6978,-1.6978,-1.6978,-1.6978,-1.6978,-1.6978,-1.6978,-1.6978,-1.6978,-1.6978,-1.6978,0.0,0.0,0.0,0.0,0.0,0.0,0.0,-0.1916,-0.3292,-0.3454,-0.3298,-0.2547,-0.0196,0.0,-0.0398,-0.1602,-0.1772,-0.2136,-0.3472,-0.2465,-0.112,-0.0,-0.1089,-0.2154,-0.3398,-0.2299,-0.2087,-0.3231,-0.6483,-0.8006,-0.775,-1.1213,-1.2641,-1.2542,-1.2742,-1.2842,-1.2657,-0.9193,-0.7934,-0.8186,-0.8161,-0.8011,-0.8386,-1.1951,-1.2656,-1.097,-0.4027,-0.2199,-0.4282,-1.1096,-1.3352,-1.2067,-0.4087,-0.2321,-0.3741,-0.6444,-1.0549,-1.4102,-1.3928,-1.417,-1.4278,-1.4251,-1.4272,-1.4299,-1.4299,-1.4299,-1.4299,-1.4299,-1.4272,-1.4238,-1.4197,-1.3973,-1.3743,-1.36,-1.3132,-1.2691,-1.2433,-1.2101,0.0,0.0,-1.1938,-1.2054,-1.2169,-1.225,-1.2352,0.0,0.0,0.0,0.0,-1.3132,-1.3356,-1.3566,-1.4265,-1.4882,-1.5404,-1.5703,-1.5934,-1.609,-1.6463,-1.6619,-1.6585,-1.6822,-1.6944,-1.6978,-1.6978,-1.6978,-1.6978,-1.6978,-1.6978,-1.6978,-1.6978,-1.6978,-1.6978,-1.6978,-1.6978,-1.6978,0.0,0.0,0.0,0.0,0.0,0.0,0.0,0.0,0.0,0.0,0.0,0.0,0.0,0.0,0.0,0.0,0.0,0.0,0.0,0.0,0.0,0.0,0.0,0.0,0.0,0.0,0.0,-0.0,-0.2381,-0.3548,-0.3537,-0.5943,-0.8082,-0.9883,-0.9942,-1.118,-1.3082,-1.0504,-0.7271,-0.3553,-0.3571,-0.3567,-0.3724,-0.6309,-0.7355,-0.6669,-0.1706,0.0,-0.0695,-0.5597,-0.7244,-0.6427,-0.1613,0.0,-0.0537,-0.3004,-0.7112,-1.0957,-1.0848,-1.2497,-1.4373,-1.4353,-1.4346,-1.434,-1.4326,-1.4326,-1.4319,-1.4306,-1.4299,-1.4278,-1.4211,-1.4,-1.3749,-1.3464,-1.303,-1.2603,-1.2237,-1.204,0.0,-1.1938,-1.2189,-1.2427,-1.2583,-1.2779,-1.2881,-1.284,0.0,0.0,-1.3268,-1.3756,-1.4034,-1.4034,-1.4692,-1.5262,-1.571,-1.6008,-1.6198,-1.6286,-1.653,-1.6639,-1.6632,-1.6795,-1.691,-1.6978,-1.6978,-1.6978,-1.6978,-1.6978,-1.6978,-1.6978,-1.6978,-1.6978,-1.6978,-1.6978,-1.6978,-1.6978,0.0,0.0,0.0,0.0,0.0,0.0,0.0,0.0,0.0,0.0,0.0,0.0,0.0,0.0,0.0,0.0,0.0,0.0,0.0,0.0,0.0,0.0,0.0,0.0,0.0,0.0,0.0,0.0,0.0,0.0,0.0,0.0,-0.2025,-0.5712,-0.5436,-0.7677,-1.1345,-1.1345,-0.6932,0.0,0.0,0.0,0.0,0.0,0.0,0.0,0.0,0.0,0.0,0.0,0.0,0.0,0.0,0.0,0.0,0.0,-0.287,-0.6094,-0.6079,-0.9491,-1.3127,-1.3127,-1.3127,-1.3299,-1.3268,-1.3813,-1.4353,-1.4319,-1.4312,-1.4278,-1.4143,-1.3973,-1.3709,-1.3281,-1.2922,-1.2556,-1.2155,0.0,-1.2088,-1.2155,-1.2542,-1.2868,-1.3044,-1.3403,-1.3492,-1.3152,-1.3675,-1.3878,-1.3587,-1.419,-1.4584,-1.4679,-1.5181,-1.5669,-1.6144,-1.6422,-1.6544,-1.6524,-1.6571,-1.6646,-1.6748,-1.6775,-1.6856,-1.6978,-1.6978,-1.6978,-1.6978,-1.6978,-1.6978,-1.6978,-1.6978,-1.6978,-1.6978,-1.6978,-1.6978,-1.6978,0.0,0.0,0.0,0.0,0.0,0.0,0.0,0.0,0.0,0.0,0.0,0.0,0.0,0.0,0.0,0.0,0.0,0.0,0.0,0.0,0.0,0.0,0.0,0.0,0.0,0.0,0.0,0.0,0.0,0.0,0.0,0.0,-0.0346,-0.1042,-0.1038,-0.1385,-0.2086,-0.2086,-0.1222,0.0,0.0,0.0,0.0,0.0,0.0,0.0,0.0,0.0,0.0,0.0,0.0,0.0,0.0,0.0,0.0,0.0,-0.0538,-0.1076,-0.1074,-0.4646,-0.8226,-0.8226,-0.8226,-0.8226,-0.8222,-1.1293,-1.4216,-1.4387,-1.4387,-1.4202,-1.4353,-1.4095,-1.3783,-1.3464,-1.2922,-1.2474,-1.2284,0.0,-1.2203,-1.2583,-1.2908,-1.3214,-1.3498,-1.3587,-1.3702,-1.3885,-1.3777,-1.3885,-1.4319,-1.457,-1.4936,-1.5445,-1.5554,-1.5879,-1.6449,-1.6625,-1.6653,-1.6524,-1.6781,-1.6856,-1.6754,-1.6883,-1.6958,-1.6978,-1.6978,-1.6978,-1.6978,-1.6978,-1.6978,-1.6978,-1.6978,-1.6978,-1.6978,-1.6978,-1.6978,-1.6978,0.0,0.0,0.0,0.0,0.0,0.0,0.0,0.0,0.0,0.0,0.0,0.0,0.0,0.0,0.0,0.0,0.0,0.0,0.0,0.0,0.0,0.0,0.0,0.0,0.0,0.0,0.0,0.0,0.0,0.0,0.0,0.0,0.0,0.0,0.0,0.0,0.0,0.0,0.0,0.0,0.0,0.0,0.0,0.0,0.0,0.0,0.0,0.0,0.0,0.0,0.0,0.0,0.0,0.0,0.0,0.0,0.0,0.0,0.0,-0.1612,-0.3222,-0.3222,-0.3222,-0.3222,-0.3217,-0.5008,-0.7338,-0.9852,-1.0392,-1.0392,-1.0392,-1.0379,-1.1041,-1.329,-1.3071,0.0,0.0,-1.2266,-1.2528,-1.282,-1.3254,-1.362,-1.3844,-1.4014,-1.4129,-1.419,-1.4217,-1.438,-1.474,-1.4896,-1.5255,-1.5859,-1.611,-1.6368,-1.6646,-1.6795,-1.6836,-1.6768,-1.6917,-1.6944,-1.6876,-1.6951,-1.6978,-1.6978,-1.6978,-1.6978,-1.6978,-1.6978,-1.6978,-1.6978,-1.6978,-1.6978,-1.6978,-1.6978,-1.6978,-1.6978,0.0,0.0,0.0,0.0,0.0,0.0,0.0,0.0,0.0,0.0,0.0,0.0,0.0,0.0,0.0,0.0,0.0,0.0,0.0,0.0,0.0,0.0,0.0,0.0,0.0,0.0,0.0,0.0,0.0,0.0,0.0,0.0,0.0,0.0,0.0,0.0,0.0,0.0,0.0,0.0,0.0,0.0,0.0,0.0,0.0,0.0,0.0,0.0,0.0,0.0,0.0,0.0,0.0,0.0,0.0,0.0,0.0,0.0,0.0,0.0,0.0,0.0,0.0,0.0,0.0,0.0,-0.1075,-0.4679,-0.5383,-0.5368,-0.538,-0.5464,-0.6576,-1.0114,0.0,0.0,0.0,-1.247,-1.2769,-1.3152,-1.36,-1.3966,-1.4156,-1.438,-1.4496,-1.4462,-1.4665,-1.4875,-1.5065,-1.5208,-1.556,-1.6164,-1.6551,-1.6768,-1.6802,-1.6924,-1.6978,-1.6978,-1.6978,-1.6978,-1.6978,-1.6978,-1.6978,-1.6978,-1.6978,-1.6978,-1.6978,-1.6978,-1.6978,-1.6978,-1.6978,-1.6978,-1.6978,-1.6978,-1.6978,-1.6978,0.0,0.0,0.0,0.0,0.0,0.0,0.0,0.0,0.0,0.0,0.0,0.0,0.0,0.0,0.0,0.0,0.0,0.0,0.0,0.0,0.0,0.0,0.0,0.0,0.0,0.0,0.0,0.0,0.0,0.0,0.0,0.0,0.0,0.0,0.0,0.0,0.0,0.0,0.0,0.0,0.0,0.0,0.0,0.0,0.0,0.0,0.0,0.0,0.0,0.0,0.0,0.0,0.0,0.0,0.0,0.0,0.0,0.0,0.0,0.0,0.0,0.0,0.0,0.0,0.0,0.0,-0.018,-0.0368,-0.0546,-0.054,-0.0545,-0.0536,-0.0698,-0.1027,0.0,0.0,-1.1885,-1.2697,-1.3005,-1.3599,-1.396,-1.4163,-1.4448,-1.4502,-1.4624,-1.4903,-1.4943,-1.5079,-1.5364,-1.552,-1.5879,-1.6469,-1.6659,-1.6822,-1.6965,-1.6978,-1.6978,-1.6978,-1.6978,-1.6978,-1.6978,-1.6978,-1.6978,-1.6978,-1.6978,-1.6978,-1.6978,-1.6978,-1.6978,-1.6978,-1.6978,-1.6978,-1.6978,-1.6978,-1.6978,-1.6978,0.0,0.0,0.0,0.0,0.0,0.0,0.0,0.0,0.0,0.0,0.0,0.0,0.0,0.0,0.0,0.0,0.0,0.0,0.0,0.0,0.0,0.0,0.0,0.0,0.0,0.0,0.0,0.0,0.0,0.0,0.0,0.0,0.0,0.0,0.0,0.0,0.0,0.0,0.0,0.0,0.0,0.0,0.0,0.0,0.0,0.0,0.0,0.0,0.0,0.0,0.0,0.0,0.0,0.0,0.0,0.0,0.0,0.0,0.0,0.0,0.0,0.0,0.0,0.0,0.0,0.0,0.0,0.0,0.0,0.0,0.0,0.0,0.0,0.0,0.0,-0.3044,-0.446,-0.7042,-1.0032,-1.3429,-1.4196,-1.455,-1.4645,-1.474,-1.4882,-1.5086,-1.5208,-1.5391,-1.5669,-1.6001,-1.6334,-1.6653,-1.6815,-1.6924,-1.6978,-1.6978,-1.6978,-1.6978,-1.6978,-1.6978,-1.6978,-1.6978,-1.6978,-1.6978,-1.6978,-1.6978,-1.6978,-1.6978,-1.6978,-1.6978,-1.6978,-1.6978,-1.6978,-1.6978,-1.6978,-1.6978,0.0,0.0,0.0,0.0,0.0,0.0,0.0,0.0,0.0,0.0,0.0,0.0,0.0,0.0,0.0,0.0,0.0,0.0,0.0,0.0,0.0,0.0,0.0,0.0,0.0,0.0,0.0,0.0,0.0,0.0,0.0,0.0,0.0,0.0,0.0,0.0,0.0,0.0,0.0,0.0,0.0,0.0,0.0,0.0,0.0,0.0,0.0,0.0,0.0,0.0,0.0,0.0,0.0,0.0,0.0,0.0,0.0,0.0,0.0,0.0,0.0,0.0,0.0,0.0,0.0,0.0,0.0,0.0,0.0,0.0,0.0,0.0,0.0,0.0,0.0,0.0,0.0,-0.249,-0.5703,-0.9195,-1.2494,-1.4685,-1.4658,-1.4839,-1.5013,-1.5154,-1.5328,-1.5535,-1.6001,-1.6395,-1.6653,-1.6748,-1.6904,-1.6978,-1.6978,-1.6978,-1.6978,-1.6978,-1.6978,-1.6978,-1.6978,-1.6978,-1.6978,-1.6978,-1.6978,-1.6978,-1.6978,-1.6978,-1.6978,-1.6978,-1.6978,-1.6978,-1.6978,-1.6978,-1.6978,-1.6978,0.0,0.0,0.0,0.0,0.0,0.0,0.0,0.0,0.0,0.0,0.0,0.0,0.0,0.0,0.0,0.0,0.0,0.0,0.0,0.0,0.0,0.0,0.0,0.0,0.0,0.0,0.0,0.0,0.0,0.0,0.0,0.0,0.0,0.0,0.0,0.0,0.0,0.0,0.0,0.0,0.0,0.0,0.0,0.0,0.0,0.0,0.0,0.0,0.0,0.0,0.0,0.0,0.0,0.0,0.0,0.0,0.0,0.0,0.0,0.0,0.0,0.0,0.0,0.0,0.0,0.0,0.0,0.0,0.0,0.0,0.0,0.0,0.0,0.0,0.0,0.0,0.0,0.0,0.0,0.0,-0.8579,-1.4692,-1.4692,-1.4577,-1.4796,-1.5133,-1.548,-1.5685,-1.6347,-1.6446,-1.6795,-1.6754,-1.6904,-1.6978,-1.6985,-1.6978,-1.6978,-1.6978,-1.6978,-1.6978,-1.6978,-1.6978,-1.6978,-1.6978,-1.6978,-1.6978,-1.6978,-1.6978,-1.6978,-1.6978,-1.6978,-1.6978,-1.6978,-1.6978,-1.6978,-1.6978,0.0,0.0,0.0,0.0,0.0,0.0,0.0,0.0,0.0,0.0,0.0,0.0,0.0,0.0,0.0,0.0,0.0,0.0,0.0,0.0,0.0,0.0,0.0,0.0,0.0,0.0,0.0,0.0,0.0,0.0,0.0,0.0,0.0,0.0,0.0,0.0,0.0,0.0,0.0,0.0,0.0,0.0,0.0,0.0,0.0,0.0,0.0,0.0,0.0,0.0,0.0,0.0,0.0,0.0,0.0,0.0,0.0,0.0,0.0,0.0,0.0,0.0,0.0,0.0,0.0,0.0,0.0,0.0,0.0,0.0,0.0,0.0,0.0,0.0,0.0,0.0,0.0,0.0,0.0,0.0,-0.5789,-0.9679,-0.9666,-0.9717,-0.9785,-0.9875,-1.0032,-0.8745,-0.5138,-1.231,-1.6688,-1.6992,-1.7012,-1.7032,-1.7066,-1.7005,-1.6978,-1.6978,-1.6978,-1.6978,-1.6978,-1.6978,-1.6978,-1.6978,-1.6978,-1.6978,-1.6978,-1.6978,-1.6978,-1.6978,-1.6978,-1.6978,-1.6978,-1.6978,-1.6978,-1.6978,0.0,0.0,0.0,0.0,0.0,0.0,0.0,0.0,0.0,0.0,0.0,0.0,0.0,0.0,0.0,0.0,0.0,0.0,0.0,0.0,0.0,0.0,0.0,0.0,0.0,0.0,0.0,0.0,0.0,0.0,0.0,0.0,0.0,0.0,0.0,0.0,0.0,0.0,0.0,0.0,0.0,0.0,0.0,0.0,0.0,0.0,0.0,0.0,0.0,0.0,0.0,0.0,0.0,0.0,0.0,0.0,0.0,0.0,0.0,0.0,0.0,0.0,0.0,0.0,0.0,0.0,0.0,0.0,0.0,0.0,0.0,0.0,0.0,0.0,0.0,0.0,0.0,0.0,0.0,0.0,-0.2753,-0.4528,-0.4504,-0.4534,-0.4563,-0.4589,-0.4671,-0.3496,-0.0207,-0.628,-1.1002,-1.3629,-1.3613,-1.4692,-1.6889,-1.4674,-1.4856,-1.6998,-1.6998,-1.6992,-1.6978,-1.6978,-1.6978,-1.6978,-1.6978,-1.6978,-1.6978,-1.6978,-1.6978,-1.6978,-1.6978,-1.6978,-1.6978,-1.6978,-1.6978,-1.6978,0.0,0.0,0.0,0.0,0.0,0.0,0.0,0.0,0.0,0.0,0.0,0.0,0.0,0.0,0.0,0.0,0.0,0.0,0.0,0.0,0.0,0.0,0.0,0.0,0.0,0.0,0.0,0.0,0.0,0.0,0.0,0.0,0.0,0.0,0.0,0.0,0.0,0.0,0.0,0.0,0.0,0.0,0.0,0.0,0.0,0.0,0.0,0.0,0.0,0.0,0.0,0.0,0.0,0.0,0.0,0.0,0.0,0.0,0.0,0.0,0.0,0.0,0.0,0.0,0.0,0.0,0.0,0.0,0.0,0.0,0.0,0.0,0.0,0.0,0.0,0.0,0.0,0.0,0.0,0.0,0.0,0.0,0.0,0.0,0.0,0.0,0.0,0.0,0.0,0.0,-0.2336,-0.7641,-0.8276,-1.1271,-1.6895,-1.1916,-1.168,-1.6176,-1.6822,-1.7019,-1.6992,-1.6985,-1.6985,-1.6985,-1.6985,-1.6978,-1.6978,-1.6978,-1.6978,-1.6978,-1.6978,-1.6978,-1.6978,-1.6978,-1.6978,-1.6978,0.0,0.0,0.0,0.0,0.0,0.0,0.0,0.0,0.0,0.0,0.0,0.0,0.0,0.0,0.0,0.0,0.0,0.0,0.0,0.0,0.0,0.0,0.0,0.0,0.0,0.0,0.0,0.0,0.0,0.0,0.0,0.0,0.0,0.0,0.0,0.0,0.0,0.0,0.0,0.0,0.0,0.0,0.0,0.0,0.0,0.0,0.0,0.0,0.0,0.0,0.0,0.0,0.0,0.0,0.0,0.0,0.0,0.0,0.0,0.0,0.0,0.0,0.0,0.0,0.0,0.0,0.0,0.0,0.0,0.0,0.0,0.0,0.0,0.0,0.0,0.0,0.0,0.0,0.0,0.0,0.0,0.0,0.0,0.0,0.0,0.0,0.0,0.0,0.0,0.0,-0.0639,-0.1703,-0.6169,-1.1312,-1.6982,-1.5861,-1.3444,-1.0399,-1.4915,-1.708,-1.7073,-1.7039,-1.7019,-1.7019,-1.6992,-1.6978,-1.6978,-1.6978,-1.6978,-1.6978,-1.6978,-1.6978,-1.6978,-1.6978,-1.6978,-1.6978,0.0,0.0,0.0,0.0,0.0,0.0,0.0,0.0,0.0,0.0,0.0,0.0,0.0,0.0,0.0,0.0,0.0,0.0,0.0,0.0,0.0,0.0,0.0,0.0,0.0,0.0,0.0,0.0,0.0,0.0,0.0,0.0,0.0,0.0,0.0,0.0,0.0,0.0,0.0,0.0,0.0,0.0,0.0,0.0,0.0,0.0,0.0,0.0,0.0,0.0,0.0,0.0,0.0,0.0,0.0,0.0,0.0,0.0,0.0,0.0,0.0,0.0,0.0,0.0,0.0,0.0,0.0,0.0,0.0,0.0,0.0,0.0,0.0,0.0,0.0,0.0,0.0,0.0,0.0,0.0,0.0,0.0,0.0,0.0,0.0,0.0,0.0,0.0,0.0,0.0,0.0,0.0,-0.2982,-0.5969,-0.8762,-1.4366,-1.2833,-0.4462,-0.7441,-1.0208,-1.2984,-1.2963,-1.4463,-1.7066,-1.7046,-1.7039,-1.7039,-1.7039,-1.7039,-1.7039,-1.7039,-1.7039,-1.7039,-1.7039,-1.7039,-1.7039,0.0,0.0,0.0,0.0,0.0,0.0,0.0,0.0,0.0,0.0,0.0,0.0,0.0,0.0,0.0,0.0,0.0,0.0,0.0,0.0,0.0,0.0,0.0,0.0,0.0,0.0,0.0,0.0,0.0,0.0,0.0,0.0,0.0,0.0,0.0,0.0,0.0,0.0,0.0,0.0,0.0,0.0,0.0,0.0,0.0,0.0,0.0,0.0,0.0,0.0,0.0,0.0,0.0,0.0,0.0,0.0,0.0,0.0,0.0,0.0,0.0,0.0,0.0,0.0,0.0,0.0,0.0,0.0,0.0,0.0,0.0,0.0,0.0,0.0,0.0,0.0,0.0,0.0,0.0,0.0,0.0,0.0,0.0,0.0,0.0,0.0,0.0,0.0,0.0,0.0,0.0,0.0,0.0,0.0,0.0,-0.9409,-0.9409,0.0,0.0,-0.2548,-0.7005,-0.7002,-0.956,-1.4075,-1.5151,-1.558,-1.558,-1.558,-1.558,-1.558,-1.558,-1.558,-1.558,-1.558,-1.558,-1.558,0.0,0.0,0.0,0.0,0.0,0.0,0.0,0.0,0.0,0.0,0.0,0.0,0.0,0.0,0.0,0.0,0.0,0.0,0.0,0.0,0.0,0.0,0.0,0.0,0.0,0.0,0.0,0.0,0.0,0.0,0.0,0.0,0.0,0.0,0.0,0.0,0.0,0.0,0.0,0.0,0.0,0.0,0.0,0.0,0.0,0.0,0.0,0.0,0.0,0.0,0.0,0.0,0.0,0.0,0.0,0.0,0.0,0.0,0.0,0.0,0.0,0.0,0.0,0.0,0.0,0.0,0.0,0.0,0.0,0.0,0.0,0.0,0.0,0.0,0.0,0.0,0.0,0.0,0.0,0.0,0.0,0.0,0.0,0.0,0.0,0.0,0.0,0.0,0.0,0.0,0.0,0.0,0.0,0.0,0.0,-0.1492,-0.1492,0.0,0.0,-0.0426,-0.1065,-0.1063,-0.1487,-0.2549,-0.7429,-0.9553,-0.9553,-0.9553,-0.9553,-0.9553,-0.9553,-0.9553,-0.9553,-0.9553,-0.9553,-0.9553,0.0,0.0,0.0,0.0,0.0,0.0,0.0,0.0,0.0,0.0,0.0,0.0,0.0,0.0,0.0,0.0,0.0,0.0,0.0,0.0,0.0,0.0,0.0,0.0,0.0,0.0,0.0,0.0,0.0,0.0,0.0,0.0,0.0,0.0,0.0,0.0,0.0,0.0,0.0,0.0,0.0,0.0,0.0,0.0,0.0,0.0,0.0,0.0,0.0,0.0,0.0,0.0,0.0,0.0,0.0,0.0,0.0,0.0,0.0,0.0,0.0,0.0,0.0,0.0,0.0,0.0,0.0,0.0,0.0,0.0,0.0,0.0,0.0,0.0,0.0,0.0,0.0,0.0,0.0,0.0,0.0,0.0,0.0,0.0,0.0,0.0,0.0,0.0,0.0,0.0,0.0,0.0,0.0,0.0,0.0,0.0,0.0,0.0,0.0,0.0,0.0,0.0,0.0,-0.0213,-0.2764,-0.3826,-0.3826,-0.3826,-0.3826,-0.3826,-0.3826,-0.3826,-0.3826,-0.3826,-0.3826,-0.3826]}]]